[[{"header":{"parameterUnit":"m.s-1","parameterCategory":1,"la1":31.0,"la2":29.5877,"lo1":-88.7671,"lo2":-86.6584,"dy":0.0162,"dx":0.0185,"nx":115,"ny":88,"refTime":"2023-09-25T00:00:00:Z","depth":0,"parameterNumber":2,"parameterNumberName":"U-component_of_WINDS"},"data":[0.0,0.0,0.0,0.0,0.0,0.0,0.0,0.0,0.0,0.0,0.0,0.0,0.0,0.0,0.0,0.0,0.0,0.0,0.0,0.0,0.0,0.0,0.0,0.0,0.0,0.0,0.0,0.0,0.0,0.0,0.0,0.0,0.0,0.0,0.0,0.0,0.0,0.0,0.0,0.0,0.0,0.0,0.0,0.0,0.0,0.0,0.0,0.0,0.0,0.0,0.0,0.0,0.0,0.0,0.0,0.0,0.0,0.0,0.0,0.0,0.0,0.0,0.0,0.0,0.0,0.0,0.0,0.0,0.0,0.0,0.0,0.0,0.0,0.0,0.0,0.0,0.0,0.0,0.0,0.0,0.0,0.0,0.0,0.0,0.0,0.0,0.0,0.0,0.0,0.0,0.0,0.0,0.0,0.0,0.0,0.0,0.0,0.0,0.0,0.0,0.0,0.0,0.0,0.0,0.0,0.0,0.0,0.0,0.0,0.0,0.0,0.0,0.0,0.0,0.0,0.0,0.0,0.0,0.0,0.0,0.0,0.0,0.0,0.0,0.0,0.0,0.0,0.0,0.0,0.0,0.0,0.0,0.0,0.0,0.0,0.0,0.0,0.0,0.0,0.0,0.0,0.0,0.0,0.0,0.0,0.0,0.0,0.0,0.0,0.0,0.0,0.0,0.0,0.0,0.0,0.0,0.0,0.0,0.0,0.0,0.0,0.0,0.0,0.0,0.0,0.0,0.0,0.0,0.0,0.0,0.0,0.0,0.0,0.0,0.0,0.0,0.0,0.0,0.0,0.0,0.0,0.0,0.0,0.0,0.0,0.0,0.0,0.0,0.0,0.0,0.0,0.0,0.0,0.0,0.0,0.0,0.0,0.0,0.0,0.0,0.0,0.0,0.0,0.0,0.0,0.0,0.0,0.0,0.0,0.0,0.0,0.0,0.0,0.0,0.0,0.0,0.0,0.0,0.0,0.0,0.0,0.0,0.0,0.0,0.0,0.0,0.0,0.0,0.0,0.0,0.0,0.0,0.0,0.0,0.0,0.0,0.0,0.0,0.0,0.0,0.0,0.0,0.0,0.0,0.0,0.0,0.0,0.0,0.0,0.0,0.0,0.0,0.0,0.0,0.0,0.0,0.0,0.0,0.0,0.0,0.0,0.0,0.0,0.0,0.0,0.0,0.0,0.0,0.0,0.0,0.0,0.0,0.0,0.0,0.0,0.0,0.0,0.0,0.0,0.0,0.0,0.0,0.0,0.0,0.0,0.0,0.0,0.0,0.0,0.0,0.0,0.0,0.0,0.0,0.0,0.0,0.0,0.0,0.0,0.0,0.0,0.0,0.0,0.0,0.0,0.0,0.0,0.0,0.0,0.0,0.0,0.0,0.0,0.0,0.0,0.0,0.0,0.0,0.0,0.0,0.0,0.0,0.0,0.0,0.0,0.0,0.0,0.0,0.0,0.0,0.0,0.0,0.0,0.0,0.0,0.0,0.0,0.0,0.0,0.0,0.0,0.0,0.0,0.0,0.0,0.0,0.0,0.0,0.0,0.0,0.0,0.0,0.0,0.0,0.0,0.0,0.0,0.0,0.0,0.0,0.0,0.0,0.0,0.0,0.0,0.0,0.0,0.0,0.0,0.0,0.0,0.0,0.0,0.0,0.0,0.0,0.0,0.0,0.0,0.0,0.0,0.0,0.0,0.0,0.0,0.0,0.0,0.0,0.0,0.0,0.0,0.0,0.0,0.0,0.0,0.0,0.0,0.0,0.0,0.0,0.0,0.0,0.0,0.0,0.0,0.0,0.0,0.0,0.0,0.0,0.0,0.0,0.0,0.0,0.0,0.0,0.0,0.0,0.0,0.0,0.0,0.0,0.0,0.0,0.0,0.0,0.0,0.0,0.0,0.0,0.0,0.0,0.0,0.0,0.0,0.0,0.0,0.0,0.0,0.0,0.0,0.0,0.0,0.0,0.0,0.0,0.0,0.0,0.0,0.0,0.0,0.0,0.0,0.0,0.0,0.0,0.0,0.0,0.0,0.0,0.0,0.0,0.0,0.0,0.0,0.0,0.0,0.0,0.0,0.0,0.0,0.0,0.0,0.0,0.0,0.0,0.0,0.0,0.0,0.0,0.0,0.0,0.0,0.0,0.0,0.0,0.0,0.0,0.0,0.0,0.0,0.0,0.0,0.0,0.0,0.0,0.0,0.0,0.0,0.0,0.0,0.0,0.0,0.0,0.0,0.0,0.0,0.0,0.0,0.0,0.0,0.0,0.0,0.0,0.0,0.0,0.0,0.0,0.0,0.0,0.0,0.0,0.0,0.0,0.0,0.0,0.0,0.0,0.0,0.0,0.0,0.0,0.0,0.0,0.0,0.0,0.0,0.0,0.0,0.0,0.0,0.0,0.0,0.0,0.0,0.0,0.0,0.0,0.0,0.0,0.0,0.0,0.0,0.0,0.0,0.0,0.0,0.0,0.0,0.0,0.0,0.0,0.0,0.0,0.0,0.0,0.0,0.0,0.0,0.0,0.0,0.0,0.0,0.0,0.0,0.0,0.0,0.0,0.0,0.0,0.0,0.0,0.0,0.0,0.0,0.0,0.0,0.0,0.0,0.0,0.0,0.0,0.0,0.0,0.0,0.0,0.0,0.0,0.0,0.0,0.0,0.0,0.0,0.0,0.0,0.0,0.0,0.0,0.0,0.0,0.0,0.0,0.0,0.0,0.0,0.0,0.0,0.0,0.0,0.0,0.0,0.0,0.0,0.0,0.0,0.0,0.0,0.0,0.0,0.0,0.0,0.0,0.0,0.0,0.0,0.0,0.0,0.0,0.0,0.0,0.0,0.0,0.0,0.0,0.0,0.0,0.0,0.0,0.0,0.0,0.0,0.0,0.0,0.0,0.0,0.0,0.0,0.0,0.0,0.0,0.0,0.0,0.0,0.0,0.0,0.0,0.0,0.0,0.0,0.0,0.0,0.0,0.0,0.0,0.0,0.0,0.0,0.0,0.0,0.0,0.0,0.0,0.0,0.0,0.0,0.0,0.0,0.0,0.0,0.0,0.0,0.0,0.0,0.0,0.0,0.0,0.0,0.0,0.0,0.0,0.0,0.0,0.0,0.0,0.0,0.0,0.0,0.0,0.0,0.0,0.0,0.0,0.0,0.0,0.0,0.0,0.0,0.0,0.0,0.0,0.0,0.0,0.0,0.0,0.0,0.0,0.0,0.0,0.0,0.0,0.0,0.0,0.0,0.0,0.0,0.0,0.0,0.0,0.0,0.0,0.0,0.0,0.0,0.0,0.0,0.0,0.0,0.0,0.0,0.0,0.0,0.0,0.0,0.0,0.0,0.0,0.0,0.0,0.0,0.0,0.0,0.0,0.0,0.0,0.0,0.0,0.0,0.0,0.0,0.0,0.0,0.0,0.0,0.0,0.0,0.0,0.0,0.0,0.0,0.0,0.0,0.0,0.0,0.0,0.0,0.0,0.0,0.0,0.0,0.0,0.0,0.0,0.0,0.0,0.0,0.0,0.0,0.0,0.0,0.0,0.0,0.0,0.0,0.0,0.0,0.0,0.0,0.0,0.0,0.0,0.0,0.0,0.0,0.0,0.0,0.0,0.0,0.0,0.0,0.0,0.0,0.0,0.0,0.0,0.0,0.0,0.0,0.0,0.0,0.0,0.0,0.0,0.0,0.0,0.0,0.0,0.0,0.0,0.0,0.0,0.0,0.0,0.0,0.0,0.0,0.0,0.0,0.0,0.0,0.0,0.0,0.0,0.0,0.0,0.0,0.0,0.0,0.0,0.0,0.0,0.0,0.0,0.0,0.0,0.0,0.0,0.0,0.0,0.0,0.0,0.0,0.0,0.0,0.0,0.0,0.0,0.0,0.0,0.0,0.0,0.0,0.0,0.0,0.0,0.0,0.0,0.0,0.0,0.0,0.0,0.0,0.0,0.0,0.0,0.0,0.0,0.0,0.0,0.0,0.0,0.0,0.0,0.0,0.0,0.0,0.0,0.0,0.0,0.0,0.0,0.0,0.0,0.0,0.0,0.0,0.0,0.0,0.0,0.0,0.0,0.0,0.0,0.0,0.0,0.0,0.0,0.0,0.0,0.0,0.0,0.0,0.0,0.0,0.0,0.0,0.0,0.0,0.0,0.0,0.0,0.0,0.0,0.0,0.0,0.0,0.0,0.0,0.0,0.0,0.0,0.0,0.0,0.0,0.0,0.0,0.0,0.0,0.0,0.0,0.0,0.0,0.0,0.0,0.0,0.0,0.0,-1.8228,0.0,0.0,0.0,0.0,0.0,0.0,0.0,0.0,0.0,0.0,0.0,0.0,0.0,0.0,0.0,0.0,0.0,0.0,0.0,0.0,0.0,0.0,0.0,0.0,0.0,0.0,0.0,0.0,0.0,0.0,0.0,0.0,0.0,0.0,0.0,0.0,0.0,0.0,0.0,0.0,0.0,0.0,0.0,0.0,0.0,0.0,0.0,0.0,0.0,0.0,0.0,0.0,0.0,0.0,0.0,0.0,0.0,0.0,0.0,0.0,0.0,0.0,0.0,0.0,0.0,0.0,0.0,0.0,0.0,0.0,0.0,0.0,0.0,0.0,0.0,0.0,0.0,0.0,0.0,0.0,0.0,0.0,0.0,0.0,0.0,0.0,0.0,0.0,0.0,0.0,0.0,0.0,0.0,0.0,0.0,0.0,0.0,0.0,0.0,0.0,0.0,0.0,0.0,0.0,0.0,0.0,0.0,0.0,0.0,0.0,-1.9529,-1.9343,-1.9658,-1.9309,-1.8284,0.0,0.0,0.0,0.0,0.0,0.0,0.0,0.0,0.0,0.0,0.0,0.0,0.0,0.0,0.0,0.0,0.0,0.0,0.0,0.0,0.0,0.0,0.0,0.0,0.0,0.0,0.0,0.0,0.0,0.0,0.0,0.0,0.0,0.0,0.0,0.0,0.0,0.0,0.0,0.0,0.0,0.0,0.0,0.0,0.0,0.0,0.0,0.0,0.0,0.0,0.0,0.0,0.0,0.0,0.0,0.0,0.0,0.0,0.0,0.0,0.0,0.0,0.0,0.0,0.0,0.0,0.0,0.0,0.0,0.0,0.0,0.0,0.0,0.0,0.0,0.0,0.0,0.0,0.0,0.0,0.0,0.0,0.0,0.0,0.0,0.0,0.0,0.0,0.0,0.0,0.0,0.0,0.0,0.0,0.0,0.0,0.0,0.0,0.0,0.0,0.0,0.0,0.0,0.0,0.0,0.0,0.0,0.0,0.0,0.0,0.0,0.0,-1.9496,-1.9109,-1.8314,0.0,0.0,0.0,0.0,0.0,0.0,0.0,0.0,0.0,0.0,0.0,0.0,0.0,0.0,0.0,0.0,0.0,0.0,0.0,0.0,0.0,0.0,0.0,0.0,0.0,0.0,0.0,0.0,0.0,0.0,0.0,0.0,0.0,0.0,0.0,0.0,0.0,0.0,0.0,0.0,0.0,0.0,0.0,0.0,0.0,0.0,0.0,0.0,0.0,0.0,0.0,0.0,0.0,0.0,0.0,0.0,0.0,0.0,0.0,0.0,0.0,0.0,0.0,0.0,0.0,0.0,0.0,0.0,0.0,0.0,0.0,0.0,0.0,0.0,0.0,0.0,0.0,0.0,0.0,0.0,0.0,0.0,0.0,0.0,0.0,0.0,0.0,0.0,0.0,0.0,0.0,0.0,0.0,0.0,0.0,0.0,0.0,0.0,0.0,0.0,0.0,0.0,0.0,0.0,0.0,0.0,0.0,0.0,0.0,0.0,-1.911,-2.0158,-2.0024,0.0,-1.8715,0.0,0.0,0.0,0.0,0.0,0.0,0.0,0.0,0.0,0.0,0.0,0.0,0.0,0.0,0.0,0.0,0.0,0.0,0.0,0.0,0.0,0.0,0.0,0.0,0.0,0.0,0.0,0.0,0.0,0.0,0.0,0.0,0.0,0.0,0.0,0.0,0.0,0.0,0.0,0.0,0.0,0.0,0.0,0.0,0.0,0.0,0.0,0.0,0.0,0.0,0.0,0.0,0.0,0.0,0.0,0.0,0.0,0.0,0.0,0.0,0.0,0.0,0.0,0.0,0.0,0.0,0.0,0.0,0.0,0.0,0.0,0.0,0.0,0.0,0.0,0.0,0.0,0.0,0.0,0.0,0.0,0.0,0.0,0.0,0.0,0.0,0.0,0.0,0.0,0.0,0.0,0.0,0.0,0.0,0.0,0.0,0.0,0.0,0.0,0.0,0.0,0.0,0.0,0.0,0.0,0.0,0.0,0.0,0.0,0.0,-1.8822,-1.9617,-1.877,-1.8181,0.0,0.0,0.0,0.0,0.0,0.0,0.0,0.0,0.0,0.0,0.0,0.0,0.0,0.0,0.0,0.0,0.0,0.0,0.0,0.0,0.0,0.0,0.0,0.0,0.0,0.0,0.0,0.0,0.0,0.0,0.0,0.0,0.0,0.0,0.0,0.0,0.0,0.0,0.0,0.0,0.0,0.0,0.0,0.0,0.0,0.0,0.0,0.0,0.0,0.0,0.0,0.0,0.0,0.0,0.0,0.0,0.0,0.0,0.0,0.0,0.0,0.0,0.0,0.0,0.0,0.0,0.0,0.0,0.0,0.0,0.0,0.0,0.0,0.0,0.0,0.0,0.0,0.0,0.0,0.0,0.0,0.0,0.0,0.0,0.0,0.0,0.0,0.0,0.0,0.0,0.0,0.0,0.0,0.0,0.0,0.0,0.0,0.0,0.0,0.0,0.0,0.0,0.0,0.0,0.0,0.0,0.0,0.0,0.0,0.0,-1.8411,-1.8456,-1.896,-1.8073,-1.7613,-1.7742,0.0,0.0,0.0,0.0,0.0,0.0,0.0,0.0,0.0,0.0,0.0,0.0,0.0,0.0,0.0,0.0,0.0,0.0,0.0,0.0,0.0,0.0,0.0,0.0,0.0,0.0,0.0,0.0,0.0,0.0,0.0,0.0,0.0,0.0,0.0,0.0,0.0,0.0,0.0,0.0,0.0,0.0,0.0,0.0,0.0,0.0,0.0,0.0,0.0,0.0,0.0,0.0,0.0,0.0,0.0,0.0,0.0,0.0,0.0,0.0,0.0,0.0,0.0,0.0,0.0,0.0,0.0,0.0,0.0,0.0,0.0,0.0,0.0,0.0,0.0,0.0,0.0,0.0,0.0,0.0,0.0,0.0,0.0,0.0,0.0,0.0,0.0,0.0,0.0,0.0,0.0,0.0,0.0,0.0,0.0,0.0,0.0,0.0,0.0,0.0,0.0,0.0,0.0,0.0,0.0,0.0,0.0,0.0,-1.905,-1.828,-1.8099,-1.862,-1.862,-1.8618,0.0,0.0,0.0,0.0,0.0,0.0,0.0,0.0,0.0,0.0,0.0,0.0,0.0,0.0,0.0,0.0,0.0,0.0,0.0,0.0,0.0,0.0,0.0,0.0,0.0,0.0,0.0,0.0,0.0,0.0,0.0,0.0,0.0,0.0,0.0,0.0,0.0,0.0,0.0,0.0,0.0,0.0,0.0,0.0,0.0,0.0,0.0,0.0,0.0,0.0,0.0,0.0,0.0,0.0,0.0,0.0,0.0,0.0,0.0,0.0,0.0,0.0,0.0,0.0,0.0,0.0,0.0,0.0,0.0,0.0,0.0,0.0,0.0,0.0,0.0,0.0,0.0,0.0,0.0,0.0,0.0,0.0,0.0,0.0,0.0,0.0,0.0,0.0,0.0,0.0,0.0,0.0,0.0,0.0,0.0,0.0,0.0,0.0,0.0,0.0,0.0,0.0,0.0,0.0,0.0,0.0,0.0,0.0,0.0,-1.932,-1.9342,-1.9079,-1.8582,-1.9008,-1.8535,0.0,0.0,0.0,0.0,0.0,0.0,0.0,0.0,0.0,0.0,0.0,0.0,0.0,0.0,0.0,0.0,0.0,0.0,0.0,0.0,0.0,0.0,0.0,0.0,0.0,0.0,0.0,0.0,0.0,0.0,0.0,0.0,0.0,0.0,0.0,0.0,0.0,0.0,0.0,0.0,0.0,0.0,0.0,0.0,0.0,0.0,0.0,0.0,0.0,0.0,0.0,0.0,0.0,0.0,0.0,0.0,0.0,0.0,0.0,0.0,0.0,0.0,0.0,0.0,0.0,0.0,0.0,0.0,0.0,0.0,0.0,0.0,0.0,0.0,0.0,0.0,0.0,0.0,0.0,0.0,0.0,0.0,0.0,0.0,0.0,0.0,0.0,0.0,0.0,0.0,0.0,0.0,0.0,0.0,0.0,0.0,0.0,0.0,0.0,0.0,0.0,0.0,0.0,0.0,0.0,0.0,0.0,0.0,0.0,-1.8791,0.0,-1.8476,-1.7777,-1.8264,-1.774,0.0,0.0,0.0,0.0,0.0,0.0,0.0,0.0,0.0,0.0,0.0,0.0,0.0,0.0,0.0,0.0,0.0,0.0,0.0,0.0,0.0,0.0,0.0,0.0,0.0,0.0,0.0,0.0,0.0,0.0,0.0,0.0,0.0,0.0,0.0,0.0,0.0,0.0,0.0,0.0,0.0,0.0,0.0,0.0,0.0,0.0,0.0,0.0,0.0,0.0,0.0,0.0,0.0,0.0,0.0,0.0,0.0,0.0,0.0,0.0,0.0,0.0,0.0,0.0,0.0,0.0,0.0,0.0,0.0,0.0,0.0,0.0,0.0,0.0,0.0,0.0,0.0,0.0,0.0,0.0,0.0,0.0,0.0,0.0,0.0,0.0,0.0,0.0,0.0,0.0,0.0,0.0,0.0,0.0,0.0,0.0,0.0,0.0,0.0,0.0,0.0,0.0,0.0,0.0,0.0,0.0,0.0,0.0,-1.8453,-1.7345,-1.6493,-1.6135,-1.6107,-1.632,-1.6314,0.0,0.0,0.0,0.0,0.0,0.0,0.0,0.0,0.0,0.0,0.0,0.0,0.0,0.0,0.0,0.0,0.0,0.0,0.0,0.0,0.0,0.0,0.0,0.0,0.0,0.0,0.0,0.0,0.0,0.0,0.0,0.0,0.0,0.0,0.0,0.0,0.0,0.0,0.0,0.0,0.0,0.0,0.0,0.0,0.0,0.0,0.0,0.0,0.0,0.0,0.0,0.0,0.0,0.0,0.0,0.0,0.0,0.0,0.0,0.0,0.0,0.0,0.0,0.0,0.0,0.0,0.0,0.0,0.0,0.0,0.0,0.0,0.0,0.0,0.0,0.0,0.0,0.0,0.0,0.0,0.0,0.0,0.0,0.0,0.0,0.0,0.0,0.0,0.0,0.0,0.0,0.0,0.0,0.0,0.0,0.0,0.0,0.0,0.0,0.0,0.0,0.0,0.0,0.0,0.0,0.0,0.0,0.0,0.0,-1.7251,-1.6083,-1.5422,-1.5438,-1.6252,-1.6229,0.0,0.0,0.0,0.0,0.0,0.0,0.0,0.0,0.0,0.0,0.0,0.0,0.0,0.0,0.0,0.0,0.0,0.0,0.0,0.0,0.0,0.0,0.0,0.0,0.0,0.0,0.0,0.0,0.0,0.0,0.0,0.0,0.0,0.0,0.0,0.0,0.0,0.0,0.0,0.0,0.0,0.0,0.0,0.0,0.0,0.0,0.0,0.0,0.0,0.0,0.0,0.0,0.0,0.0,0.0,0.0,0.0,0.0,0.0,0.0,0.0,0.0,0.0,0.0,0.0,0.0,0.0,0.0,0.0,0.0,0.0,0.0,0.0,0.0,0.0,0.0,0.0,0.0,0.0,0.0,0.0,0.0,0.0,0.0,0.0,0.0,0.0,0.0,0.0,0.0,0.0,0.0,0.0,0.0,0.0,0.0,0.0,0.0,0.0,0.0,0.0,0.0,0.0,0.0,0.0,0.0,0.0,0.0,0.0,-1.4962,-1.3911,-1.3464,-1.3705,-1.4931,-1.5206,-1.4511,0.0,0.0,0.0,0.0,0.0,0.0,0.0,0.0,0.0,0.0,0.0,0.0,0.0,0.0,0.0,0.0,0.0,0.0,0.0,0.0,0.0,0.0,0.0,0.0,0.0,0.0,0.0,0.0,0.0,0.0,0.0,0.0,0.0,0.0,0.0,0.0,0.0,0.0,0.0,0.0,0.0,0.0,0.0,0.0,0.0,0.0,0.0,0.0,0.0,0.0,0.0,0.0,0.0,0.0,0.0,0.0,0.0,0.0,0.0,0.0,0.0,0.0,0.0,0.0,0.0,0.0,0.0,0.0,0.0,0.0,0.0,0.0,0.0,0.0,0.0,0.0,0.0,0.0,0.0,0.0,0.0,0.0,0.0,0.0,0.0,0.0,0.0,0.0,0.0,0.0,0.0,0.0,0.0,0.0,0.0,0.0,0.0,0.0,0.0,0.0,0.0,0.0,0.0,0.0,0.0,0.0,0.0,0.0,-1.1146,-1.0322,-1.0289,-1.1177,-1.2165,-1.3082,0.0,0.0,0.0,0.0,0.0,0.0,0.0,0.0,0.0,0.0,0.0,0.0,0.0,0.0,0.0,0.0,0.0,0.0,0.0,0.0,0.0,0.0,0.0,0.0,0.0,0.0,0.0,0.0,0.0,0.0,0.0,0.0,0.0,0.0,0.0,0.0,0.0,0.0,0.0,0.0,0.0,0.0,0.0,0.0,0.0,0.0,0.0,0.0,0.0,0.0,0.0,0.0,0.0,0.0,0.0,0.0,0.0,0.0,0.0,0.0,0.0,0.0,0.0,0.0,0.0,0.0,0.0,0.0,0.0,0.0,0.0,0.0,0.0,0.0,0.0,0.0,0.0,0.0,0.0,0.0,0.0,0.0,0.0,0.0,0.0,0.0,0.0,0.0,0.0,0.0,0.0,0.0,0.0,0.0,0.0,0.0,0.0,0.0,0.0,0.0,0.0,0.0,0.0,0.0,0.0,0.0,0.0,0.0,0.0,-0.9168,-0.7134,-0.6839,-0.8405,-0.6887,-0.7724,0.0,0.0,0.0,0.0,0.0,0.0,0.0,0.0,0.0,0.0,0.0,0.0,0.0,0.0,0.0,0.0,0.0,0.0,0.0,0.0,0.0,0.0,0.0,0.0,0.0,0.0,0.0,0.0,0.0,0.0,0.0,0.0,0.0,0.0,0.0,0.0,0.0,0.0,0.0,0.0,0.0,0.0,0.0,0.0,0.0,0.0,0.0,0.0,0.0,0.0,0.0,0.0,0.0,0.0,0.0,0.0,0.0,0.0,0.0,0.0,0.0,0.0,0.0,0.0,0.0,0.0,0.0,0.0,0.0,0.0,0.0,0.0,0.0,0.0,0.0,0.0,0.0,0.0,0.0,0.0,0.0,0.0,0.0,0.0,0.0,0.0,0.0,0.0,0.0,0.0,0.0,0.0,0.0,0.0,0.0,0.0,0.0,0.0,0.0,0.0,0.0,0.0,0.0,0.0,0.0,0.0,0.0,0.0,-0.9346,-0.7292,-0.4803,-0.37,-0.408,-0.3241,-0.4756,0.0,0.0,0.0,0.0,0.0,0.0,0.0,0.0,0.0,0.0,0.0,0.0,0.0,0.0,0.0,0.0,0.0,0.0,0.0,0.0,0.0,0.0,0.0,0.0,0.0,0.0,0.0,0.0,0.0,0.0,0.0,0.0,0.0,0.0,0.0,0.0,0.0,0.0,0.0,0.0,0.0,0.0,0.0,0.0,0.0,0.0,0.0,0.0,0.0,0.0,0.0,0.0,0.0,0.0,0.0,0.0,0.0,0.0,0.0,0.0,0.0,0.0,0.0,0.0,0.0,0.0,0.0,0.0,0.0,0.0,0.0,0.0,0.0,0.0,0.0,0.0,0.0,0.0,0.0,0.0,0.0,0.0,0.0,0.0,0.0,0.0,0.0,0.0,0.0,0.0,0.0,0.0,0.0,0.0,0.0,0.0,0.0,0.0,0.0,0.0,0.0,0.0,0.0,0.0,0.0,0.0,0.0,0.0,-0.7705,-0.5464,-0.3126,-0.1008,0.0796,-0.0255,-0.2551,0.0,0.0,0.0,0.0,0.0,0.0,0.0,0.0,0.0,0.0,0.0,0.0,0.0,0.0,0.0,0.0,0.0,0.0,0.0,0.0,0.0,0.0,0.0,0.0,0.0,0.0,0.0,0.0,0.0,0.0,0.0,0.0,0.0,0.0,0.0,0.0,0.0,0.0,0.0,0.0,0.0,0.0,0.0,0.0,0.0,0.0,0.0,0.0,0.0,0.0,0.0,0.0,0.0,0.0,0.0,0.0,0.0,0.0,0.0,0.0,0.0,0.0,0.0,0.0,0.0,0.0,0.0,0.0,0.0,0.0,0.0,0.0,0.0,0.0,0.0,0.0,0.0,0.0,0.0,0.0,0.0,0.0,0.0,0.0,0.0,0.0,0.0,0.0,0.0,0.0,0.0,0.0,0.0,0.0,0.0,0.0,0.0,0.0,0.0,0.0,0.0,0.0,0.0,0.0,0.0,0.0,0.0,0.0,-0.6685,-0.378,-0.2241,0.0032,0.3129,0.4808,0.3988,0.0,0.0,0.0,0.0,0.0,0.0,0.0,0.0,0.0,0.0,0.0,0.0,0.0,0.0,0.0,0.0,0.0,0.0,0.0,0.0,0.0,0.0,0.0,0.0,0.0,0.0,0.0,0.0,0.0,0.0,0.0,0.0,0.0,0.0,0.0,0.0,0.0,0.0,0.0,0.0,0.0,0.0,0.0,0.0,0.0,0.0,0.0,0.0,0.5238,0.0,0.0,0.0,0.0,0.0,0.0,0.0,0.0,0.0,0.0,0.0,0.0,0.0,0.0,0.0,0.0,0.0,0.0,0.0,0.0,0.0,0.0,0.0,0.0,0.0,0.0,0.0,0.0,0.0,0.0,0.0,0.0,0.0,0.0,0.0,0.0,0.0,0.0,0.0,0.0,0.0,0.0,0.0,0.0,0.0,0.0,0.0,0.0,0.0,0.0,0.0,0.0,0.0,0.0,0.0,0.0,0.0,0.0,0.0,-0.5232,-0.1809,-0.0821,0.1107,0.4076,0.6285,0.5692,0.0,0.0,0.0,0.0,0.0,0.0,0.0,0.0,0.0,0.0,0.0,0.0,0.0,0.0,0.0,0.0,0.0,0.0,0.0,0.0,0.0,0.0,0.0,0.0,0.0,0.0,0.0,0.0,0.0,0.0,0.0,0.0,0.0,0.0,0.0,0.0,0.0,0.0,0.0,0.0,0.0,0.0,0.0,0.0,0.0,0.0,0.0,0.0,0.0,0.0,0.0,0.0,0.0,0.0,0.0,0.0,0.0,0.0,0.0,0.0,0.0,0.0,0.0,0.0,0.0,0.0,0.0,0.0,0.0,0.0,0.0,0.0,0.0,0.0,0.0,0.0,0.0,0.0,0.0,0.0,0.0,0.0,0.0,0.0,0.0,0.0,0.0,0.0,0.0,0.0,0.0,0.0,0.0,0.0,0.0,0.0,0.0,0.0,0.0,0.0,0.0,0.0,0.0,0.0,0.0,0.0,0.0,-0.7472,-0.3551,-0.0066,0.063,0.2039,0.436,0.6106,0.5243,0.147,0.0,0.0,0.0,0.0,0.0,0.0,0.0,0.0,0.0,0.0,0.0,0.0,0.0,0.0,0.0,0.0,0.0,0.0,0.0,0.0,0.0,0.0,0.0,0.0,0.0,0.0,0.0,0.0,0.0,0.0,0.0,0.0,0.0,0.0,0.0,0.0,0.0,0.0,-0.5042,-0.3864,0.0,0.0,0.0,0.0,0.0,0.0,0.0,0.0,0.5236,0.0,0.0,0.0,0.0,0.0,0.0,0.0,0.0,0.0,0.0,0.0,0.0,0.0,0.0,0.0,0.0,0.0,0.0,0.0,0.0,0.0,0.0,0.0,0.0,0.0,0.0,0.0,0.0,0.0,0.0,0.0,0.0,0.0,0.0,0.0,0.0,0.0,0.0,0.0,0.0,0.0,0.0,0.0,0.0,0.0,0.0,0.0,0.0,0.0,0.0,0.0,0.0,0.0,0.0,0.0,0.0,-0.6634,-0.3933,-0.1507,0.0533,0.1389,0.2498,0.3987,0.58,0.4889,0.1058,0.0,0.0,0.0,0.0,0.0,0.0,0.0,0.0,0.0,0.0,0.0,0.0,0.0,0.0,0.0,0.0,0.0,0.0,0.0,0.0,0.0,0.0,0.0,0.0,0.0,0.0,0.0,0.0,0.0,0.0,0.0,0.0,0.0,0.0,0.0,0.0,0.0,0.0,0.0,-0.2762,-0.1913,0.0,0.0,0.0,0.0,0.0,0.0,0.0,0.0,0.3445,0.0,0.0,0.0,0.0,0.0,0.0,0.0,0.0,0.0,0.0,0.0,0.0,0.0,0.0,0.0,0.0,0.0,0.0,0.0,0.0,0.0,0.0,0.0,0.0,0.0,0.0,0.0,0.0,0.0,0.0,0.0,0.0,0.0,0.0,0.0,0.0,0.0,0.0,0.0,0.0,0.0,0.0,0.0,0.0,0.0,0.0,0.0,0.0,0.0,0.0,0.0,0.0,0.0,0.0,0.0,-0.3546,-0.1974,-0.027,0.1642,0.1902,0.2613,0.3869,0.4334,0.2784,0.0,0.0,0.0,0.0,0.0,0.0,0.0,0.0,0.0,0.0,0.0,0.0,0.0,0.0,0.0,0.0,0.0,0.0,0.0,0.0,0.0,0.0,0.0,0.0,0.0,0.0,0.0,0.0,0.0,0.0,0.0,0.0,0.0,0.0,0.0,0.0,0.0,0.0,0.0,0.0,-0.1308,-0.0689,-0.0313,0.0,0.0,0.0,0.0,0.0,0.0,0.1801,0.2677,0.0,0.0,0.0,0.0,0.0,0.0,0.0,0.0,0.0,0.0,0.0,0.0,0.0,0.0,0.0,0.0,0.0,0.0,0.0,0.0,0.0,0.0,0.0,0.0,0.0,0.0,0.0,0.0,0.0,0.0,0.0,0.0,0.0,0.0,0.0,0.0,0.0,0.0,0.0,0.0,0.0,0.0,0.0,0.0,0.0,0.0,0.0,0.0,0.0,0.0,0.0,0.0,0.0,0.0,0.0,-0.1833,-0.0622,0.078,0.2429,0.2374,0.2763,0.3626,0.3071,0.1049,0.0,0.0,0.0,0.0,0.0,0.0,0.0,0.0,0.0,0.0,0.0,0.0,0.0,0.0,0.0,0.0,0.0,0.0,0.0,0.0,0.0,0.0,0.0,0.0,0.0,0.0,0.0,0.0,0.0,0.0,0.0,0.0,0.0,0.0,0.0,0.0,0.0,0.0,0.0,0.0,0.0,0.0815,0.1,0.0743,0.0,0.0,0.0,0.0,0.0379,0.175,0.0,0.0,0.0,0.0,0.0,0.0,0.0,0.0,0.0,0.0,0.0,0.0,0.0,0.0,0.0,0.0,0.0,0.0,0.0,0.0,0.0,0.0,0.0,0.0,0.0,0.0,0.0,0.0,0.0,0.0,0.0,0.0,0.0,0.0,0.0,0.0,0.0,0.0,0.0,0.0,0.0,0.0,0.0,0.0,0.0,0.0,0.0,0.0,0.0,0.0,0.0,0.0,0.0,0.0,0.0,0.0,-0.1939,0.0572,0.1876,0.1962,0.2874,0.3228,0.2878,0.3078,0.141,0.0,0.0,0.0,0.0,0.0,0.0,0.0,0.0,0.0,0.0,0.0,0.0,0.0,0.0,0.0,0.0,0.0,0.0,0.0,0.0,0.0,0.0,0.0,0.0,0.0,0.0,0.0,0.0,0.0,0.0,0.0,0.0,0.0,0.0,0.0,0.0,0.0,0.0,0.0,0.0,0.0,0.2491,0.2235,0.2323,0.2204,0.0,0.0,0.1495,0.1441,0.1636,0.0,0.0,0.0,0.0,0.0,0.0,0.0,0.0,0.0,0.0,0.0,0.0,0.0,0.0,0.0,0.0,0.0,0.0,0.0,0.0,0.0,0.0,0.0,0.0,0.0,0.0,0.0,0.0,0.0,0.0,0.0,0.0,0.0,0.0,0.0,0.0,0.0,0.0,0.0,0.0,0.0,0.0,0.0,0.0,0.0,0.0,0.0,0.0,0.0,0.0,0.0,0.0,0.0,0.0,0.0,-0.2136,-0.1428,0.0855,0.2212,0.2425,0.2853,0.2846,0.2314,0.1725,-0.0032,0.0,0.0,0.0,0.0,0.0,0.0,0.0,0.0,0.0,0.0,0.0,0.0,0.0,0.0,0.0,0.0,0.0,0.0,0.0,0.0,0.0,0.0,0.0,0.0,0.0,0.0,0.0,0.0,0.0,0.0,0.0,0.0,0.0,0.0,0.0,0.0,0.0,0.0,0.0,0.0,0.0,0.0,0.3751,0.338,0.0,0.0,0.0,0.2471,0.2251,0.0,0.0,0.0,0.0,0.0,0.0,0.0,0.0,0.0,0.0,0.0,0.0,0.0,0.0,0.0,0.0,0.0,0.0,0.0,0.0,0.0,0.0,0.0,0.0,0.0,0.0,0.0,0.0,0.0,0.0,0.0,0.0,0.0,0.0,0.0,0.0,0.0,0.0,0.0,0.0,0.0,0.0,0.0,0.0,0.0,0.0,0.0,0.0,0.0,0.0,0.0,0.0,0.0,0.0,0.0,0.0,0.0,-0.086,0.1169,0.2414,0.2828,0.2656,0.2377,0.1947,0.0779,0.0,0.0,0.0,0.0,0.0,0.0,0.0,0.0,0.0,0.0,0.0,0.0,0.0,0.0,0.0,0.0,0.0,0.0,0.0,0.0,0.0,0.0,0.0,0.0,0.0,0.0,0.0,-0.4558,0.0,0.0,0.0,0.0,0.0,0.0,0.0,0.0,0.0,0.0,0.0,0.0,0.0,0.0,0.4148,0.5169,0.469,0.4033,0.0,0.0,0.3541,0.3493,0.4257,0.4427,0.0,0.0,0.0,0.0,0.0,0.0,0.0,0.0,0.0,0.0,0.0,0.0,0.0,0.0,0.0,0.0,0.0,0.0,0.0,0.0,0.0,0.0,0.0,0.0,0.0,0.0,0.0,0.0,0.0,0.0,0.0,0.0,0.0,0.0,0.0,0.0,0.0,0.0,0.0,0.0,0.0,0.0,0.0,0.0,0.0,0.0,0.0,0.0,0.0,0.0,0.0,0.0,0.0,0.0,-0.1514,-0.0247,0.1779,0.2789,0.2727,0.2385,0.2116,0.1811,0.0993,-0.0266,0.0,0.0,0.0,0.0,0.0,0.0,0.0,0.0,0.0,0.0,0.0,0.0,0.0,0.0,0.0,0.0,0.0,0.0,0.0,0.0,0.0,0.0,0.0,0.0,0.0,0.0,0.0,0.0,0.0,0.0,0.0,0.0,0.0,0.0,0.0,0.0,0.0,0.0,0.0,0.0,0.0,0.5462,0.6378,0.6637,0.6361,0.0,0.4697,0.463,0.555,0.6154,0.6225,0.5356,0.0,0.0,0.0,0.0,0.0,0.0,0.0,0.0,0.0,0.0,0.0,0.0,0.0,0.0,0.0,0.0,0.0,0.0,0.0,0.0,0.0,0.0,0.0,0.0,0.0,0.0,0.0,0.0,0.0,0.0,0.0,0.0,0.0,0.0,0.0,0.0,0.0,0.0,0.0,0.0,0.0,0.0,0.0,0.0,0.0,0.0,0.0,0.0,0.0,0.0,0.0,0.0,0.0,-0.1588,-0.0818,0.0972,0.2035,0.2274,0.1895,0.1471,0.1141,0.0547,-0.0694,0.0,0.0,0.0,0.0,0.0,0.0,0.0,0.0,0.0,0.0,0.0,0.0,0.0,0.0,0.0,0.0,0.0,0.0,0.0,0.0,0.0,0.0,0.0,0.0,0.0,0.0,0.0,0.0,-0.1835,-0.0984,-0.0441,0.0,0.0,0.0,0.0,0.0,0.0,0.0,0.0,0.0,0.0,0.4969,0.7111,0.7365,0.0,0.0,0.6264,0.6211,0.7657,0.7903,0.7718,0.7151,0.6155,0.0,0.0,0.0,0.0,0.0,0.0,0.0,0.0,0.0,0.0,0.0,0.0,0.0,0.0,0.0,0.0,0.0,0.0,0.0,0.0,0.0,0.0,0.0,0.0,0.0,0.0,0.0,0.0,0.0,0.0,0.0,0.0,0.0,0.0,0.0,0.0,0.0,0.0,0.0,0.0,0.0,0.0,0.0,0.0,0.0,0.0,0.0,0.0,0.0,0.0,0.0,0.0,-0.1899,-0.1545,0.0344,0.1459,0.18,0.137,0.0989,0.0706,0.0228,-0.0834,0.0,0.0,0.0,0.0,0.0,0.0,0.0,0.0,0.0,0.0,0.0,0.0,0.0,0.0,0.0,0.0,0.0,0.0,0.0,0.0,0.0,0.0,0.0,0.0,0.0,0.0,0.0,0.0,-0.0828,0.022,0.0837,0.0,0.0,0.0,0.0,0.0,0.0,0.0,0.0,0.0,0.0,0.5286,0.7564,0.7915,0.8037,0.8153,0.7854,0.7997,0.9091,0.924,0.9104,0.8622,0.0,0.0,0.0,0.0,0.0,0.0,0.0,0.0,0.0,0.0,0.0,0.0,0.0,0.0,0.0,0.0,0.0,0.0,0.0,0.0,0.0,0.0,0.0,0.0,0.0,0.0,0.0,-1.5759,0.0,0.0,-1.5884,0.0,0.0,0.0,0.0,0.0,0.0,0.0,0.0,0.0,0.0,0.0,0.0,0.0,0.0,0.0,0.0,0.0,0.0,0.0,0.0,0.0,0.0,-0.2592,-0.2242,0.0081,0.1248,0.1213,0.0895,0.0709,0.0673,0.0181,-0.0479,-0.1331,0.0,0.0,0.0,0.0,0.0,0.0,0.0,0.0,0.0,0.0,0.0,0.0,0.0,0.0,0.0,0.0,0.0,0.0,0.0,0.0,0.0,0.0,0.0,0.0,0.0,0.0,-0.2241,0.0038,0.1531,0.0,0.0,0.0,0.0,0.0,0.0,0.0,0.0,0.0,0.5609,0.6262,0.6879,0.7791,0.8378,0.8685,0.85,0.9375,0.9995,0.9666,1.0049,1.0261,0.0,0.0,0.0,0.0,0.0,0.0,0.0,0.0,0.0,0.0,0.0,0.0,0.0,0.0,0.0,0.0,0.0,0.0,0.0,0.0,0.0,0.0,0.0,0.0,0.0,0.0,0.0,-1.5993,-1.7047,0.0,0.0,0.0,0.0,0.0,0.0,0.0,0.0,0.0,0.0,0.0,-0.9306,-0.8776,0.0,0.0,0.0,0.0,0.0,0.0,0.0,0.0,0.0,0.0,0.0,0.0,-0.3049,-0.159,-0.0248,0.0438,0.0409,0.0294,0.0244,0.0248,0.0066,-0.042,-0.127,0.0,0.0,0.0,0.0,0.0,0.0,0.0,0.0,0.0,0.0,0.0,0.0,0.0,0.0,0.0,0.0,0.0,0.0,0.0,0.0,0.0,0.0,0.0,0.0,0.0,-0.2637,0.0,0.0,0.0,0.0,0.0,0.0,0.0,0.0,0.0,0.0,0.0,0.4161,0.6147,0.636,0.691,0.8534,0.9109,0.9546,0.0,0.0,0.0,0.0,0.0,0.0,0.0,0.0,0.0,0.0,0.0,0.0,0.0,0.0,0.1412,0.0225,0.0,0.0165,0.0611,0.0,0.0,0.0,0.0,0.0,0.0,0.0,0.0,0.0,0.0,0.0,0.0,0.0,0.0,-1.5587,0.0,-1.3386,0.0,0.0,0.0,0.0,0.0,0.0,0.0,0.0,-0.734,-0.6226,-0.5834,-0.532,-0.525,0.0,-0.6535,-0.7765,0.0,0.0,0.0,0.0,0.0,0.0,0.0,0.0,-0.3788,-0.1687,-0.0813,-0.0288,0.0,0.0,0.0,0.0,-0.0171,-0.0504,-0.1072,-0.2424,-0.2719,0.0,0.0,0.0,0.0,0.0,0.0,0.0,0.0,0.0,0.0,0.0,0.0,0.0,0.0,0.0,0.0,0.0,0.0,0.0,0.0,0.0,0.0,0.0,-0.1672,0.0,0.0,0.0,0.0,0.0,0.0,0.0,0.0,0.0,0.2982,0.3878,0.5139,0.6833,0.7261,0.7853,0.92,0.0,0.0,0.0,0.0,0.0,0.0,0.0,1.03,1.0464,0.9512,0.8377,0.728,0.5767,0.4725,0.4723,0.0,0.0,0.1161,0.0748,0.127,0.2807,0.2949,0.2909,0.3359,0.4059,0.4693,0.0,0.0,0.0,0.0,0.0,0.0,0.0,0.0,-1.4102,-1.323,0.0,-1.1906,0.0,0.0,0.0,0.0,-1.276,-1.0818,0.0,0.0,-0.3815,-0.268,-0.1978,-0.198,-0.2168,-0.2542,-0.3396,-0.4102,-0.4872,-0.8323,0.0,0.0,0.0,0.0,0.0,0.0,-0.4678,-0.2357,-0.1517,-0.0774,0.0,0.0,0.0,0.0,-0.0369,-0.0605,-0.0671,-0.1431,-0.1694,-0.1305,-0.1733,0.0,0.0,0.0,0.0,0.0,0.0,0.0,0.0,0.0,0.0,0.0,0.0,0.0,0.0,0.0,0.0,0.0,0.0,0.0,0.0,-0.1857,0.0,0.0,0.0,0.0,0.0,0.0,0.0,0.0,0.0,0.434,0.4553,0.5132,0.6161,0.7735,0.0,0.0,0.0,0.0,1.1241,1.0275,1.0127,1.0227,1.0564,1.0604,1.0517,1.0174,0.0,0.0,0.7188,0.6646,0.6843,0.8234,0.7247,0.5603,0.2948,0.245,0.2901,0.4703,0.6207,0.6857,0.5623,0.5843,0.616,0.9171,0.0,0.0,0.0,0.0,-1.5878,-1.5514,-1.4262,-1.2407,-1.093,-0.9636,-0.7562,0.0,0.0,0.0,0.0,0.0,0.0,-0.4779,-0.3108,-0.1499,-0.0604,-0.031,-0.04,-0.0439,-0.0463,-0.0805,-0.1171,-0.1595,-0.3044,-0.5535,-0.8913,0.0,0.0,0.0,0.0,-0.3728,-0.2855,-0.1222,-0.0219,0.0,0.0,0.015,0.0505,0.067,0.0602,0.0301,0.0067,-0.0166,-0.0366,-0.0897,0.0,0.0,0.0,0.0,0.0,0.0,0.0,0.0,0.0,0.0,0.0,0.0,0.0,0.0,0.0,0.0,0.0,0.0,0.0,-0.1065,-0.0547,0.023,0.0,0.0,0.0,0.0,0.0,0.0,0.0,0.0,0.0,0.7052,0.717,0.772,0.0,0.0,0.9897,0.9953,1.0506,1.0806,1.0519,1.0434,0.0,1.0611,1.0618,1.0598,1.0441,0.9731,0.9301,0.947,0.8413,0.7795,0.8617,0.8095,0.738,0.6926,0.5363,0.4998,0.6922,0.7695,0.7701,0.7164,0.7298,0.7807,1.6187,1.1429,0.2603,-0.455,-0.9965,-1.1631,-1.1764,-1.0747,-0.8572,-0.673,-0.5166,-0.3425,-0.4162,-0.6711,-0.6882,0.0,0.0,0.0,-0.2115,-0.0799,0.0701,0.1401,0.1432,0.1592,0.1658,0.1632,0.1548,0.117,0.0568,0.0279,-0.1655,-0.5133,0.0,0.0,-0.5887,-0.4479,-0.3245,-0.2209,-0.1087,-0.022,0.0336,0.0552,0.0779,0.1124,0.1426,0.1481,0.1307,0.1378,0.126,0.0828,0.0444,-0.0035,0.0,0.0,0.0,0.0,0.0,0.0,0.0,0.0,0.0,0.0,0.0,-0.3031,-0.3023,0.0,0.0,0.0,-0.1022,-0.0179,0.1179,0.1254,0.0,0.0,0.0,0.0,0.0,0.0,0.0,0.5054,0.659,0.8137,0.9361,0.9362,0.9532,1.0254,1.0734,1.1085,1.1209,0.0,1.1829,1.1142,1.1185,1.1066,1.0688,1.0618,1.0618,1.0618,1.0168,0.9996,1.043,0.9756,0.9349,0.9581,0.9509,0.9429,0.9796,0.8468,0.7486,0.8449,0.885,0.896,0.8579,0.884,0.9622,2.1842,2.1681,1.0865,0.3924,-0.0185,-0.4093,-0.5781,-0.5632,-0.344,-0.1475,0.008,0.0322,-0.0289,-0.1584,-0.3554,0.0,-0.2623,-0.1358,0.0047,0.1572,0.2896,0.3426,0.3175,0.3861,0.3964,0.3632,0.3683,0.3099,0.1976,0.2071,0.1168,-0.0842,-0.2976,-0.3835,-0.3406,-0.3681,-0.2874,-0.0855,-0.0941,-0.0394,0.0962,0.1421,0.1727,0.1932,0.2056,0.2239,0.2412,0.2655,0.2613,0.225,0.2114,0.1724,0.1021,0.0,0.0,0.0,0.0,0.0,0.0,0.0,0.0,0.0,0.0,0.0,0.0,0.0,0.0,-0.0668,0.0535,0.0,0.3295,0.3363,0.0,0.0,0.0,0.4961,0.6002,0.6267,0.6705,0.779,0.0,0.0,1.1487,1.1569,1.1428,1.1546,1.2153,1.2696,1.2899,1.3476,1.3545,1.1834,1.1988,1.1755,1.0814,1.0651,1.0685,1.0621,1.0678,1.0661,1.0681,1.079,1.1009,1.0963,1.1243,1.1341,1.1348,1.0996,1.0695,0.9307,1.0064,1.0607,0.9988,1.058,1.1612,2.5012,2.4043,1.8453,1.0991,0.264,-0.0521,-0.2047,-0.2205,-0.0204,0.1494,0.276,0.2491,0.1684,0.0397,0.0,0.0,0.0338,0.2104,0.314,0.3595,0.4881,0.5489,0.5442,0.563,0.5283,0.4646,0.5218,0.4724,0.3255,0.3399,0.2926,0.1754,0.0311,-0.1051,-0.2279,-0.1896,-0.1186,-0.0234,0.0182,0.0784,0.1572,0.205,0.2506,0.2921,0.332,0.3762,0.422,0.432,0.4296,0.4182,0.3025,0.2135,0.1756,-0.0282,0.0,0.0,0.0,0.0,0.0,0.0,0.0,0.0,0.0,-0.181,-0.0893,0.0,-0.0721,0.0,0.3413,0.4407,0.4791,0.482,0.0,0.0,0.5926,0.6129,0.7037,0.8281,0.8694,0.767,0.9958,1.1878,1.2595,1.2635,1.2816,1.3399,1.3169,1.2728,1.2197,1.2757,1.2696,1.1421,1.1685,1.1824,1.0835,1.0755,1.0882,1.0895,1.1069,1.1216,1.1216,1.1269,1.1323,1.1323,1.1369,1.1348,1.1211,1.1273,1.1328,1.1141,1.2016,1.2439,1.1042,1.2204,1.3597,2.5082,2.3442,2.0094,1.4645,0.8011,0.4922,0.3035,0.2244,0.3311,0.4317,0.521,0.471,0.3733,0.253,0.2929,0.2886,0.2747,0.4403,0.5153,0.5262,0.6364,0.6823,0.6718,0.702,0.6832,0.6258,0.6731,0.6198,0.4738,0.4732,0.4106,0.2794,0.207,0.1069,-0.015,-0.0095,0.0328,0.0971,0.1545,0.1973,0.2267,0.2917,0.341,0.3798,0.4346,0.4844,0.522,0.5126,0.4991,0.4759,0.3399,0.2332,0.1694,-0.0083,-0.158,0.0,0.0,0.0,0.0,0.0,0.0,0.0,0.0,0.0,0.0,0.0,0.0842,0.5225,0.5668,0.611,0.7007,0.7058,0.7475,0.8531,0.8447,0.8375,0.8632,0.9801,1.0411,1.0032,1.1608,1.3109,1.3916,1.3415,1.3425,1.4569,1.3734,1.313,1.3408,1.3837,1.3743,1.2899,1.2634,1.2205,1.11,1.0877,1.0895,1.1129,1.1209,1.1276,1.1403,1.1536,1.1623,1.163,1.1724,1.179,1.166,1.2115,1.2473,1.2883,1.3942,1.4122,1.2458,1.332,1.4555,2.3962,2.1883,1.9004,1.645,1.4027,1.0687,0.8299,0.6704,0.6758,0.6884,0.7152,0.6738,0.5839,0.4519,0.5076,0.4989,0.4461,0.5794,0.6463,0.6556,0.7418,0.7729,0.7544,0.8184,0.8227,0.7839,0.7943,0.7345,0.6062,0.5876,0.4915,0.3236,0.2887,0.2574,0.2269,0.166,0.1656,0.2311,0.2835,0.3125,0.3242,0.3936,0.4427,0.4767,0.5311,0.5686,0.5861,0.5665,0.5269,0.4793,0.3742,0.2654,0.1637,0.0547,-0.043,0.0,-0.1482,0.0,0.0,0.0,0.0,0.0,0.0,0.0,0.0,0.0845,0.3182,0.843,0.7508,0.7359,0.9268,0.9321,0.9662,1.0668,1.0778,1.0597,1.0246,1.085,1.1798,1.2857,1.3022,1.3545,1.4685,1.3813,1.3614,1.4569,1.3855,1.3433,1.4688,1.4874,1.4812,1.504,1.3708,1.212,1.1482,1.0992,1.0822,1.1269,1.1243,1.1156,1.1456,1.183,1.2084,1.2209,1.2532,1.2649,1.2401,1.3107,1.4047,1.4629,1.5696,1.5748,1.4125,1.4429,1.5412,2.4813,2.3069,1.9855,1.7861,1.6662,1.3578,1.0953,0.8848,0.9415,0.8833,0.7496,0.841,0.7769,0.5998,0.5628,0.5379,0.5276,0.6177,0.6732,0.7012,0.8075,0.8684,0.8834,0.8778,0.8307,0.7635,0.828,0.7785,0.6164,0.6248,0.5731,0.4646,0.3482,0.3172,0.3712,0.0,0.0,0.0,0.3598,0.4321,0.4977,0.486,0.5366,0.6518,0.6261,0.0,0.6726,0.668,0.6441,0.5901,0.4913,0.0,0.0,0.0,0.0,0.0,0.0,0.0,0.0,0.0,0.0,0.0,0.3131,0.3422,0.35,0.5031,0.6965,0.9022,0.8908,0.887,0.9603,0.9596,0.9791,1.0181,1.0265,1.0317,1.0474,1.122,1.2039,1.2873,1.3022,1.3078,1.3338,1.3139,1.313,1.3485,1.3191,1.313,1.3433,1.3554,1.3319,1.2851,1.1979,1.1277,1.1348,1.1132,1.0975,1.1323,1.1396,1.145,1.176,1.2431,1.3082,1.3272,1.4053,1.407,1.2692,1.3686,1.5355,1.6979,1.693,1.6165,1.477,1.5969,1.7269,2.3057,2.0667,1.8684,1.7093,0.0,1.4502,1.2932,1.1231,1.1274,1.0515,0.9213,0.9881,0.9128,0.7516,0.74,0.712,0.6844,0.7453,0.7794,0.7966,0.8551,0.8884,0.8971,0.8884,0.8567,0.8165,0.8574,0.7955,0.6457,0.6421,0.5807,0.4633,0.3824,0.3717,0.419,0.3993,0.3883,0.3816,0.4446,0.4986,0.5379,0.5783,0.6173,0.6564,0.652,0.0,0.0,0.0,0.0,0.0,0.0,0.0,0.0,0.2553,0.0,0.2684,0.1752,0.1335,0.1743,0.2413,0.3123,0.3821,0.5358,0.6149,0.5831,0.7018,0.828,0.9272,0.9399,0.9744,1.0427,1.0521,1.0594,1.0916,1.0938,1.0856,1.0746,1.134,1.1796,1.1864,1.252,1.2716,1.1913,1.2196,1.2565,1.2879,1.2274,1.2112,1.2838,1.2989,1.2867,1.2585,1.194,1.1297,1.1057,1.0887,1.0942,1.1289,1.1309,1.1343,1.1603,1.2193,1.272,1.3171,1.3932,1.419,1.4071,1.4952,1.6342,1.759,1.7643,1.7161,1.646,1.7222,1.7872,2.1034,1.8329,1.7248,1.5988,1.4743,1.4848,1.4344,1.3451,1.2556,0.0,0.0,1.0967,1.0128,0.8759,0.8946,0.8707,0.8146,0.8473,0.8671,0.8725,0.8884,0.8938,0.8884,0.8945,0.8905,0.8811,0.8751,0.8039,0.6794,0.642,0.5609,0.453,0.4185,0.4073,0.4204,0.4514,0.4589,0.4522,0.4989,0.5289,0.5431,0.63,0.658,0.6111,0.6444,0.6303,0.5573,0.5254,0.4982,0.4738,0.3743,0.3315,0.3624,0.3224,0.3288,0.3932,0.3105,0.2631,0.2819,0.3887,0.4744,0.5062,0.7128,0.8207,0.7852,0.8213,0.8777,0.9462,0.9677,1.0162,1.1092,1.1188,1.1277,1.1574,1.1606,1.1305,1.0737,1.1199,1.1304,1.0885,1.1781,1.2074,1.0875,1.1174,1.1841,1.2212,1.1483,1.1017,1.2196,1.2452,1.2466,1.2522,1.1981,1.1475,1.086,1.0604,1.0782,1.1223,1.1096,1.1029,1.1296,1.1688,1.2255,1.3112,1.3677,1.4517,1.5521,1.6305,1.7051,1.7872,1.8008,1.8008,1.8008,1.8008,1.8008,2.0799,2.0145,1.7258,1.6461,1.6994,1.5847,1.5225,1.4907,1.3278,1.193,1.0922,1.1143,1.0437,0.9075,0.8577,0.8153,0.7794,0.8141,0.8287,0.8354,0.9155,0.9426,0.9143,0.9439,0.9292,0.8798,0.8446,0.805,0.7467,0.6269,0.55,0.5213,0.4545,0.4177,0.4207,0.4412,0.4539,0.4522,0.4814,0.5244,0.5764,0.5648,0.5855,0.6498,0.6127,0.5901,0.578,0.5663,0.5424,0.4918,0.4898,0.4618,0.392,0.3929,0.4033,0.4153,0.4007,0.427,0.4942,0.5233,0.6018,0.7511,0.8534,0.9157,0.9361,0.9413,0.9609,0.996,1.0027,1.0241,1.0628,1.0725,1.0739,1.0787,1.0787,1.073,1.0624,1.0701,1.0758,1.0654,1.073,1.0982,1.069,1.0717,1.0863,1.0926,1.0807,1.0758,1.0947,1.094,1.115,1.1437,1.1185,1.0766,1.0607,1.058,1.0722,1.0995,1.0822,1.0742,1.1002,1.1654,1.2617,1.4066,1.4858,1.5999,1.7167,1.7658,1.7794,1.8008,1.8008,1.8008,1.8008,1.8027,1.8027,1.9581,1.8533,1.7306,1.6652,1.6358,1.569,1.5177,1.465,1.3208,1.2323,1.1815,1.1314,1.0516,0.9479,0.897,0.9017,0.9404,0.8955,0.9088,0.9679,0.9728,0.9613,0.9506,0.9619,0.9546,0.923,0.8571,0.7935,0.7318,0.6087,0.5328,0.4941,0.4555,0.4406,0.4487,0.4551,0.4642,0.4706,0.5037,0.519,0.5139,0.569,0.5991,0.5982,0.5742,0.5397,0.495,0.5035,0.4944,0.4554,0.474,0.4681,0.426,0.4312,0.4347,0.4358,0.4365,0.459,0.502,0.5806,0.7074,0.8814,0.9308,0.9679,1.0127,1.0013,0.9973,1.0114,1.0254,1.0414,1.0604,1.0618,1.0618,1.0618,1.0618,1.0618,1.0618,1.0618,1.0618,1.0618,1.0618,1.0618,1.0618,1.0618,1.0618,1.0618,1.0618,1.0618,1.0618,1.0618,1.0694,1.0925,1.0894,1.0755,1.0619,1.0584,1.0692,1.0806,1.0719,1.0621,1.0755,1.1309,1.2188,1.3494,1.4635,1.5851,1.7234,1.7811,1.7939,1.8008,1.8008,1.8008,1.8018,1.8174,1.8262,1.8246,1.7053,1.6786,1.6187,1.541,1.5235,1.4756,1.4109,1.2764,1.2233,1.2076,1.1123,1.0236,0.9566,0.9303,0.9611,1.0261,0.9584,0.9681,1.0399,0.9816,0.9564,0.9648,0.944,0.9355,0.9247,0.8287,0.7421,0.6717,0.5724,0.5003,0.4515,0.4463,0.4465,0.44,0.4407,0.441,0.4458,0.4675,0.4652,0.4532,0.5592,0.5823,0.5324,0.5265,0.4942,0.4307,0.4402,0.4426,0.4308,0.4453,0.4524,0.4505,0.4562,0.4565,0.4565,0.4565,0.473,0.5071,0.6409,0.7885,0.933,0.9662,1.0,1.0524,1.0354,1.0214,1.0247,1.0421,1.0618,1.0618,1.0618,1.0618,1.0618,1.0618,1.0618,1.0618,1.0618,1.0618,1.0618,1.0618,1.0618,1.0618,1.0618,1.0618,1.0618,1.0618,1.0618,1.0618,1.0618,1.0618,1.0665,1.0819,1.0788,1.0658,1.0561,1.0624,1.0618,1.0624,1.0568,1.0678,1.0768,1.1432,1.2641,1.3639,1.4941,1.6477,1.7264,1.7512,1.7482,1.7696,1.8047,1.8184,1.7985,1.8276,1.7209,1.7115,1.511,1.4525,1.5274,1.4628,1.4273,1.3868,1.1978,1.1066,1.0974,1.0186,0.9595,0.9269,0.9207,0.9192,0.9112,0.9138,0.9321,0.9359,0.9038,0.9191,0.9532,0.864,0.8204,0.8166,0.7027,0.6191,0.561,0.4908,0.4515,0.4519,0.4463,0.4135,0.353,0.3418,0.3365,0.32,0.2736,0.3174,0.4401,0.4625,0.4625,0.4574,0.4625,0.4567,0.4433,0.4512,0.4521,0.4636,0.4657,0.4611,0.454,0.475,0.4874,0.4867,0.4874,0.5125,0.5908,0.7382,0.8368,0.8853,0.9618,1.02,1.0584,1.0528,1.0577,1.0514,1.0598,1.0618,1.0618,1.0618,1.0555,1.0491,1.0561,1.0618,1.0561,1.0618,1.0618,1.0618,1.0581,1.0624,1.0588,1.0595,1.0638,1.0618,1.0618,1.0618,1.0618,1.0618,1.0618,1.0618,1.0665,1.0665,1.0618,1.0618,1.0618,1.0618,1.0618,1.0618,1.0645,1.0665,1.1016,1.2157,1.2802,1.388,1.5434,1.6464,1.6573,1.66,1.707,1.7968,1.8259,1.7661,1.7469,1.6741,1.6856,1.5756,1.532,1.5158,1.4007,1.3174,1.2607,1.1476,1.0622,1.0143,0.9448,0.911,0.8937,0.8964,0.9241,0.9753,0.9398,0.9362,0.959,0.9065,0.8763,0.8646,0.8153,0.7649,0.72,0.6028,0.5122,0.4455,0.3593,0.3121,0.3121,0.3121,0.2954,0.2674,0.2621,0.2454,0.2176,0.2621,0.2559,0.2052,0.3113,0.4018,0.4415,0.4467,0.4463,0.4525,0.4601,0.4626,0.4691,0.4772,0.4793,0.4725,0.4857,0.4982,0.5175,0.5064,0.5312,0.594,0.7174,0.8138,0.8728,0.9608,1.0241,1.0591,1.0618,1.0618,1.0618,1.0618,1.0618,1.0618,1.0618,1.0428,1.0047,1.0301,1.0371,0.9874,1.0308,1.0618,1.0638,1.0708,1.0815,1.0815,1.0815,1.0742,1.0678,1.0555,1.0561,1.0555,1.0618,1.0618,1.0618,1.0618,1.0618,1.0618,1.0618,1.0618,1.0618,1.0618,1.0618,1.0618,1.0618,1.0918,1.1855,1.2288,1.308,1.4555,1.5197,1.5489,1.5627,1.5781,1.6483,1.6866,1.6628,1.6998,1.6187,1.6151,1.5968,1.5409,1.4554,1.3218,1.2273,1.1631,1.0923,1.0072,0.9277,0.8747,0.8368,0.8262,0.8374,0.8965,0.9559,0.888,0.8776,0.9106,0.8436,0.7892,0.7565,0.6935,0.6414,0.5726,0.4706,0.3897,0.333,0.2649,0.2176,0.2176,0.2176,0.212,0.1952,0.2065,0.1962,0.1582,0.2542,0.2322,0.1369,0.2571,0.3809,0.4376,0.4281,0.4297,0.4528,0.4436,0.4536,0.4813,0.4918,0.4996,0.504,0.504,0.5168,0.5369,0.5265,0.5336,0.5844,0.676,0.7583,0.821,0.9222,0.9949,1.0186,1.0428,1.0618,1.0618,1.0618,1.0618,1.0618,1.0618,1.0231,0.9466,0.9932,0.9887,0.9145,0.9524,0.9829,0.9974,0.9933,1.028,1.0257,1.0153,1.003,0.9876,0.9976,1.0047,0.9907,0.9703,0.9633,0.9907,1.004,1.0364,1.0491,1.0618,1.0618,1.0618,1.0618,1.0618,1.0618,1.0618,1.0624,1.1347,1.1739,1.2269,1.3117,1.3674,1.4596,1.5023,1.5171,1.535,1.599,1.5823,1.6117,1.5409,1.5342,1.4628,1.3777,1.3,1.2135,1.1585,1.1063,1.0151,0.9182,0.8359,0.7901,0.7348,0.6799,0.7354,0.7741,0.7747,0.7155,0.7007,0.7333,0.6542,0.6323,0.6524,0.4971,0.4095,0.3904,0.313,0.2505,0.2254,0.2181,0.2176,0.2178,0.2127,0.1843,0.1457,0.1965,0.1931,0.1576,0.2282,0.2728,0.3043,0.3479,0.4033,0.4416,0.3795,0.3856,0.452,0.404,0.4092,0.5038,0.5114,0.5186,0.5315,0.5394,0.5387,0.5394,0.5404,0.5408,0.5522,0.6363,0.6885,0.7084,0.8564,0.9378,0.9646,1.0238,1.0561,1.0561,1.0491,1.0498,1.0428,1.0364,1.004,0.9274,0.9279,0.8939,0.8125,0.8247,0.8179,0.84,0.8612,0.8775,0.8643,0.8422,0.855,0.8596,0.8728,0.8798,0.8382,0.7817,0.7658,0.8275,0.8941,0.9594,1.0364,1.0618,1.0618,1.0618,1.0618,1.0555,1.0618,1.0618,1.0688,1.0728,1.1033,1.1352,1.1682,1.247,1.3677,1.4269,1.4625,1.4944,1.4854,1.4626,1.4896,1.4296,1.3726,1.2403,1.1673,1.1238,0.999,0.9199,0.8938,0.8397,0.8126,0.7897,0.7302,0.6686,0.6131,0.5747,0.6131,0.6853,0.623,0.5823,0.5552,0.477,0.4276,0.4001,0.3333,0.2718,0.2167,0.1806,0.1323,0.0866,0.0792,0.1074,0.1438,0.1557,0.173,0.2025,0.2353,0.2393,0.2295,0.2963,0.322,0.307,0.3931,0.468,0.5011,0.4565,0.4471,0.478,0.4664,0.476,0.5068,0.522,0.5304,0.5422,0.5428,0.5428,0.5428,0.5428,0.5428,0.5557,0.6728,0.7502,0.7632,0.9128,1.004,1.0174,1.0434,1.0364,0.9913,0.9786,0.9588,0.9198,0.9396,0.9198,0.8032,0.8122,0.8143,0.7555,0.7659,0.8041,0.8181,0.8429,0.8603,0.8489,0.8613,0.8513,0.8369,0.8316,0.8199,0.794,0.6951,0.6469,0.7618,0.8226,0.8549,0.8801,0.997,1.0618,1.0618,1.0555,1.0561,1.0561,1.0491,1.0491,1.0491,1.0651,1.0927,1.1356,1.1826,1.288,1.3048,1.3472,1.378,1.3521,1.3618,1.3782,1.2652,1.1541,1.037,0.9894,0.9723,0.8436,0.7866,0.7827,0.7426,0.7255,0.7114,0.632,0.5584,0.4918,0.4039,0.4158,0.5093,0.4638,0.4278,0.3964,0.3399,0.2867,0.2296,0.2162,0.1652,0.1029,0.1118,0.0994,0.0891,0.0876,0.1104,0.1583,0.1719,0.2015,0.2481,0.2845,0.3085,0.3232,0.3861,0.4001,0.3715,0.4549,0.5189,0.5321,0.5192,0.5033,0.4931,0.4804,0.4945,0.5155,0.5308,0.5428,0.5428,0.5428,0.5428,0.5428,0.5428,0.5557,0.5881,0.692,0.7702,0.8027,0.8994,0.9773,0.9773,0.9773,0.946,0.9005,0.8877,0.8549,0.7962,0.8091,0.7962,0.6981,0.7242,0.7195,0.6448,0.6805,0.7135,0.7311,0.7603,0.7912,0.8013,0.7886,0.7757,0.7584,0.7398,0.7287,0.7116,0.6471,0.5789,0.7002,0.746,0.764,0.7871,0.8761,0.9753,0.9868,0.9983,1.011,1.0155,1.0142,1.02,1.0251,1.043,1.067,1.1002,1.1416,1.1663,1.1824,1.225,1.269,1.2735,1.2824,1.3101,1.042,0.9001,0.8719,0.8675,0.8551,0.7724,0.7672,0.7733,0.7229,0.6497,0.5881,0.4878,0.4045,0.3171,0.2728,0.2397,0.2575,0.2521,0.2497,0.2505,0.2413,0.201,0.1309,0.1285,0.0975,0.0357,0.097,0.1777,0.2458,0.2434,0.2462,0.2495,0.2613,0.2734,0.2589,0.3481,0.3882,0.4143,0.4683,0.5071,0.5335,0.5325,0.5387,0.5397,0.5394,0.5264,0.5142,0.4475,0.4602,0.5279,0.5355,0.5428,0.5428,0.5428,0.5428,0.5428,0.5428,0.5815,0.6461,0.6654,0.7177,0.7697,0.8091,0.828,0.8345,0.8285,0.8156,0.8027,0.7957,0.7632,0.6915,0.6806,0.6749,0.6662,0.6696,0.6382,0.5729,0.5452,0.5552,0.5994,0.6353,0.6314,0.63,0.6442,0.6378,0.6237,0.609,0.6066,0.6073,0.5818,0.5794,0.5987,0.6487,0.6873,0.7144,0.7536,0.8325,0.8986,0.9157,0.9285,0.9338,0.9302,0.9509,0.9699,1.0451,1.0744,1.0828,1.1223,1.153,1.171,1.1844,1.2031,1.2305,1.253,1.2667,0.9201,0.8592,0.7988,0.7693,0.7591,0.6828,0.6243,0.5785,0.5489,0.5223,0.4809,0.4061,0.3456,0.2961,0.2458,0.2259,0.2366,0.179,0.1494,0.1492,0.1071,0.0728,0.0488,0.0439,0.0563,0.0973,0.1735,0.2316,0.2625,0.2616,0.2773,0.3294,0.3523,0.3843,0.4179,0.4693,0.4925,0.5019,0.5157,0.5318,0.5425,0.5428,0.5428,0.5428,0.5428,0.5335,0.5294,0.5067,0.509,0.5428,0.5428,0.5428,0.5428,0.5428,0.5428,0.5428,0.5428,0.5491,0.5818,0.6396,0.678,0.7177,0.7632,0.7957,0.8027,0.7962,0.7697,0.7242,0.7111,0.6724,0.6028,0.5925,0.5977,0.592,0.5949,0.592,0.5717,0.5739,0.5854,0.5952,0.6139,0.6247,0.6254,0.6193,0.6156,0.6088,0.6036,0.5878,0.5874,0.5861,0.5887,0.5854,0.6086,0.622,0.646,0.6692,0.7181,0.7923,0.8261,0.8496,0.8503,0.8384,0.8596,0.9487,1.0246,1.0679,1.0764,1.1002,1.1279,1.1607,1.1721,1.1992,1.2265,1.2244,1.2176,0.8086,0.7396,0.687,0.6812,0.6889,0.5973,0.5323,0.4965,0.4782,0.4606,0.4369,0.3735,0.3125,0.2681,0.2345,0.2331,0.2457,0.1877,0.1636,0.1457,0.0422,0.0185,0.0495,0.0889,0.1478,0.2223,0.2805,0.327,0.3699,0.3653,0.3817,0.4218,0.4408,0.4659,0.5088,0.5277,0.5428,0.5428,0.5425,0.5428,0.5428,0.5428,0.5428,0.5428,0.5428,0.5428,0.5428,0.5428,0.5428,0.5428,0.5428,0.5428,0.5428,0.5428,0.5428,0.5428,0.5425,0.5557,0.5881,0.6465,0.685,0.7177,0.7372,0.7502,0.7437,0.7312,0.6728,0.6334,0.6203,0.6036,0.5582,0.5521,0.563,0.5749,0.5758,0.5728,0.584,0.5885,0.6017,0.6054,0.6162,0.624,0.6261,0.6257,0.623,0.6179,0.617,0.6034,0.6091,0.6022,0.6002,0.5991,0.5985,0.6047,0.5954,0.606,0.6162,0.6734,0.729,0.7623,0.7785,0.7324,0.7311,0.9102,1.027,1.027,1.0337,1.0708,1.1082,1.1346,1.154,1.1518,1.1556,1.13,1.1286,0.6991,0.5546,0.5487,0.5959,0.6375,0.5376,0.5072,0.527,0.4908,0.4619,0.4399,0.3747,0.3074,0.246,0.248,0.2525,0.258,0.2613,0.266,0.2273,0.1246,0.075,0.138,0.2175,0.2998,0.3645,0.3967,0.4449,0.5061,0.5078,0.5284,0.5051,0.5147,0.5291,0.5213,0.5294,0.5428,0.5428,0.5428,0.5428,0.5428,0.5428,0.5428,0.5428,0.5428,0.5428,0.5428,0.5428,0.5428,0.5428,0.5428,0.5428,0.5428,0.5428,0.5428,0.5428,0.5428,0.5752,0.6396,0.6396,0.6789,0.7312,0.692,0.6654,0.6527,0.6075,0.5704,0.5593,0.5526,0.5514,0.5566,0.564,0.5762,0.5956,0.595,0.5847,0.5875,0.5952,0.6067,0.6084,0.6173,0.6261,0.6261,0.6261,0.62,0.6122,0.6156,0.6156,0.6146,0.6153,0.6277,0.6187,0.6078,0.6064,0.6037,0.6091,0.6201,0.6338,0.6787,0.6985,0.733,0.6929,0.7091,0.8846,0.9915,0.9852,1.0031,1.0451,1.0759,1.0926,1.0978,1.09,1.0748,1.0456,1.057,0.5478,0.5487,0.5483,0.5597,0.5786,0.5527,0.522,0.482,0.4741,0.4687,0.4471,0.3851,0.3473,0.3275,0.3341,0.3387,0.3459,0.3468,0.3566,0.3459,0.2554,0.2098,0.2489,0.3226,0.3782,0.4071,0.4543,0.4984,0.5342,0.5264,0.524,0.5304,0.5332,0.5345,0.5318,0.5404,0.5425,0.5428,0.5428,0.5428,0.5428,0.5428,0.5428,0.5428,0.5428,0.5428,0.5428,0.5428,0.5428,0.5428,0.5428,0.5428,0.5428,0.5428,0.5428,0.5428,0.5428,0.5495,0.5686,0.5749,0.5881,0.6013,0.6013,0.5752,0.5752,0.5557,0.5483,0.5494,0.5532,0.5589,0.5728,0.5844,0.6,0.6149,0.618,0.6167,0.6149,0.619,0.62,0.6207,0.6237,0.6254,0.6261,0.6257,0.624,0.6203,0.6263,0.6263,0.6246,0.6252,0.628,0.6297,0.6203,0.6203,0.627,0.6249,0.6242,0.6259,0.6388,0.6442,0.6881,0.7088,0.7851,0.9155,0.9456,0.9464,0.9834,1.0195,1.0372,1.0092,1.0177,0.9927,0.9836,0.9663,0.9825,0.5483,0.5605,0.5609,0.5655,0.5677,0.5502,0.51,0.4666,0.4718,0.4718,0.4531,0.4333,0.4128,0.4142,0.4225,0.4315,0.4379,0.4388,0.4426,0.4532,0.4074,0.3673,0.3542,0.4148,0.4619,0.4613,0.5006,0.5284,0.5338,0.5267,0.5287,0.5404,0.5428,0.5428,0.5422,0.5428,0.5428,0.5428,0.5428,0.5428,0.5428,0.5428,0.5428,0.5428,0.5428,0.5428,0.5428,0.5428,0.5428,0.5428,0.5428,0.5428,0.5428,0.5428,0.5428,0.5428,0.5428,0.5428,0.5428,0.5428,0.5428,0.5428,0.5428,0.5466,0.5511,0.546,0.5453,0.5654,0.5744,0.5823,0.5884,0.6034,0.6156,0.6234,0.6261,0.6261,0.6261,0.6251,0.6257,0.6261,0.6261,0.6261,0.6261,0.6261,0.6261,0.6254,0.6244,0.6325,0.6247,0.6261,0.6261,0.6261,0.6261,0.6244,0.6234,0.6297,0.629,0.6321,0.6251,0.6257,0.6567,0.7026,0.7512,0.8266,0.8772,0.9035,0.9033,0.8841,0.8374,0.8248,0.8627,0.9029,0.9,0.8737,0.8859,0.6091,0.5629,0.5629,0.5723,0.5723,0.52,0.4855,0.4704,0.483,0.4772,0.4613,0.4793,0.4783,0.4855,0.4813,0.4948,0.5061,0.5028,0.5178,0.5196,0.509,0.4821,0.4284,0.4888,0.5226,0.5289,0.5359,0.5418,0.5422,0.5352,0.5422,0.5428,0.5428,0.5428,0.5428,0.5428,0.5428,0.5428,0.5428,0.5428,0.5428,0.5428,0.5428,0.5428,0.5428,0.5428,0.5428,0.5428,0.5428,0.5428,0.5428,0.5442,0.5446,0.5456,0.5476,0.5433,0.5454,0.5514,0.549,0.5518,0.543,0.5443,0.5437,0.5457,0.5579,0.554,0.5527,0.5817,0.5971,0.5978,0.6037,0.6183,0.6234,0.6261,0.6261,0.6261,0.6261,0.6261,0.6261,0.6261,0.6261,0.6261,0.6261,0.6261,0.6261,0.6261,0.6261,0.6261,0.6261,0.6261,0.6261,0.6261,0.6261,0.6257,0.6257,0.6254,0.6251,0.6257,0.6257,0.6338,0.6416,0.6721,0.6795,0.7153,0.7647,0.7555,0.7163,0.6851,0.6703,0.6801,0.7415,0.8069,0.8422,0.7801,0.7643,0.4864,0.4786,0.4786,0.4804,0.4819,0.4865,0.4765,0.4548,0.4802,0.4857,0.4841,0.4858,0.4983,0.5026,0.5188,0.5206,0.5165,0.5243,0.5401,0.5415,0.5428,0.5292,0.509,0.5359,0.5359,0.5428,0.5428,0.5428,0.5428,0.5428,0.5428,0.5428,0.5428,0.5428,0.5428,0.5428,0.5428,0.5428,0.5428,0.5428,0.5428,0.5428,0.5428,0.5428,0.5428,0.5428,0.5428,0.5428,0.5428,0.5428,0.5446,0.544,0.5508,0.5535,0.5579,0.565,0.5684,0.5694,0.5701,0.5681,0.5701,0.5677,0.5671,0.5718,0.5742,0.5684,0.5755,0.5868,0.5983,0.6051,0.619,0.6237,0.6271,0.6278,0.6285,0.6278,0.6261,0.6261,0.6261,0.6261,0.6261,0.6261,0.6261,0.6261,0.6261,0.6261,0.6261,0.6261,0.6261,0.6261,0.6261,0.6261,0.6261,0.6261,0.6261,0.6261,0.6261,0.6261,0.6261,0.6261,0.6416,0.6416,0.6567,0.649,0.6563,0.6321,0.6307,0.6311,0.6451,0.6402,0.6355,0.701,0.7304,0.6764,0.6848,0.4956,0.4625,0.4568,0.4613,0.4684,0.4772,0.4718,0.4616,0.4731,0.4772,0.4755,0.4907,0.5009,0.5047,0.525,0.537,0.527,0.5315,0.5425,0.5428,0.5428,0.5428,0.5428,0.5428,0.5428,0.5428,0.5428,0.5428,0.5428,0.5428,0.5428,0.5428,0.5428,0.5428,0.5428,0.5428,0.5428,0.5428,0.5428,0.5428,0.5428,0.5428,0.5428,0.5428,0.5428,0.5428,0.5428,0.5504,0.5464,0.5484,0.5532,0.5566,0.5599,0.565,0.5728,0.5779,0.58,0.58,0.58,0.58,0.5793,0.5806,0.5803,0.5847,0.5884,0.5835,0.5905,0.6091,0.6152,0.62,0.6339,0.6438,0.6359,0.6376,0.6427,0.6434,0.6369,0.6305,0.6261,0.6261,0.6261,0.6261,0.6261,0.6261,0.6261,0.6261,0.6261,0.6261,0.6261,0.6261,0.6261,0.6261,0.6261,0.6261,0.6261,0.6261,0.6261,0.6261,0.6261,0.6261,0.6338,0.6338,0.6335,0.6338,0.6338,0.6338,0.6251,0.6257,0.6264,0.6274,0.6318,0.642,0.6552,0.6725,0.6892,0.5469,0.4657,0.4657,0.4731,0.4823,0.4735,0.4674,0.465,0.4711,0.4687,0.4599,0.4935,0.5053,0.5053,0.524,0.5418,0.5425,0.5355,0.5428,0.5428,0.5428,0.5428,0.5428,0.5428,0.5428,0.5428,0.5428,0.5428,0.5428,0.5428,0.5428,0.5428,0.5428,0.5428,0.5428,0.5428,0.5428,0.5428,0.5428,0.5428,0.5428,0.5428,0.5428,0.5428,0.5476,0.5483,0.545,0.5538,0.562,0.563,0.5759,0.5759,0.5728,0.5755,0.5857,0.5874,0.5908,0.5922,0.5928,0.5905,0.5898,0.5871,0.5881,0.5939,0.6034,0.5992,0.6046,0.6186,0.6251,0.6298,0.6447,0.6454,0.6471,0.6519,0.6627,0.6627,0.6525,0.6393,0.6363,0.6383,0.6362,0.6261,0.6261,0.6261,0.6261,0.6264,0.6268,0.6268,0.6274,0.6285,0.6379,0.6302,0.6308,0.6278,0.6271,0.6268,0.6268,0.6261,0.6261,0.6261,0.6261,0.6261,0.6261,0.6261,0.6261,0.6261,0.6261,0.6261,0.6268,0.6285,0.6325,0.6393,0.6556,0.6759,0.6881,0.5393,0.4556,0.4556,0.4521,0.4555,0.4646,0.4633,0.4615,0.4779,0.4792,0.4749,0.4932,0.5061,0.5098,0.527,0.5425,0.5428,0.5428,0.5428,0.5428,0.5428,0.5428,0.5428,0.5428,0.5428,0.5428,0.5428,0.5428,0.5428,0.5428,0.5428,0.5428,0.5428,0.5428,0.5428,0.5428,0.5428,0.5428,0.5428,0.5428,0.5428,0.5428,0.5442,0.5459,0.5477,0.5532,0.5579,0.5684,0.5766,0.5779,0.5911,0.5962,0.5956,0.5976,0.6044,0.6115,0.6135,0.6125,0.6129,0.6156,0.6176,0.6186,0.6156,0.6166,0.621,0.6224,0.6254,0.6278,0.6305,0.6335,0.6458,0.6519,0.6552,0.6627,0.6698,0.6709,0.6664,0.6637,0.6556,0.6544,0.6445,0.6261,0.6264,0.6281,0.6308,0.6332,0.6356,0.6356,0.6359,0.6455,0.6476,0.6465,0.6373,0.6325,0.6285,0.6278,0.6274,0.6261,0.6261,0.6261,0.6261,0.6261,0.6261,0.6261,0.6261,0.6261,0.6261,0.6261,0.6261,0.6271,0.6312,0.6352,0.6498,0.6647,0.6681,0.5461,0.4532,0.4604,0.4579,0.4609,0.4745,0.4769,0.4724,0.4853,0.4877,0.4857,0.5036,0.5075,0.5148,0.5291,0.5425,0.5428,0.5428,0.5428,0.5428,0.5428,0.5428,0.5428,0.5428,0.5428,0.5428,0.5428,0.5428,0.5428,0.5428,0.5428,0.5428,0.5428,0.5428,0.5428,0.5428,0.5428,0.5428,0.5428,0.5428,0.5428,0.5428,0.5459,0.5488,0.5552,0.562,0.5718,0.5844,0.5915,0.5949,0.6067,0.6132,0.6146,0.6152,0.6179,0.6247,0.6261,0.6261,0.6261,0.6261,0.6251,0.6254,0.6264,0.6302,0.6346,0.6373,0.6396,0.6461,0.6495,0.6549,0.6702,0.6695,0.6732,0.6773,0.6851,0.6861,0.6827,0.6786,0.6776,0.6706,0.6575,0.6383,0.6281,0.6308,0.6356,0.6396,0.6437,0.6451,0.6454,0.6478,0.6589,0.6541,0.6437,0.639,0.6349,0.6346,0.6428,0.6407,0.6291,0.6291,0.6288,0.6302,0.6278,0.6261,0.6261,0.6285,0.6261,0.6261,0.6261,0.6261,0.6285,0.6329,0.642,0.6502,0.6559,0.573,0.4565,0.4684,0.4735,0.4755,0.4863,0.4914,0.4925,0.4952,0.4945,0.4945,0.5087,0.5155,0.5179,0.5274,0.5428,0.5428,0.5428,0.5428,0.5428,0.5428,0.5428,0.5428,0.5428,0.5428,0.5428,0.5428,0.5428,0.5428,0.5428,0.5428,0.5428,0.5428,0.5428,0.5428,0.5428,0.5428,0.5428,0.5428,0.5428,0.5432,0.5466,0.5525,0.5596,0.5644,0.5745,0.585,0.5993,0.6067,0.6105,0.6179,0.6251,0.6257,0.6257,0.6274,0.6373,0.6355,0.6271,0.6302,0.6312,0.6325,0.6325,0.6342,0.6413,0.6474,0.6529,0.6478,0.6675,0.6692,0.6736,0.6848,0.6915,0.6915,0.6946,0.7027,0.7092,0.7,0.6973,0.686,0.68,0.6641,0.6485,0.6356,0.6363,0.6413,0.6464,0.6508,0.6583,0.659,0.6614,0.6617,0.6546,0.6498,0.6454,0.643,0.6437,0.6531,0.6541,0.6489,0.6376,0.6366,0.6359,0.6349,0.6363,0.6332,0.6349,0.6305,0.6264,0.6261,0.6261,0.6261,0.6291,0.6359,0.6441,0.6515,0.6472,0.4863,0.4884,0.4894,0.4897,0.4925,0.4928,0.4948,0.506,0.503,0.4972,0.5192,0.525,0.5206,0.5298,0.5425,0.5428,0.5428,0.5428,0.5428,0.5428,0.5428,0.5428,0.5428,0.5428,0.5428,0.5428,0.5428,0.5428,0.5428,0.5428,0.5428,0.5428,0.5428,0.5428,0.5428,0.5428,0.5432,0.5435,0.5439,0.5459,0.5491,0.5559,0.5667,0.5813,0.5966,0.6006,0.6129,0.6203,0.6217,0.624,0.6261,0.6261,0.6261,0.6335,0.6369,0.6356,0.6312,0.6337,0.6447,0.6451,0.6471,0.6542,0.6634,0.6671,0.6692,0.6709,0.7026,0.6888,0.6793,0.6922,0.6939,0.699,0.7044,0.7102,0.7132,0.7095,0.7051,0.694,0.686,0.6776,0.6563,0.639,0.6434,0.6478,0.6529,0.659,0.6675,0.6729,0.6753,0.6749,0.6685,0.663,0.6586,0.6559,0.6556,0.6563,0.6671,0.6616,0.6481,0.6488,0.6498,0.6532,0.6532,0.6488,0.6424,0.6386,0.6342,0.6288,0.6295,0.6417,0.639,0.6352,0.6448,0.6519,0.6241,0.4928,0.5006,0.504,0.505,0.5131,0.5169,0.5182,0.5233,0.523,0.5196,0.5291,0.5321,0.5281,0.5342,0.5425,0.5428,0.5428,0.5428,0.5428,0.5428,0.5428,0.5428,0.5428,0.5428,0.5439,0.5428,0.5428,0.5428,0.5432,0.5428,0.5432,0.5432,0.5428,0.5459,0.5435,0.5483,0.5464,0.5494,0.5559,0.5576,0.5634,0.5671,0.583,0.5966,0.6064,0.6152,0.621,0.6261,0.6261,0.6261,0.6261,0.6261,0.6278,0.6349,0.6488,0.6464,0.6461,0.6491,0.6597,0.66,0.6607,0.6675,0.6722,0.6726,0.6895,0.6936,0.7046,0.7039,0.6983,0.6934,0.7048,0.7078,0.7122,0.7139,0.7139,0.7139,0.7132,0.7001,0.6917,0.683,0.6729,0.6593,0.6654,0.6702,0.6725,0.6803,0.6898,0.6915,0.6898,0.6793,0.6749,0.6706,0.6746,0.6722,0.6625,0.6698,0.6705,0.6658,0.6624,0.6637,0.6658,0.6685,0.6675,0.6627,0.6559,0.6495,0.641,0.6349,0.6465,0.652,0.6507,0.6424,0.6519,0.6654,0.6053,0.5043,0.5145,0.5189,0.5196,0.5315,0.5422,0.5425,0.5418,0.5425,0.5428,0.5428,0.5428,0.5428,0.5425,0.5428,0.5428,0.5428,0.5428,0.5428,0.5432,0.5456,0.5406,0.5406,0.5386,0.5416,0.5376,0.5463,0.543,0.544,0.545,0.5423,0.5498,0.5491,0.5552,0.5573,0.5555,0.563,0.5644,0.5713,0.5727,0.5694,0.583,0.5966,0.6074,0.6142,0.6237,0.6261,0.6261,0.6261,0.6261,0.6261,0.6261,0.6397,0.6441,0.662,0.6607,0.6678,0.6763,0.6793,0.6766,0.677,0.6807,0.6892,0.6877,0.7001,0.7136,0.7105,0.7109,0.7115,0.7139,0.7132,0.7132,0.7132,0.7139,0.7139,0.7143,0.7149,0.7054,0.6994,0.6927,0.697,0.6885,0.6926,0.6946,0.6946,0.7017,0.7105,0.7071,0.7004,0.6883,0.6751,0.68,0.6868,0.6902,0.6793,0.6861,0.6827,0.6783,0.6793,0.6827,0.6814,0.681,0.679,0.677,0.679,0.6776,0.659,0.6424,0.6502,0.6569,0.6597,0.663,0.6712,0.6797,0.6191,0.5332,0.5338,0.5404,0.5404,0.5422,0.5428,0.5428,0.5428,0.5428,0.5428,0.5428,0.5428,0.5428,0.5428,0.5428,0.5428,0.5428,0.5442,0.5439,0.5439,0.546,0.5491,0.5481,0.5443,0.5532,0.5474,0.5477,0.5569,0.5597,0.563,0.5593,0.5661,0.5735,0.5749,0.5722,0.5722,0.5769,0.5776,0.5793,0.5827,0.5888,0.5993,0.6047,0.6162,0.6251,0.6261,0.6261,0.6261,0.6261,0.6261,0.6261,0.6352,0.6527,0.6603,0.6654,0.6793,0.6878,0.698,0.6959,0.6919,0.6946,0.7,0.7058,0.6997,0.7024,0.7139,0.7139,0.7139,0.7139,0.7139,0.7139,0.7139,0.7149,0.7166,0.72,0.7197,0.7183,0.7173,0.7051,0.7099,0.7048,0.7037,0.7048,0.7027,0.7017,0.7041,0.7037,0.7088,0.7034,0.693,0.681,0.6863,0.6887,0.7071,0.7051,0.698,0.6966,0.6946,0.699,0.7044,0.7014,0.6939,0.6959,0.6959,0.701,0.7021,0.6834,0.6702,0.6602,0.6619,0.6739,0.679,0.6858,0.6953,0.5683,0.5428,0.5428,0.5428,0.5428,0.5428,0.5428,0.5428,0.5428,0.5428,0.5428,0.5428,0.5428,0.5428,0.5428,0.5428,0.5428,0.5428,0.5416,0.5481,0.5521,0.5593,0.5623,0.5613,0.5576,0.5667,0.5537,0.5527,0.5647,0.5735,0.5848,0.5832,0.5847,0.5793,0.5813,0.5895,0.5891,0.5857,0.5895,0.5942,0.6106,0.5989,0.6074,0.6179,0.6207,0.6261,0.6261,0.6261,0.6261,0.6261,0.6261,0.6271,0.6383,0.6583,0.6732,0.6712,0.6858,0.6997,0.7105,0.7085,0.7061,0.7065,0.7109,0.7139,0.7139,0.7139,0.7139,0.7139,0.7139,0.7139,0.7139,0.7139,0.7143,0.7163,0.7204,0.7255,0.7288,0.7288,0.7285,0.7288,0.72,0.7115,0.7119,0.7129,0.7102,0.7082,0.7109,0.7034,0.7092,0.7075,0.6974,0.697,0.694,0.694,0.7115,0.7105,0.7078,0.7082,0.7085,0.7105,0.7129,0.7122,0.7071,0.7105,0.7105,0.7095,0.7071,0.7027,0.697,0.6826,0.6803,0.6806,0.6946,0.7004,0.7068,0.5428,0.5428,0.5428,0.5428,0.5428,0.5428,0.5428,0.5428,0.5428,0.5428,0.5428,0.5428,0.5428,0.5435,0.542,0.5456,0.5463,0.5487,0.5494,0.5545,0.5593,0.5705,0.5759,0.5762,0.5725,0.5745,0.5731,0.5724,0.5805,0.5904,0.5993,0.5999,0.6003,0.5969,0.5979,0.602,0.6037,0.5996,0.6027,0.6173,0.6256,0.6187,0.6132,0.624,0.6257,0.6261,0.6261,0.6261,0.6261,0.6278,0.6376,0.6407,0.6472,0.6575,0.6812,0.686,0.6902,0.7034,0.7109,0.7139,0.7139,0.7126,0.7129,0.7139,0.7139,0.7139,0.7139,0.7139,0.7139,0.7143,0.7153,0.7183,0.7227,0.7265,0.741,0.7464,0.7441,0.7465,0.7455,0.7444,0.7336,0.7224,0.7193,0.7193,0.7132,0.7112,0.7119,0.7136,0.7126,0.7115,0.7119,0.7027,0.7112,0.7119,0.7139,0.7119,0.7105,0.7112,0.7115,0.7122,0.7139,0.7139,0.7139,0.7129,0.7129,0.7136,0.7119,0.7078,0.7095,0.7115,0.7071,0.701,0.7068,0.7115,0.7129,0.5425,0.5428,0.5428,0.5428,0.5428,0.5428,0.5428,0.5428,0.5428,0.5372,0.5449,0.5442,0.5439,0.5466,0.5555,0.5531,0.5437,0.5511,0.5603,0.564,0.5684,0.58,0.5881,0.5908,0.5878,0.5902,0.5885,0.5868,0.5952,0.602,0.615,0.6251,0.6207,0.6203,0.6318,0.6244,0.6244,0.6321,0.6237,0.6307,0.6304,0.63,0.6318,0.6251,0.6261,0.6261,0.6261,0.6295,0.6302,0.6393,0.65,0.6544,0.6491,0.6812,0.6946,0.6902,0.7037,0.7119,0.7139,0.7139,0.7139,0.7139,0.7139,0.7139,0.7139,0.7139,0.7163,0.7183,0.718,0.7173,0.7207,0.7275,0.7339,0.7387,0.7537,0.7602,0.758,0.758,0.7577,0.7594,0.7468,0.736,0.7305,0.7255,0.7177,0.7143,0.7139,0.7139,0.7139,0.7139,0.7139,0.7139,0.7139,0.7139,0.7139,0.7139,0.7136,0.7139,0.7139,0.7139,0.7139,0.7139,0.7139,0.7139,0.7139,0.7139,0.7139,0.7132,0.7139,0.7139,0.7139,0.7119,0.7177,0.7197,0.7183,0.6268,0.6203,0.562,0.5428,0.5428,0.5428,0.5428,0.5428,0.5432,0.5416,0.5545,0.5554,0.5568,0.5552,0.5602,0.5616,0.5532,0.5545,0.5637,0.5864,0.5857,0.6003,0.6088,0.6061,0.6037,0.6108,0.6091,0.6016,0.6183,0.6183,0.6257,0.6271,0.6363,0.6339,0.6281,0.6261,0.6257,0.6257,0.6257,0.6257,0.6261,0.6342,0.6345,0.6352,0.6437,0.6362,0.6298,0.6359,0.64,0.642,0.6623,0.6617,0.6647,0.6943,0.7018,0.6963,0.6974,0.7136,0.7139,0.7139,0.7139,0.7146,0.7156,0.716,0.7146,0.7139,0.7187,0.7265,0.7292,0.7329,0.7444,0.7482,0.7526,0.7543,0.7594,0.7668,0.7746,0.7764,0.77,0.7654,0.7617,0.7475,0.7387,0.7356,0.7288,0.7108,0.7094,0.7153,0.7143,0.7143,0.7139,0.7139,0.7139,0.7139,0.7139,0.7139,0.7139,0.7139,0.7139,0.7139,0.7139,0.7139,0.7139,0.7139,0.7139,0.7139,0.7139,0.7139,0.7139,0.7139,0.7149,0.7146,0.716,0.7166,0.7156,0.6527,0.6203,0.562,0.5393,0.5426,0.5386,0.5428,0.5439,0.5483,0.5501,0.5624,0.5637,0.5679,0.5665,0.5686,0.5668,0.5661,0.5732,0.5783,0.6027,0.6027,0.6112,0.6176,0.621,0.621,0.6247,0.6331,0.6342,0.6254,0.641,0.6476,0.6454,0.6502,0.6502,0.6437,0.6396,0.6346,0.6332,0.6315,0.6684,0.7025,0.7211,0.707,0.7111,0.7055,0.6896,0.66,0.6491,0.6552,0.6593,0.6675,0.6689,0.6739,0.6902,0.6993,0.7041,0.7044,0.7183,0.716,0.7295,0.7299,0.7241,0.7224,0.7251,0.7282,0.7333,0.7366,0.7421,0.7444,0.7502,0.7584,0.7621,0.7678,0.7695,0.776,0.7834,0.7879,0.7892,0.7902,0.7862,0.7756,0.7611,0.7485,0.7451,0.7411,0.7316,0.7138,0.7104,0.716,0.716,0.7163,0.7163,0.7153,0.7149,0.7146,0.7139,0.7139,0.7139,0.7139,0.7139,0.7139,0.7139,0.7139,0.7139,0.7139,0.7139,0.7139,0.7143,0.717,0.7177,0.717,0.7163,0.7146,0.7156,0.717,0.6214,0.5502,0.5439,0.5467,0.5559,0.5464,0.5466,0.5399,0.5535,0.5603,0.562,0.5734,0.5782,0.5847,0.5937,0.5884,0.5806,0.5935,0.6006,0.6047,0.6078,0.6166,0.6261,0.6342,0.6379,0.6417,0.6452,0.6445,0.6305,0.6527,0.6661,0.6634,0.6664,0.6675,0.6641,0.6586,0.6579,0.6665,0.6871,0.7254,0.7596,0.8057,0.7801,0.77,0.7663,0.7267,0.6884,0.6681,0.6702,0.6759,0.6848,0.6823,0.689,0.6981,0.7115,0.7187,0.7292,0.7258,0.7275,0.7448,0.7492,0.7434,0.7414,0.7475,0.7506,0.7516,0.7536,0.7573,0.7604,0.7617,0.7648,0.7736,0.7818,0.7868,0.7933,0.7977,0.8001,0.7935,0.7932,0.7963,0.7882,0.7763,0.7645,0.7584,0.755,0.7428,0.7245,0.7178,0.7238,0.721,0.721,0.7204,0.719,0.7163,0.7153,0.7143,0.7139,0.7139,0.7139,0.7139,0.7139,0.7139,0.7139,0.7139,0.7139,0.7139,0.7139,0.7177,0.7227,0.7231,0.7261,0.7248,0.7248,0.7227,0.7234,0.6722,0.6403,0.5905,0.5698,0.5732,0.5694,0.5677,0.5684,0.5732,0.5793,0.5898,0.5946,0.593,0.5959,0.5969,0.5949,0.6003,0.602,0.6101,0.6146,0.6176,0.622,0.6274,0.6404,0.6376,0.6421,0.6486,0.6579,0.6468,0.6671,0.6597,0.6556,0.678,0.6841,0.6848,0.6817,0.7159,0.7435,0.748,0.7552,0.7801,0.8108,0.7955,0.7698,0.7564,0.7239,0.6916,0.6824,0.6851,0.6888,0.7004,0.6987,0.7001,0.7037,0.7166,0.7299,0.736,0.7383,0.7465,0.755,0.7614,0.7655,0.7665,0.7621,0.7628,0.7634,0.7672,0.7723,0.7756,0.777,0.7811,0.7889,0.7933,0.7967,0.8011,0.8021,0.8038,0.8038,0.8038,0.8021,0.7943,0.7899,0.778,0.775,0.7699,0.7563,0.7458,0.7387,0.7299,0.7355,0.7224,0.7217,0.7217,0.7187,0.7156,0.7139,0.7139,0.7139,0.7139,0.7139,0.7139,0.7139,0.7139,0.7149,0.7166,0.7156,0.7139,0.721,0.743,0.738,0.7407,0.7377,0.735,0.7339,0.7309,0.6773,0.6441,0.5969,0.5833,0.5898,0.5959,0.5983,0.5973,0.5922,0.5949,0.602,0.6077,0.6112,0.6118,0.612,0.612,0.6129,0.6139,0.6207,0.6308,0.6302,0.6366,0.638,0.638,0.6407,0.6447,0.6529,0.6627,0.662,0.6705,0.6746,0.68,0.6959,0.6987,0.7007,0.707,0.7469,0.7741,0.7889,0.7628,0.7816,0.8111,0.7951,0.7693,0.7535,0.7366,0.6953,0.7059,0.7,0.7034,0.7153,0.7138,0.7161,0.7195,0.7343,0.7472,0.7543,0.7553,0.7594,0.7723,0.7777,0.7818,0.7862,0.7858,0.7824,0.7821,0.7855,0.7889,0.7906,0.7926,0.7987,0.8035,0.8035,0.8035,0.8038,0.8038,0.8038,0.8038,0.8038,0.8038,0.8011,0.798,0.794,0.7913,0.7851,0.7723,0.7631,0.766,0.7516,0.7379,0.7324,0.7193,0.7207,0.7207,0.7187,0.718,0.718,0.7173,0.7139,0.7139,0.7143,0.7146,0.7153,0.7177,0.7204,0.7214,0.7244,0.7461,0.7578,0.7619,0.7563,0.755,0.7522,0.7489,0.7441,0.6603,0.6036,0.5974,0.6079,0.6061,0.6183,0.6237,0.6247,0.6125,0.6071,0.6108,0.6196,0.6318,0.6274,0.6312,0.6308,0.6295,0.6308,0.6383,0.6488,0.6413,0.6461,0.6556,0.6569,0.6549,0.6675,0.6763,0.6766,0.679,0.6865,0.6987,0.7126,0.7119,0.7112,0.7102,0.7105,0.7364,0.7777,0.7594,0.7308,0.8295,0.862,0.8794,0.8831,0.8682,0.842,0.7727,0.7397,0.7234,0.7378,0.7265,0.7346,0.7332,0.7478,0.7553,0.7628,0.7699,0.7726,0.7753,0.7868,0.7896,0.7923,0.7953,0.798,0.796,0.7946,0.7967,0.7977,0.798,0.7984,0.8024,0.8038,0.8038,0.8038,0.8038,0.8038,0.8038,0.8038,0.8038,0.8038,0.8031,0.8007,0.8004,0.797,0.795,0.7851,0.7863,0.7801,0.7695,0.759,0.7416,0.7268,0.735,0.7383,0.7305,0.7292,0.7248,0.7221,0.721,0.7238,0.7305,0.7255,0.7166,0.7217,0.7275,0.7343,0.7404,0.7619,0.7725,0.7692,0.7719,0.7726,0.7702,0.7665,0.7577,0.6633,0.7078,0.7289,0.6927,0.6283,0.6244,0.6261,0.6271,0.6342,0.6356,0.6274,0.6386,0.641,0.6337,0.6458,0.6454,0.6441,0.6498,0.66,0.663,0.6583,0.6603,0.6688,0.6668,0.6675,0.6712,0.6793,0.6915,0.6897,0.6957,0.7041,0.701,0.7071,0.7139,0.7139,0.7139,0.7278,0.757,0.7567,0.7644,0.8385,0.8759,0.8865,0.8978,0.889,0.9323,0.8886,0.8719,0.8625,0.8547,0.7789,0.7519,0.7539,0.7778,0.7851,0.7746,0.7804,0.7841,0.7906,0.7974,0.7984,0.7997,0.8014,0.8028,0.8035,0.8038,0.8038,0.8038,0.8038,0.8038,0.8038,0.8038,0.8038,0.8038,0.8038,0.8038,0.8038,0.8038,0.8038,0.8038,0.8038,0.8038,0.8038,0.8031,0.8018,0.795,0.7945,0.7876,0.7832,0.7705,0.7643,0.7522,0.7621,0.7628,0.7506,0.7421,0.7387,0.7411,0.7431,0.7451,0.7468,0.7394,0.7316,0.7319,0.736,0.7455,0.756,0.777,0.7863,0.7831,0.7868,0.7872,0.7899,0.7882,0.776,0.7104,0.7568,0.7289,0.6894,0.6431,0.6356,0.6318,0.6373,0.641,0.6512,0.6478,0.6582,0.6502,0.6488,0.6525,0.6614,0.659,0.6654,0.6729,0.677,0.6766,0.68,0.68,0.678,0.6837,0.6868,0.6936,0.6957,0.6949,0.7044,0.6997,0.7034,0.7112,0.7139,0.7139,0.7139,0.7139,0.7139,0.7631,0.8281,0.8751,0.8926,0.9323,0.9405,0.9753,1.0014,0.9446,0.9121,0.8796,0.8489,0.7674,0.7658,0.7767,0.7914,0.7945,0.7889,0.7929,0.795,0.8011,0.8038,0.8038,0.8038,0.8038,0.8038,0.8038,0.8038,0.8038,0.8038,0.8038,0.8038,0.8038,0.8038,0.8038,0.8038,0.8038,0.8038,0.8038,0.8038,0.8038,0.8038,0.8038,0.8038,0.8038,0.8038,0.8028,0.8021,0.8024,0.7952,0.7811,0.7801,0.775,0.7719,0.7787,0.774,0.758,0.7536,0.7539,0.758,0.7631,0.758,0.7449,0.7509,0.7475,0.7478,0.7519,0.7614,0.7719,0.7911,0.7979,0.794,0.7984,0.8014,0.8045,0.8058,0.796,0.7756,0.7565,0.7001,0.6659,0.6502,0.6502,0.6437,0.6366,0.6474,0.661,0.6725,0.6749,0.6749,0.6732,0.6729,0.6732,0.6756,0.6814,0.6871,0.6892,0.6837,0.6922,0.6946,0.6915,0.697,0.7031,0.7095,0.7109,0.7048,0.7136,0.7136,0.7139,0.7139,0.7139,0.7139,0.7316,0.7489,0.7952,0.852,0.9363,0.9402,0.9262,0.9956,1.0463,1.0697,1.0279,0.9749,0.9135,0.8792,0.8169,0.7868,0.7831,0.7835,0.797,0.7984,0.8007,0.8004,0.8014,0.8038,0.8038,0.8038,0.8038,0.8038,0.8038,0.8038,0.8038,0.8038,0.8038,0.8038,0.8038,0.8038,0.8038,0.8038,0.8038,0.8038,0.8038,0.8038,0.8038,0.8038,0.8038,0.8038,0.8038,0.8038,0.8038,0.8038,0.8038,0.8007,0.7943,0.7899,0.7913,0.7899,0.7848,0.7848,0.7767,0.7685,0.7685,0.7716,0.774,0.7773,0.7594,0.7533,0.7624,0.7628,0.7638,0.7692,0.7756,0.7838,0.7926,0.7991,0.7932,0.8028,0.8052,0.8123,0.8133,0.8126,0.7537,0.6941,0.762,0.7386,0.6737,0.6658,0.6641,0.6644,0.6763,0.6865,0.6888,0.6993,0.7007,0.6977,0.6888,0.6888,0.6898,0.6959,0.7034,0.7078,0.7017,0.7075,0.7095,0.7034,0.7085,0.7119,0.7139,0.7139,0.7139,0.7139,0.7139,0.7228,0.7228,0.7228,0.7401,0.7753,0.8548,0.8844,0.968,1.0705,1.1264,1.1284,1.1271,1.1646,1.1986,1.1944,1.1636,1.0914,1.0072,0.9206,0.8351,0.8072,0.7922,0.8038,0.8038,0.8038,0.8038,0.8038,0.8038,0.8038,0.8038,0.8038,0.8038,0.8038,0.8038,0.8038,0.8038,0.8038,0.8038,0.8038,0.8038,0.8038,0.8038,0.8038,0.8038,0.8038,0.8038,0.8038,0.8038,0.8038,0.8038,0.8038,0.8038,0.8038,0.8038,0.8038,0.8038,0.7984,0.7977,0.8004,0.8024,0.7977,0.7923,0.7967,0.7957,0.7906,0.7916,0.7933,0.7919,0.7845,0.7794,0.7773,0.7777,0.7784,0.7714,0.7862,0.795,0.8021,0.8048,0.7975,0.8045,0.8065,0.816,0.8214,0.8211]},{"header":{"parameterUnit":"m.s-1","parameterCategory":1,"la1":31.0,"la2":29.5877,"lo1":-88.7671,"lo2":-86.6584,"dy":0.0162,"dx":0.0185,"nx":115,"ny":88,"refTime":"2023-09-25T00:00:00:Z","depth":0,"parameterNumber":3,"parameterNumberName":"V-component_of_WINDS"},"data":[0.0,0.0,0.0,0.0,0.0,0.0,0.0,0.0,0.0,0.0,0.0,0.0,0.0,0.0,0.0,0.0,0.0,0.0,0.0,0.0,0.0,0.0,0.0,0.0,0.0,0.0,0.0,0.0,0.0,0.0,0.0,0.0,0.0,0.0,0.0,0.0,0.0,0.0,0.0,0.0,0.0,0.0,0.0,0.0,0.0,0.0,0.0,0.0,0.0,0.0,0.0,0.0,0.0,0.0,0.0,0.0,0.0,0.0,0.0,0.0,0.0,0.0,0.0,0.0,0.0,0.0,0.0,0.0,0.0,0.0,0.0,0.0,0.0,0.0,0.0,0.0,0.0,0.0,0.0,0.0,0.0,0.0,0.0,0.0,0.0,0.0,0.0,0.0,0.0,0.0,0.0,0.0,0.0,0.0,0.0,0.0,0.0,0.0,0.0,0.0,0.0,0.0,0.0,0.0,0.0,0.0,0.0,0.0,0.0,0.0,0.0,0.0,0.0,0.0,0.0,0.0,0.0,0.0,0.0,0.0,0.0,0.0,0.0,0.0,0.0,0.0,0.0,0.0,0.0,0.0,0.0,0.0,0.0,0.0,0.0,0.0,0.0,0.0,0.0,0.0,0.0,0.0,0.0,0.0,0.0,0.0,0.0,0.0,0.0,0.0,0.0,0.0,0.0,0.0,0.0,0.0,0.0,0.0,0.0,0.0,0.0,0.0,0.0,0.0,0.0,0.0,0.0,0.0,0.0,0.0,0.0,0.0,0.0,0.0,0.0,0.0,0.0,0.0,0.0,0.0,0.0,0.0,0.0,0.0,0.0,0.0,0.0,0.0,0.0,0.0,0.0,0.0,0.0,0.0,0.0,0.0,0.0,0.0,0.0,0.0,0.0,0.0,0.0,0.0,0.0,0.0,0.0,0.0,0.0,0.0,0.0,0.0,0.0,0.0,0.0,0.0,0.0,0.0,0.0,0.0,0.0,0.0,0.0,0.0,0.0,0.0,0.0,0.0,0.0,0.0,0.0,0.0,0.0,0.0,0.0,0.0,0.0,0.0,0.0,0.0,0.0,0.0,0.0,0.0,0.0,0.0,0.0,0.0,0.0,0.0,0.0,0.0,0.0,0.0,0.0,0.0,0.0,0.0,0.0,0.0,0.0,0.0,0.0,0.0,0.0,0.0,0.0,0.0,0.0,0.0,0.0,0.0,0.0,0.0,0.0,0.0,0.0,0.0,0.0,0.0,0.0,0.0,0.0,0.0,0.0,0.0,0.0,0.0,0.0,0.0,0.0,0.0,0.0,0.0,0.0,0.0,0.0,0.0,0.0,0.0,0.0,0.0,0.0,0.0,0.0,0.0,0.0,0.0,0.0,0.0,0.0,0.0,0.0,0.0,0.0,0.0,0.0,0.0,0.0,0.0,0.0,0.0,0.0,0.0,0.0,0.0,0.0,0.0,0.0,0.0,0.0,0.0,0.0,0.0,0.0,0.0,0.0,0.0,0.0,0.0,0.0,0.0,0.0,0.0,0.0,0.0,0.0,0.0,0.0,0.0,0.0,0.0,0.0,0.0,0.0,0.0,0.0,0.0,0.0,0.0,0.0,0.0,0.0,0.0,0.0,0.0,0.0,0.0,0.0,0.0,0.0,0.0,0.0,0.0,0.0,0.0,0.0,0.0,0.0,0.0,0.0,0.0,0.0,0.0,0.0,0.0,0.0,0.0,0.0,0.0,0.0,0.0,0.0,0.0,0.0,0.0,0.0,0.0,0.0,0.0,0.0,0.0,0.0,0.0,0.0,0.0,0.0,0.0,0.0,0.0,0.0,0.0,0.0,0.0,0.0,0.0,0.0,0.0,0.0,0.0,0.0,0.0,0.0,0.0,0.0,0.0,0.0,0.0,0.0,0.0,0.0,0.0,0.0,0.0,0.0,0.0,0.0,0.0,0.0,0.0,0.0,0.0,0.0,0.0,0.0,0.0,0.0,0.0,0.0,0.0,0.0,0.0,0.0,0.0,0.0,0.0,0.0,0.0,0.0,0.0,0.0,0.0,0.0,0.0,0.0,0.0,0.0,0.0,0.0,0.0,0.0,0.0,0.0,0.0,0.0,0.0,0.0,0.0,0.0,0.0,0.0,0.0,0.0,0.0,0.0,0.0,0.0,0.0,0.0,0.0,0.0,0.0,0.0,0.0,0.0,0.0,0.0,0.0,0.0,0.0,0.0,0.0,0.0,0.0,0.0,0.0,0.0,0.0,0.0,0.0,0.0,0.0,0.0,0.0,0.0,0.0,0.0,0.0,0.0,0.0,0.0,0.0,0.0,0.0,0.0,0.0,0.0,0.0,0.0,0.0,0.0,0.0,0.0,0.0,0.0,0.0,0.0,0.0,0.0,0.0,0.0,0.0,0.0,0.0,0.0,0.0,0.0,0.0,0.0,0.0,0.0,0.0,0.0,0.0,0.0,0.0,0.0,0.0,0.0,0.0,0.0,0.0,0.0,0.0,0.0,0.0,0.0,0.0,0.0,0.0,0.0,0.0,0.0,0.0,0.0,0.0,0.0,0.0,0.0,0.0,0.0,0.0,0.0,0.0,0.0,0.0,0.0,0.0,0.0,0.0,0.0,0.0,0.0,0.0,0.0,0.0,0.0,0.0,0.0,0.0,0.0,0.0,0.0,0.0,0.0,0.0,0.0,0.0,0.0,0.0,0.0,0.0,0.0,0.0,0.0,0.0,0.0,0.0,0.0,0.0,0.0,0.0,0.0,0.0,0.0,0.0,0.0,0.0,0.0,0.0,0.0,0.0,0.0,0.0,0.0,0.0,0.0,0.0,0.0,0.0,0.0,0.0,0.0,0.0,0.0,0.0,0.0,0.0,0.0,0.0,0.0,0.0,0.0,0.0,0.0,0.0,0.0,0.0,0.0,0.0,0.0,0.0,0.0,0.0,0.0,0.0,0.0,0.0,0.0,0.0,0.0,0.0,0.0,0.0,0.0,0.0,0.0,0.0,0.0,0.0,0.0,0.0,0.0,0.0,0.0,0.0,0.0,0.0,0.0,0.0,0.0,0.0,0.0,0.0,0.0,0.0,0.0,0.0,0.0,0.0,0.0,0.0,0.0,0.0,0.0,0.0,0.0,0.0,0.0,0.0,0.0,0.0,0.0,0.0,0.0,0.0,0.0,0.0,0.0,0.0,0.0,0.0,0.0,0.0,0.0,0.0,0.0,0.0,0.0,0.0,0.0,0.0,0.0,0.0,0.0,0.0,0.0,0.0,0.0,0.0,0.0,0.0,0.0,0.0,0.0,0.0,0.0,0.0,0.0,0.0,0.0,0.0,0.0,0.0,0.0,0.0,0.0,0.0,0.0,0.0,0.0,0.0,0.0,0.0,0.0,0.0,0.0,0.0,0.0,0.0,0.0,0.0,0.0,0.0,0.0,0.0,0.0,0.0,0.0,0.0,0.0,0.0,0.0,0.0,0.0,0.0,0.0,0.0,0.0,0.0,0.0,0.0,0.0,0.0,0.0,0.0,0.0,0.0,0.0,0.0,0.0,0.0,0.0,0.0,0.0,0.0,0.0,0.0,0.0,0.0,0.0,0.0,0.0,0.0,0.0,0.0,0.0,0.0,0.0,0.0,0.0,0.0,0.0,0.0,0.0,0.0,0.0,0.0,0.0,0.0,0.0,0.0,0.0,0.0,0.0,0.0,0.0,0.0,0.0,0.0,0.0,0.0,0.0,0.0,0.0,0.0,0.0,0.0,0.0,0.0,0.0,0.0,0.0,0.0,0.0,0.0,0.0,0.0,0.0,0.0,0.0,0.0,0.0,0.0,0.0,0.0,0.0,0.0,0.0,0.0,0.0,0.0,0.0,0.0,0.0,0.0,0.0,0.0,0.0,0.0,0.0,0.0,0.0,0.0,0.0,0.0,0.0,0.0,0.0,0.0,0.0,0.0,0.0,0.0,0.0,0.0,0.0,0.0,0.0,0.0,0.0,0.0,0.0,0.0,0.0,0.0,0.0,0.0,0.0,0.0,0.0,0.0,0.0,0.0,0.0,0.0,0.0,0.0,0.0,0.0,0.0,0.0,0.0,0.0,0.0,0.0,0.0,0.0,0.0,0.0,0.0,0.0,0.0,0.0,0.0,0.0,0.0,0.0,0.0,0.0,0.0,0.0,0.0,0.0,0.0,0.0,0.0,0.0,0.0,0.0,0.0,0.0,0.0,0.0,0.0,0.0,0.0,0.0,0.0,0.0,0.0,0.0,0.0,0.0,0.0,0.0,-1.1951,0.0,0.0,0.0,0.0,0.0,0.0,0.0,0.0,0.0,0.0,0.0,0.0,0.0,0.0,0.0,0.0,0.0,0.0,0.0,0.0,0.0,0.0,0.0,0.0,0.0,0.0,0.0,0.0,0.0,0.0,0.0,0.0,0.0,0.0,0.0,0.0,0.0,0.0,0.0,0.0,0.0,0.0,0.0,0.0,0.0,0.0,0.0,0.0,0.0,0.0,0.0,0.0,0.0,0.0,0.0,0.0,0.0,0.0,0.0,0.0,0.0,0.0,0.0,0.0,0.0,0.0,0.0,0.0,0.0,0.0,0.0,0.0,0.0,0.0,0.0,0.0,0.0,0.0,0.0,0.0,0.0,0.0,0.0,0.0,0.0,0.0,0.0,0.0,0.0,0.0,0.0,0.0,0.0,0.0,0.0,0.0,0.0,0.0,0.0,0.0,0.0,0.0,0.0,0.0,0.0,0.0,0.0,0.0,0.0,0.0,-1.1332,-1.1224,-1.1065,-1.1204,-1.1648,0.0,0.0,0.0,0.0,0.0,0.0,0.0,0.0,0.0,0.0,0.0,0.0,0.0,0.0,0.0,0.0,0.0,0.0,0.0,0.0,0.0,0.0,0.0,0.0,0.0,0.0,0.0,0.0,0.0,0.0,0.0,0.0,0.0,0.0,0.0,0.0,0.0,0.0,0.0,0.0,0.0,0.0,0.0,0.0,0.0,0.0,0.0,0.0,0.0,0.0,0.0,0.0,0.0,0.0,0.0,0.0,0.0,0.0,0.0,0.0,0.0,0.0,0.0,0.0,0.0,0.0,0.0,0.0,0.0,0.0,0.0,0.0,0.0,0.0,0.0,0.0,0.0,0.0,0.0,0.0,0.0,0.0,0.0,0.0,0.0,0.0,0.0,0.0,0.0,0.0,0.0,0.0,0.0,0.0,0.0,0.0,0.0,0.0,0.0,0.0,0.0,0.0,0.0,0.0,0.0,0.0,0.0,0.0,0.0,0.0,0.0,0.0,-0.9615,-0.9947,-1.0467,0.0,0.0,0.0,0.0,0.0,0.0,0.0,0.0,0.0,0.0,0.0,0.0,0.0,0.0,0.0,0.0,0.0,0.0,0.0,0.0,0.0,0.0,0.0,0.0,0.0,0.0,0.0,0.0,0.0,0.0,0.0,0.0,0.0,0.0,0.0,0.0,0.0,0.0,0.0,0.0,0.0,0.0,0.0,0.0,0.0,0.0,0.0,0.0,0.0,0.0,0.0,0.0,0.0,0.0,0.0,0.0,0.0,0.0,0.0,0.0,0.0,0.0,0.0,0.0,0.0,0.0,0.0,0.0,0.0,0.0,0.0,0.0,0.0,0.0,0.0,0.0,0.0,0.0,0.0,0.0,0.0,0.0,0.0,0.0,0.0,0.0,0.0,0.0,0.0,0.0,0.0,0.0,0.0,0.0,0.0,0.0,0.0,0.0,0.0,0.0,0.0,0.0,0.0,0.0,0.0,0.0,0.0,0.0,0.0,0.0,-0.8458,-0.7487,-0.6314,0.0,-0.7325,0.0,0.0,0.0,0.0,0.0,0.0,0.0,0.0,0.0,0.0,0.0,0.0,0.0,0.0,0.0,0.0,0.0,0.0,0.0,0.0,0.0,0.0,0.0,0.0,0.0,0.0,0.0,0.0,0.0,0.0,0.0,0.0,0.0,0.0,0.0,0.0,0.0,0.0,0.0,0.0,0.0,0.0,0.0,0.0,0.0,0.0,0.0,0.0,0.0,0.0,0.0,0.0,0.0,0.0,0.0,0.0,0.0,0.0,0.0,0.0,0.0,0.0,0.0,0.0,0.0,0.0,0.0,0.0,0.0,0.0,0.0,0.0,0.0,0.0,0.0,0.0,0.0,0.0,0.0,0.0,0.0,0.0,0.0,0.0,0.0,0.0,0.0,0.0,0.0,0.0,0.0,0.0,0.0,0.0,0.0,0.0,0.0,0.0,0.0,0.0,0.0,0.0,0.0,0.0,0.0,0.0,0.0,0.0,0.0,0.0,-0.699,-0.7092,-0.7967,-0.8,0.0,0.0,0.0,0.0,0.0,0.0,0.0,0.0,0.0,0.0,0.0,0.0,0.0,0.0,0.0,0.0,0.0,0.0,0.0,0.0,0.0,0.0,0.0,0.0,0.0,0.0,0.0,0.0,0.0,0.0,0.0,0.0,0.0,0.0,0.0,0.0,0.0,0.0,0.0,0.0,0.0,0.0,0.0,0.0,0.0,0.0,0.0,0.0,0.0,0.0,0.0,0.0,0.0,0.0,0.0,0.0,0.0,0.0,0.0,0.0,0.0,0.0,0.0,0.0,0.0,0.0,0.0,0.0,0.0,0.0,0.0,0.0,0.0,0.0,0.0,0.0,0.0,0.0,0.0,0.0,0.0,0.0,0.0,0.0,0.0,0.0,0.0,0.0,0.0,0.0,0.0,0.0,0.0,0.0,0.0,0.0,0.0,0.0,0.0,0.0,0.0,0.0,0.0,0.0,0.0,0.0,0.0,0.0,0.0,0.0,-0.652,-0.6086,-0.6115,-0.7905,-0.8027,-0.6066,0.0,0.0,0.0,0.0,0.0,0.0,0.0,0.0,0.0,0.0,0.0,0.0,0.0,0.0,0.0,0.0,0.0,0.0,0.0,0.0,0.0,0.0,0.0,0.0,0.0,0.0,0.0,0.0,0.0,0.0,0.0,0.0,0.0,0.0,0.0,0.0,0.0,0.0,0.0,0.0,0.0,0.0,0.0,0.0,0.0,0.0,0.0,0.0,0.0,0.0,0.0,0.0,0.0,0.0,0.0,0.0,0.0,0.0,0.0,0.0,0.0,0.0,0.0,0.0,0.0,0.0,0.0,0.0,0.0,0.0,0.0,0.0,0.0,0.0,0.0,0.0,0.0,0.0,0.0,0.0,0.0,0.0,0.0,0.0,0.0,0.0,0.0,0.0,0.0,0.0,0.0,0.0,0.0,0.0,0.0,0.0,0.0,0.0,0.0,0.0,0.0,0.0,0.0,0.0,0.0,0.0,0.0,0.0,-0.6466,-0.6653,-0.5794,-0.3704,-0.4085,-0.4,0.0,0.0,0.0,0.0,0.0,0.0,0.0,0.0,0.0,0.0,0.0,0.0,0.0,0.0,0.0,0.0,0.0,0.0,0.0,0.0,0.0,0.0,0.0,0.0,0.0,0.0,0.0,0.0,0.0,0.0,0.0,0.0,0.0,0.0,0.0,0.0,0.0,0.0,0.0,0.0,0.0,0.0,0.0,0.0,0.0,0.0,0.0,0.0,0.0,0.0,0.0,0.0,0.0,0.0,0.0,0.0,0.0,0.0,0.0,0.0,0.0,0.0,0.0,0.0,0.0,0.0,0.0,0.0,0.0,0.0,0.0,0.0,0.0,0.0,0.0,0.0,0.0,0.0,0.0,0.0,0.0,0.0,0.0,0.0,0.0,0.0,0.0,0.0,0.0,0.0,0.0,0.0,0.0,0.0,0.0,0.0,0.0,0.0,0.0,0.0,0.0,0.0,0.0,0.0,0.0,0.0,0.0,0.0,0.0,-0.5677,-0.4688,-0.3022,-0.0649,-0.2841,-0.3729,0.0,0.0,0.0,0.0,0.0,0.0,0.0,0.0,0.0,0.0,0.0,0.0,0.0,0.0,0.0,0.0,0.0,0.0,0.0,0.0,0.0,0.0,0.0,0.0,0.0,0.0,0.0,0.0,0.0,0.0,0.0,0.0,0.0,0.0,0.0,0.0,0.0,0.0,0.0,0.0,0.0,0.0,0.0,0.0,0.0,0.0,0.0,0.0,0.0,0.0,0.0,0.0,0.0,0.0,0.0,0.0,0.0,0.0,0.0,0.0,0.0,0.0,0.0,0.0,0.0,0.0,0.0,0.0,0.0,0.0,0.0,0.0,0.0,0.0,0.0,0.0,0.0,0.0,0.0,0.0,0.0,0.0,0.0,0.0,0.0,0.0,0.0,0.0,0.0,0.0,0.0,0.0,0.0,0.0,0.0,0.0,0.0,0.0,0.0,0.0,0.0,0.0,0.0,0.0,0.0,0.0,0.0,0.0,0.0,-0.4123,0.0,-0.0121,0.1126,-0.1437,-0.273,0.0,0.0,0.0,0.0,0.0,0.0,0.0,0.0,0.0,0.0,0.0,0.0,0.0,0.0,0.0,0.0,0.0,0.0,0.0,0.0,0.0,0.0,0.0,0.0,0.0,0.0,0.0,0.0,0.0,0.0,0.0,0.0,0.0,0.0,0.0,0.0,0.0,0.0,0.0,0.0,0.0,0.0,0.0,0.0,0.0,0.0,0.0,0.0,0.0,0.0,0.0,0.0,0.0,0.0,0.0,0.0,0.0,0.0,0.0,0.0,0.0,0.0,0.0,0.0,0.0,0.0,0.0,0.0,0.0,0.0,0.0,0.0,0.0,0.0,0.0,0.0,0.0,0.0,0.0,0.0,0.0,0.0,0.0,0.0,0.0,0.0,0.0,0.0,0.0,0.0,0.0,0.0,0.0,0.0,0.0,0.0,0.0,0.0,0.0,0.0,0.0,0.0,0.0,0.0,0.0,0.0,0.0,0.0,-0.3212,-0.1632,0.1515,0.2628,0.1445,0.0499,-0.0677,0.0,0.0,0.0,0.0,0.0,0.0,0.0,0.0,0.0,0.0,0.0,0.0,0.0,0.0,0.0,0.0,0.0,0.0,0.0,0.0,0.0,0.0,0.0,0.0,0.0,0.0,0.0,0.0,0.0,0.0,0.0,0.0,0.0,0.0,0.0,0.0,0.0,0.0,0.0,0.0,0.0,0.0,0.0,0.0,0.0,0.0,0.0,0.0,0.0,0.0,0.0,0.0,0.0,0.0,0.0,0.0,0.0,0.0,0.0,0.0,0.0,0.0,0.0,0.0,0.0,0.0,0.0,0.0,0.0,0.0,0.0,0.0,0.0,0.0,0.0,0.0,0.0,0.0,0.0,0.0,0.0,0.0,0.0,0.0,0.0,0.0,0.0,0.0,0.0,0.0,0.0,0.0,0.0,0.0,0.0,0.0,0.0,0.0,0.0,0.0,0.0,0.0,0.0,0.0,0.0,0.0,0.0,0.0,0.0,0.5233,0.5109,0.5423,0.6159,0.2756,0.0248,0.0,0.0,0.0,0.0,0.0,0.0,0.0,0.0,0.0,0.0,0.0,0.0,0.0,0.0,0.0,0.0,0.0,0.0,0.0,0.0,0.0,0.0,0.0,0.0,0.0,0.0,0.0,0.0,0.0,0.0,0.0,0.0,0.0,0.0,0.0,0.0,0.0,0.0,0.0,0.0,0.0,0.0,0.0,0.0,0.0,0.0,0.0,0.0,0.0,0.0,0.0,0.0,0.0,0.0,0.0,0.0,0.0,0.0,0.0,0.0,0.0,0.0,0.0,0.0,0.0,0.0,0.0,0.0,0.0,0.0,0.0,0.0,0.0,0.0,0.0,0.0,0.0,0.0,0.0,0.0,0.0,0.0,0.0,0.0,0.0,0.0,0.0,0.0,0.0,0.0,0.0,0.0,0.0,0.0,0.0,0.0,0.0,0.0,0.0,0.0,0.0,0.0,0.0,0.0,0.0,0.0,0.0,0.0,0.0,1.0092,0.84,0.7852,0.8731,0.4672,0.1632,-0.0127,0.0,0.0,0.0,0.0,0.0,0.0,0.0,0.0,0.0,0.0,0.0,0.0,0.0,0.0,0.0,0.0,0.0,0.0,0.0,0.0,0.0,0.0,0.0,0.0,0.0,0.0,0.0,0.0,0.0,0.0,0.0,0.0,0.0,0.0,0.0,0.0,0.0,0.0,0.0,0.0,0.0,0.0,0.0,0.0,0.0,0.0,0.0,0.0,0.0,0.0,0.0,0.0,0.0,0.0,0.0,0.0,0.0,0.0,0.0,0.0,0.0,0.0,0.0,0.0,0.0,0.0,0.0,0.0,0.0,0.0,0.0,0.0,0.0,0.0,0.0,0.0,0.0,0.0,0.0,0.0,0.0,0.0,0.0,0.0,0.0,0.0,0.0,0.0,0.0,0.0,0.0,0.0,0.0,0.0,0.0,0.0,0.0,0.0,0.0,0.0,0.0,0.0,0.0,0.0,0.0,0.0,0.0,0.0,1.3109,1.1363,1.0067,0.9255,0.6367,0.3475,0.0,0.0,0.0,0.0,0.0,0.0,0.0,0.0,0.0,0.0,0.0,0.0,0.0,0.0,0.0,0.0,0.0,0.0,0.0,0.0,0.0,0.0,0.0,0.0,0.0,0.0,0.0,0.0,0.0,0.0,0.0,0.0,0.0,0.0,0.0,0.0,0.0,0.0,0.0,0.0,0.0,0.0,0.0,0.0,0.0,0.0,0.0,0.0,0.0,0.0,0.0,0.0,0.0,0.0,0.0,0.0,0.0,0.0,0.0,0.0,0.0,0.0,0.0,0.0,0.0,0.0,0.0,0.0,0.0,0.0,0.0,0.0,0.0,0.0,0.0,0.0,0.0,0.0,0.0,0.0,0.0,0.0,0.0,0.0,0.0,0.0,0.0,0.0,0.0,0.0,0.0,0.0,0.0,0.0,0.0,0.0,0.0,0.0,0.0,0.0,0.0,0.0,0.0,0.0,0.0,0.0,0.0,0.0,0.0,1.3464,1.3417,1.2998,1.2116,0.8244,0.4664,0.0,0.0,0.0,0.0,0.0,0.0,0.0,0.0,0.0,0.0,0.0,0.0,0.0,0.0,0.0,0.0,0.0,0.0,0.0,0.0,0.0,0.0,0.0,0.0,0.0,0.0,0.0,0.0,0.0,0.0,0.0,0.0,0.0,0.0,0.0,0.0,0.0,0.0,0.0,0.0,0.0,0.0,0.0,0.0,0.0,0.0,0.0,0.0,0.0,0.0,0.0,0.0,0.0,0.0,0.0,0.0,0.0,0.0,0.0,0.0,0.0,0.0,0.0,0.0,0.0,0.0,0.0,0.0,0.0,0.0,0.0,0.0,0.0,0.0,0.0,0.0,0.0,0.0,0.0,0.0,0.0,0.0,0.0,0.0,0.0,0.0,0.0,0.0,0.0,0.0,0.0,0.0,0.0,0.0,0.0,0.0,0.0,0.0,0.0,0.0,0.0,0.0,0.0,0.0,0.0,0.0,0.0,0.0,1.2982,1.3642,1.4354,1.4436,1.3886,0.9975,0.5925,0.0,0.0,0.0,0.0,0.0,0.0,0.0,0.0,0.0,0.0,0.0,0.0,0.0,0.0,0.0,0.0,0.0,0.0,0.0,0.0,0.0,0.0,0.0,0.0,0.0,0.0,0.0,0.0,0.0,0.0,0.0,0.0,0.0,0.0,0.0,0.0,0.0,0.0,0.0,0.0,0.0,0.0,0.0,0.0,0.0,0.0,0.0,0.0,0.0,0.0,0.0,0.0,0.0,0.0,0.0,0.0,0.0,0.0,0.0,0.0,0.0,0.0,0.0,0.0,0.0,0.0,0.0,0.0,0.0,0.0,0.0,0.0,0.0,0.0,0.0,0.0,0.0,0.0,0.0,0.0,0.0,0.0,0.0,0.0,0.0,0.0,0.0,0.0,0.0,0.0,0.0,0.0,0.0,0.0,0.0,0.0,0.0,0.0,0.0,0.0,0.0,0.0,0.0,0.0,0.0,0.0,0.0,0.0,1.3413,1.3696,1.4551,1.4888,1.4588,1.1677,0.757,0.0,0.0,0.0,0.0,0.0,0.0,0.0,0.0,0.0,0.0,0.0,0.0,0.0,0.0,0.0,0.0,0.0,0.0,0.0,0.0,0.0,0.0,0.0,0.0,0.0,0.0,0.0,0.0,0.0,0.0,0.0,0.0,0.0,0.0,0.0,0.0,0.0,0.0,0.0,0.0,0.0,0.0,0.0,0.0,0.0,0.0,0.0,0.0,0.0,0.0,0.0,0.0,0.0,0.0,0.0,0.0,0.0,0.0,0.0,0.0,0.0,0.0,0.0,0.0,0.0,0.0,0.0,0.0,0.0,0.0,0.0,0.0,0.0,0.0,0.0,0.0,0.0,0.0,0.0,0.0,0.0,0.0,0.0,0.0,0.0,0.0,0.0,0.0,0.0,0.0,0.0,0.0,0.0,0.0,0.0,0.0,0.0,0.0,0.0,0.0,0.0,0.0,0.0,0.0,0.0,0.0,0.0,0.0,1.4015,1.4233,1.4772,1.4863,1.441,1.3671,1.0957,0.0,0.0,0.0,0.0,0.0,0.0,0.0,0.0,0.0,0.0,0.0,0.0,0.0,0.0,0.0,0.0,0.0,0.0,0.0,0.0,0.0,0.0,0.0,0.0,0.0,0.0,0.0,0.0,0.0,0.0,0.0,0.0,0.0,0.0,0.0,0.0,0.0,0.0,0.0,0.0,0.0,0.0,0.0,0.0,0.0,0.0,0.0,0.0,1.5321,0.0,0.0,0.0,0.0,0.0,0.0,0.0,0.0,0.0,0.0,0.0,0.0,0.0,0.0,0.0,0.0,0.0,0.0,0.0,0.0,0.0,0.0,0.0,0.0,0.0,0.0,0.0,0.0,0.0,0.0,0.0,0.0,0.0,0.0,0.0,0.0,0.0,0.0,0.0,0.0,0.0,0.0,0.0,0.0,0.0,0.0,0.0,0.0,0.0,0.0,0.0,0.0,0.0,0.0,0.0,0.0,0.0,0.0,0.0,1.4474,1.4733,1.5036,1.49,1.4334,1.4199,1.2,0.0,0.0,0.0,0.0,0.0,0.0,0.0,0.0,0.0,0.0,0.0,0.0,0.0,0.0,0.0,0.0,0.0,0.0,0.0,0.0,0.0,0.0,0.0,0.0,0.0,0.0,0.0,0.0,0.0,0.0,0.0,0.0,0.0,0.0,0.0,0.0,0.0,0.0,0.0,0.0,0.0,0.0,0.0,0.0,0.0,0.0,0.0,0.0,0.0,0.0,0.0,0.0,0.0,0.0,0.0,0.0,0.0,0.0,0.0,0.0,0.0,0.0,0.0,0.0,0.0,0.0,0.0,0.0,0.0,0.0,0.0,0.0,0.0,0.0,0.0,0.0,0.0,0.0,0.0,0.0,0.0,0.0,0.0,0.0,0.0,0.0,0.0,0.0,0.0,0.0,0.0,0.0,0.0,0.0,0.0,0.0,0.0,0.0,0.0,0.0,0.0,0.0,0.0,0.0,0.0,0.0,0.0,1.443,1.4935,1.5117,1.5202,1.4979,1.4373,1.4042,1.2203,0.8784,0.0,0.0,0.0,0.0,0.0,0.0,0.0,0.0,0.0,0.0,0.0,0.0,0.0,0.0,0.0,0.0,0.0,0.0,0.0,0.0,0.0,0.0,0.0,0.0,0.0,0.0,0.0,0.0,0.0,0.0,0.0,0.0,0.0,0.0,0.0,0.0,0.0,0.0,1.4438,1.4676,0.0,0.0,0.0,0.0,0.0,0.0,0.0,0.0,1.5878,0.0,0.0,0.0,0.0,0.0,0.0,0.0,0.0,0.0,0.0,0.0,0.0,0.0,0.0,0.0,0.0,0.0,0.0,0.0,0.0,0.0,0.0,0.0,0.0,0.0,0.0,0.0,0.0,0.0,0.0,0.0,0.0,0.0,0.0,0.0,0.0,0.0,0.0,0.0,0.0,0.0,0.0,0.0,0.0,0.0,0.0,0.0,0.0,0.0,0.0,0.0,0.0,0.0,0.0,0.0,0.0,1.4727,1.5485,1.565,1.5264,1.5112,1.4929,1.4623,1.3664,1.3164,1.3082,0.0,0.0,0.0,0.0,0.0,0.0,0.0,0.0,0.0,0.0,0.0,0.0,0.0,0.0,0.0,0.0,0.0,0.0,0.0,0.0,0.0,0.0,0.0,0.0,0.0,0.0,0.0,0.0,0.0,0.0,0.0,0.0,0.0,0.0,0.0,0.0,0.0,0.0,0.0,1.4902,1.5035,0.0,0.0,0.0,0.0,0.0,0.0,0.0,0.0,1.7317,0.0,0.0,0.0,0.0,0.0,0.0,0.0,0.0,0.0,0.0,0.0,0.0,0.0,0.0,0.0,0.0,0.0,0.0,0.0,0.0,0.0,0.0,0.0,0.0,0.0,0.0,0.0,0.0,0.0,0.0,0.0,0.0,0.0,0.0,0.0,0.0,0.0,0.0,0.0,0.0,0.0,0.0,0.0,0.0,0.0,0.0,0.0,0.0,0.0,0.0,0.0,0.0,0.0,0.0,0.0,1.5358,1.5519,1.5486,1.5303,1.5214,1.5009,1.4695,1.4176,1.3684,0.0,0.0,0.0,0.0,0.0,0.0,0.0,0.0,0.0,0.0,0.0,0.0,0.0,0.0,0.0,0.0,0.0,0.0,0.0,0.0,0.0,0.0,0.0,0.0,0.0,0.0,0.0,0.0,0.0,0.0,0.0,0.0,0.0,0.0,0.0,0.0,0.0,0.0,0.0,0.0,1.5746,1.5786,1.5915,0.0,0.0,0.0,0.0,0.0,0.0,1.6445,1.765,0.0,0.0,0.0,0.0,0.0,0.0,0.0,0.0,0.0,0.0,0.0,0.0,0.0,0.0,0.0,0.0,0.0,0.0,0.0,0.0,0.0,0.0,0.0,0.0,0.0,0.0,0.0,0.0,0.0,0.0,0.0,0.0,0.0,0.0,0.0,0.0,0.0,0.0,0.0,0.0,0.0,0.0,0.0,0.0,0.0,0.0,0.0,0.0,0.0,0.0,0.0,0.0,0.0,0.0,0.0,1.6087,1.5828,1.5527,1.5336,1.5424,1.528,1.4817,1.4762,1.4121,0.0,0.0,0.0,0.0,0.0,0.0,0.0,0.0,0.0,0.0,0.0,0.0,0.0,0.0,0.0,0.0,0.0,0.0,0.0,0.0,0.0,0.0,0.0,0.0,0.0,0.0,0.0,0.0,0.0,0.0,0.0,0.0,0.0,0.0,0.0,0.0,0.0,0.0,0.0,0.0,0.0,1.6973,1.6963,1.7015,0.0,0.0,0.0,0.0,1.5777,1.6647,0.0,0.0,0.0,0.0,0.0,0.0,0.0,0.0,0.0,0.0,0.0,0.0,0.0,0.0,0.0,0.0,0.0,0.0,0.0,0.0,0.0,0.0,0.0,0.0,0.0,0.0,0.0,0.0,0.0,0.0,0.0,0.0,0.0,0.0,0.0,0.0,0.0,0.0,0.0,0.0,0.0,0.0,0.0,0.0,0.0,0.0,0.0,0.0,0.0,0.0,0.0,0.0,0.0,0.0,0.0,0.0,1.7353,1.7471,1.679,1.5423,1.5895,1.5866,1.5159,1.496,1.4639,0.0,0.0,0.0,0.0,0.0,0.0,0.0,0.0,0.0,0.0,0.0,0.0,0.0,0.0,0.0,0.0,0.0,0.0,0.0,0.0,0.0,0.0,0.0,0.0,0.0,0.0,0.0,0.0,0.0,0.0,0.0,0.0,0.0,0.0,0.0,0.0,0.0,0.0,0.0,0.0,0.0,1.8604,1.8538,1.8586,1.862,0.0,0.0,1.7534,1.6892,1.7384,0.0,0.0,0.0,0.0,0.0,0.0,0.0,0.0,0.0,0.0,0.0,0.0,0.0,0.0,0.0,0.0,0.0,0.0,0.0,0.0,0.0,0.0,0.0,0.0,0.0,0.0,0.0,0.0,0.0,0.0,0.0,0.0,0.0,0.0,0.0,0.0,0.0,0.0,0.0,0.0,0.0,0.0,0.0,0.0,0.0,0.0,0.0,0.0,0.0,0.0,0.0,0.0,0.0,0.0,0.0,1.6503,1.8147,1.7029,1.6256,1.5989,1.5779,1.5542,1.5255,1.5136,1.4766,0.0,0.0,0.0,0.0,0.0,0.0,0.0,0.0,0.0,0.0,0.0,0.0,0.0,0.0,0.0,0.0,0.0,0.0,0.0,0.0,0.0,0.0,0.0,0.0,0.0,0.0,0.0,0.0,0.0,0.0,0.0,0.0,0.0,0.0,0.0,0.0,0.0,0.0,0.0,0.0,0.0,0.0,1.8032,1.8463,0.0,0.0,0.0,1.8153,1.7394,0.0,0.0,0.0,0.0,0.0,0.0,0.0,0.0,0.0,0.0,0.0,0.0,0.0,0.0,0.0,0.0,0.0,0.0,0.0,0.0,0.0,0.0,0.0,0.0,0.0,0.0,0.0,0.0,0.0,0.0,0.0,0.0,0.0,0.0,0.0,0.0,0.0,0.0,0.0,0.0,0.0,0.0,0.0,0.0,0.0,0.0,0.0,0.0,0.0,0.0,0.0,0.0,0.0,0.0,0.0,0.0,0.0,1.875,1.6717,1.5912,1.6458,1.5873,1.5443,1.5306,1.4862,0.0,0.0,0.0,0.0,0.0,0.0,0.0,0.0,0.0,0.0,0.0,0.0,0.0,0.0,0.0,0.0,0.0,0.0,0.0,0.0,0.0,0.0,0.0,0.0,0.0,0.0,0.0,1.468,0.0,0.0,0.0,0.0,0.0,0.0,0.0,0.0,0.0,0.0,0.0,0.0,0.0,0.0,1.9306,1.8328,1.8638,1.8771,0.0,0.0,1.8432,1.7765,1.808,1.8802,0.0,0.0,0.0,0.0,0.0,0.0,0.0,0.0,0.0,0.0,0.0,0.0,0.0,0.0,0.0,0.0,0.0,0.0,0.0,0.0,0.0,0.0,0.0,0.0,0.0,0.0,0.0,0.0,0.0,0.0,0.0,0.0,0.0,0.0,0.0,0.0,0.0,0.0,0.0,0.0,0.0,0.0,0.0,0.0,0.0,0.0,0.0,0.0,0.0,0.0,0.0,0.0,0.0,0.0,1.7748,1.8866,1.7291,1.6445,1.6515,1.6449,1.6072,1.5303,1.3773,1.3552,0.0,0.0,0.0,0.0,0.0,0.0,0.0,0.0,0.0,0.0,0.0,0.0,0.0,0.0,0.0,0.0,0.0,0.0,0.0,0.0,0.0,0.0,0.0,0.0,0.0,0.0,0.0,0.0,0.0,0.0,0.0,0.0,0.0,0.0,0.0,0.0,0.0,0.0,0.0,0.0,0.0,2.1706,2.07,1.9981,1.9578,0.0,1.8837,1.823,1.8155,1.8,1.8471,2.0342,0.0,0.0,0.0,0.0,0.0,0.0,0.0,0.0,0.0,0.0,0.0,0.0,0.0,0.0,0.0,0.0,0.0,0.0,0.0,0.0,0.0,0.0,0.0,0.0,0.0,0.0,0.0,0.0,0.0,0.0,0.0,0.0,0.0,0.0,0.0,0.0,0.0,0.0,0.0,0.0,0.0,0.0,0.0,0.0,0.0,0.0,0.0,0.0,0.0,0.0,0.0,0.0,0.0,1.7702,1.9729,1.7121,1.628,1.7273,1.6316,1.5634,1.5348,1.4736,1.4456,0.0,0.0,0.0,0.0,0.0,0.0,0.0,0.0,0.0,0.0,0.0,0.0,0.0,0.0,0.0,0.0,0.0,0.0,0.0,0.0,0.0,0.0,0.0,0.0,0.0,0.0,0.0,0.0,1.4946,1.5535,1.685,0.0,0.0,0.0,0.0,0.0,0.0,0.0,0.0,0.0,0.0,2.1524,2.1408,2.124,0.0,0.0,2.049,2.0159,1.9948,1.9936,2.0238,2.1065,2.1824,0.0,0.0,0.0,0.0,0.0,0.0,0.0,0.0,0.0,0.0,0.0,0.0,0.0,0.0,0.0,0.0,0.0,0.0,0.0,0.0,0.0,0.0,0.0,0.0,0.0,0.0,0.0,0.0,0.0,0.0,0.0,0.0,0.0,0.0,0.0,0.0,0.0,0.0,0.0,0.0,0.0,0.0,0.0,0.0,0.0,0.0,0.0,0.0,0.0,0.0,0.0,0.0,1.8065,2.0195,1.7497,1.6675,1.7878,1.6486,1.5613,1.5394,1.492,1.4683,0.0,0.0,0.0,0.0,0.0,0.0,0.0,0.0,0.0,0.0,0.0,0.0,0.0,0.0,0.0,0.0,0.0,0.0,0.0,0.0,0.0,0.0,0.0,0.0,0.0,0.0,0.0,0.0,1.5799,1.6815,1.9181,0.0,0.0,0.0,0.0,0.0,0.0,0.0,0.0,0.0,0.0,2.181,2.1812,2.1894,2.1933,2.1953,2.1875,2.1823,2.1814,2.19,2.1978,2.2172,0.0,0.0,0.0,0.0,0.0,0.0,0.0,0.0,0.0,0.0,0.0,0.0,0.0,0.0,0.0,0.0,0.0,0.0,0.0,0.0,0.0,0.0,0.0,0.0,0.0,0.0,0.0,-1.1035,0.0,0.0,-1.1861,0.0,0.0,0.0,0.0,0.0,0.0,0.0,0.0,0.0,0.0,0.0,0.0,0.0,0.0,0.0,0.0,0.0,0.0,0.0,0.0,0.0,0.0,1.9043,2.007,1.8594,1.7847,1.7908,1.7086,1.6234,1.5415,1.3846,1.3722,1.5215,0.0,0.0,0.0,0.0,0.0,0.0,0.0,0.0,0.0,0.0,0.0,0.0,0.0,0.0,0.0,0.0,0.0,0.0,0.0,0.0,0.0,0.0,0.0,0.0,0.0,0.0,1.7316,1.7637,1.8923,0.0,0.0,0.0,0.0,0.0,0.0,0.0,0.0,0.0,2.2495,2.297,2.3038,2.2001,2.1826,2.2189,2.2887,2.2775,2.2851,2.3627,2.353,2.3459,0.0,0.0,0.0,0.0,0.0,0.0,0.0,0.0,0.0,0.0,0.0,0.0,0.0,0.0,0.0,0.0,0.0,0.0,0.0,0.0,0.0,0.0,0.0,0.0,0.0,0.0,0.0,-0.4737,-0.2738,0.0,0.0,0.0,0.0,0.0,0.0,0.0,0.0,0.0,0.0,0.0,1.3107,1.4322,0.0,0.0,0.0,0.0,0.0,0.0,0.0,0.0,0.0,0.0,0.0,0.0,1.9252,2.0779,1.8983,1.8256,1.8765,1.6853,1.5955,1.6248,1.5176,1.4799,1.5279,0.0,0.0,0.0,0.0,0.0,0.0,0.0,0.0,0.0,0.0,0.0,0.0,0.0,0.0,0.0,0.0,0.0,0.0,0.0,0.0,0.0,0.0,0.0,0.0,0.0,1.8189,0.0,0.0,0.0,0.0,0.0,0.0,0.0,0.0,0.0,0.0,0.0,2.3303,2.3769,2.3531,2.3517,2.41,2.4202,2.439,0.0,0.0,0.0,0.0,0.0,0.0,0.0,0.0,0.0,0.0,0.0,0.0,0.0,0.0,2.6936,2.578,2.5293,2.5156,2.5461,0.0,0.0,0.0,0.0,0.0,0.0,0.0,0.0,0.0,0.0,0.0,0.0,0.0,0.0,0.109,0.0,0.2968,0.0,0.0,0.0,0.0,0.0,0.0,0.0,0.0,1.6487,1.6876,1.625,1.7265,1.7307,0.0,1.6696,1.6009,0.0,0.0,0.0,0.0,0.0,0.0,0.0,0.0,1.9717,2.085,1.9592,1.8865,1.8789,1.7187,1.6289,1.625,1.5702,1.5382,1.5334,1.4882,1.4851,0.0,0.0,0.0,0.0,0.0,0.0,0.0,0.0,0.0,0.0,0.0,0.0,0.0,0.0,0.0,0.0,0.0,0.0,0.0,0.0,0.0,0.0,0.0,1.9107,0.0,0.0,0.0,0.0,0.0,0.0,0.0,0.0,0.0,2.5195,2.4144,2.3667,2.4433,2.4126,2.4351,2.5625,0.0,0.0,0.0,0.0,0.0,0.0,0.0,2.7009,2.6736,2.7048,2.74,2.7651,2.7727,2.7864,2.8221,0.0,0.0,2.6596,2.6376,2.6434,2.6708,2.6929,2.711,2.7353,2.7574,2.7671,0.0,0.0,0.0,0.0,0.0,0.0,0.0,0.0,0.2582,0.4881,0.0,0.6397,0.0,0.0,0.0,0.0,1.2928,1.6191,0.0,0.0,1.7759,1.8202,1.7702,1.7722,1.766,1.7531,1.8102,1.8316,1.8025,1.5015,0.0,0.0,0.0,0.0,0.0,0.0,2.0468,2.0293,2.0412,1.9692,1.8125,1.8008,1.7168,1.5488,1.5386,1.5398,1.5376,1.5206,1.516,1.5296,1.5214,0.0,0.0,0.0,0.0,0.0,0.0,0.0,0.0,0.0,0.0,0.0,0.0,0.0,0.0,0.0,0.0,0.0,0.0,0.0,0.0,2.0208,0.0,0.0,0.0,0.0,0.0,0.0,0.0,0.0,0.0,2.4303,2.5178,2.4946,2.4712,2.4532,0.0,0.0,0.0,0.0,2.6482,2.7665,2.7824,2.8099,2.8828,2.8938,2.87,2.7952,0.0,0.0,2.8563,2.7951,2.7702,2.8482,2.8023,2.7541,2.8049,2.7998,2.8191,2.8877,2.8292,2.8021,2.8593,2.809,2.7502,-1.8496,0.0,0.0,0.0,0.0,-0.7404,-0.1494,0.3822,0.829,1.0835,1.19,1.2523,0.0,0.0,0.0,0.0,0.0,0.0,1.8151,1.7856,1.8533,1.8447,1.7732,1.8335,1.8276,1.7689,1.8439,1.8479,1.778,1.6836,1.7034,1.8274,0.0,0.0,0.0,0.0,2.0365,2.0978,2.0726,2.0038,1.8926,1.832,1.7167,1.5441,1.5356,1.532,1.5329,1.5273,1.5233,1.523,1.5795,0.0,0.0,0.0,0.0,0.0,0.0,0.0,0.0,0.0,0.0,0.0,0.0,0.0,0.0,0.0,0.0,0.0,0.0,0.0,2.0324,2.0891,2.1053,0.0,0.0,0.0,0.0,0.0,0.0,0.0,0.0,0.0,2.7025,2.5637,2.4864,0.0,0.0,2.6472,2.7346,2.7369,2.7609,2.8512,2.8668,0.0,2.8957,2.8975,2.892,2.8686,2.8873,2.9055,2.9145,2.9101,2.9091,2.9326,2.9191,2.9058,2.9129,2.8245,2.7638,2.7763,2.7985,2.8246,2.8468,2.8736,2.8885,-1.1978,-1.4962,-1.5149,-1.312,-0.9131,-0.1583,0.434,0.8978,1.2829,1.5027,1.59,1.6464,1.6092,1.5163,1.6514,0.0,0.0,0.0,1.9711,1.9261,2.0085,2.0029,1.9263,1.9682,1.9441,1.8659,1.9137,1.9124,1.8585,1.824,1.8912,2.0399,0.0,0.0,2.0703,2.0413,2.0487,2.1017,2.0733,2.0135,1.9274,1.8077,1.6994,1.6074,1.5521,1.5378,1.5727,1.5368,1.5163,1.5173,1.5658,1.6133,0.0,0.0,0.0,0.0,0.0,0.0,0.0,0.0,0.0,0.0,0.0,2.0283,2.0225,0.0,0.0,0.0,2.0345,2.0487,2.0767,2.1272,0.0,0.0,0.0,0.0,0.0,0.0,0.0,2.727,2.6679,2.6616,2.7576,2.6438,2.5837,2.6713,2.6734,2.6929,2.7743,0.0,2.7867,2.8652,2.8761,2.8828,2.897,2.8975,2.8975,2.8975,2.9115,2.9237,2.9251,2.9585,2.988,2.993,3.0158,3.0367,3.0373,2.9532,2.8688,2.8297,2.8501,2.8856,2.9195,2.9607,2.9834,-0.39,-0.2422,-0.439,-0.4245,-0.2062,0.5956,1.1105,1.4029,1.6361,1.7751,1.8398,1.8474,1.8924,1.9584,2.0158,0.0,1.9926,2.1441,2.1543,2.0545,2.1998,2.2257,2.1564,2.1353,2.0877,2.0084,2.0115,2.0134,2.0059,1.9303,1.9809,2.1429,2.0212,1.9728,2.0084,2.0611,2.0779,2.0607,2.0525,2.0074,1.9156,1.756,1.6786,1.6961,1.5883,1.5681,1.6386,1.5655,1.5207,1.5284,1.5284,1.5746,1.6688,0.0,0.0,0.0,0.0,0.0,0.0,0.0,0.0,0.0,0.0,0.0,0.0,0.0,0.0,2.0399,2.0442,0.0,2.1408,2.1536,0.0,0.0,0.0,2.4941,2.7937,2.7418,2.6892,2.6943,0.0,0.0,2.7227,2.7256,2.7252,2.7202,2.6979,2.7073,2.7819,2.7631,2.7619,2.8394,2.8414,2.8554,2.8923,2.9067,2.9159,2.9182,2.914,2.9292,2.9347,2.9848,3.0246,3.0325,3.0889,3.1372,3.1391,3.1267,3.1062,2.9975,2.9647,2.9747,3.029,3.0296,3.025,0.06,0.1681,0.5907,0.5661,0.2932,0.8832,1.33,1.6474,1.8671,1.9533,1.9335,1.8919,1.9243,2.0191,2.1602,2.2207,2.2126,2.2362,2.2339,2.2072,2.2244,2.2223,2.2033,2.1966,2.159,2.0956,2.1123,2.0878,2.0268,2.0046,2.018,2.057,2.0369,2.0931,2.2149,2.1146,2.0884,2.1405,2.0819,1.9965,1.8919,1.7989,1.728,1.6779,1.6884,1.6971,1.7084,1.6857,1.6763,1.6772,1.6939,1.7389,1.8236,1.8435,0.0,0.0,0.0,0.0,0.0,0.0,0.0,0.0,0.0,2.178,2.0449,0.0,2.2019,0.0,2.1548,2.1905,2.2064,2.2677,0.0,0.0,2.4448,2.6287,2.6968,2.7735,2.7998,2.7424,2.6991,2.6994,2.7636,2.7725,2.7642,2.7321,2.7454,2.7769,2.8219,2.7992,2.802,2.8626,2.8562,2.8546,2.8978,2.9549,2.9898,2.9934,3.0411,3.0815,3.0815,3.0962,3.1109,3.1109,3.1237,3.1391,3.144,3.1397,3.1336,3.1029,3.0701,3.0405,3.0338,3.0206,3.0184,0.7609,0.9234,1.3237,1.3303,1.1127,1.45,1.7215,1.9323,2.0615,2.0986,2.0702,2.0401,2.0642,2.1374,2.2249,2.2688,2.2784,2.2921,2.3004,2.302,2.3145,2.3034,2.2678,2.2607,2.2174,2.147,2.1347,2.1264,2.1155,2.0496,2.0411,2.0868,2.056,2.1282,2.2871,2.1718,2.1482,2.2244,2.1429,2.0491,1.9517,1.868,1.8179,1.8062,1.7596,1.7466,1.7765,1.7446,1.7262,1.7307,1.7485,1.8014,1.8889,1.9062,1.9526,0.0,0.0,0.0,0.0,0.0,0.0,0.0,0.0,0.0,0.0,0.0,2.2699,2.2407,2.2319,2.2607,2.3468,2.3637,2.3529,2.3125,2.5245,2.6972,2.7587,2.8064,2.8219,2.7941,2.7515,2.7331,2.7609,2.7813,2.7678,2.7115,2.7547,2.784,2.7643,2.7452,2.7565,2.8142,2.8047,2.8237,2.9107,2.9483,2.9934,3.0577,3.0797,3.098,3.1329,3.1696,3.1935,3.1953,3.221,3.2394,3.2254,3.219,3.2074,3.149,3.1314,3.1169,3.103,3.0819,3.0688,1.4612,1.6944,1.8193,1.9007,1.9575,2.0749,2.148,2.1928,2.2279,2.2342,2.2176,2.2387,2.2577,2.2719,2.2661,2.274,2.2949,2.3455,2.3705,2.3842,2.4262,2.4145,2.3568,2.3271,2.2758,2.1984,2.1531,2.1639,2.2235,2.101,2.0874,2.1654,2.0875,2.1349,2.3033,2.2341,2.2282,2.295,2.2281,2.1552,2.0764,1.9788,1.9564,2.0047,1.8369,1.7764,1.8447,1.7833,1.7506,1.7581,1.7794,1.8305,1.9188,1.9289,1.9702,0.0,2.0552,0.0,0.0,0.0,0.0,0.0,0.0,0.0,0.0,2.2777,2.3004,2.3805,2.3108,2.334,2.5122,2.4602,2.4218,2.439,2.5703,2.725,2.8736,2.845,2.8134,2.8375,2.8085,2.7771,2.7474,2.7704,2.7607,2.7115,2.7487,2.7695,2.7051,2.6971,2.7139,2.7415,2.7495,2.821,2.9337,2.9399,2.9732,3.0962,3.0889,3.065,3.1476,3.2067,3.2535,3.2655,3.3077,3.3387,3.3168,3.3063,3.2696,3.1732,3.1654,3.1759,3.1724,3.1479,3.1424,1.5429,1.6993,2.0029,2.1192,2.1136,2.3283,2.349,2.2461,2.3749,2.3784,2.307,2.4082,2.4091,2.3404,2.4138,2.4514,2.4557,2.4547,2.4907,2.5499,2.4669,2.4523,2.4947,2.4282,2.3621,2.2984,2.3382,2.3098,2.2227,2.2529,2.2565,2.2334,2.1675,2.2216,2.3774,0.0,0.0,0.0,2.3377,2.3314,2.2683,2.2149,2.1931,2.2004,2.0164,0.0,1.9125,1.8996,1.8976,1.9151,1.9347,0.0,0.0,0.0,0.0,0.0,0.0,0.0,0.0,0.0,0.0,0.0,2.3779,2.3245,2.274,2.2931,2.3705,2.5129,2.4983,2.5224,2.6206,2.6188,2.5844,2.5357,2.6059,2.7232,2.8778,2.8852,2.8711,2.8411,2.8085,2.7886,2.7806,2.7858,2.784,2.7648,2.7811,2.784,2.7695,2.7636,2.7924,2.8528,2.8567,2.8998,2.9953,2.9972,3.0155,3.1109,3.1311,3.1458,3.2093,3.2174,3.2379,3.285,3.2906,3.275,3.2638,3.2637,3.2557,3.2271,3.2009,3.1725,3.1494,3.1342,3.1316,1.7852,1.9104,2.1876,2.2995,0.0,2.462,2.4711,2.3813,2.474,2.4923,2.4642,2.5245,2.5423,2.5171,2.5185,2.5246,2.5322,2.4762,2.4718,2.5074,2.4487,2.441,2.4815,2.441,2.4026,2.3712,2.4044,2.3948,2.3484,2.3352,2.3291,2.3294,2.2549,2.2824,2.4072,2.4521,2.4519,2.4094,2.3986,2.4238,2.4774,2.3196,2.2448,2.2703,2.1494,0.0,0.0,0.0,0.0,0.0,0.0,0.0,0.0,2.1568,0.0,2.2261,2.2255,2.2636,2.3451,2.345,2.3721,2.4469,2.4679,2.4433,2.3607,2.4076,2.4745,2.5474,2.5823,2.6237,2.6813,2.6881,2.6895,2.685,2.7073,2.7736,2.874,2.8973,2.8833,2.8466,2.812,2.7903,2.7895,2.8049,2.8057,2.7936,2.8228,2.8362,2.817,2.8014,2.8071,2.8433,2.9006,2.943,2.9771,2.9709,3.0063,3.1017,3.1072,3.1164,3.188,3.2182,3.2292,3.2195,3.2427,3.2634,3.1791,3.1883,3.2073,3.1897,3.1666,3.1442,3.1286,3.123,3.1269,2.0224,2.1461,2.3415,2.4386,2.4659,2.5459,2.5612,2.5298,2.5602,0.0,0.0,2.6153,2.6385,2.6562,2.5798,2.5467,2.5447,2.4783,2.4487,2.4468,2.4576,2.4557,2.441,2.4575,2.4465,2.4208,2.4375,2.4558,2.4708,2.3959,2.3821,2.4149,2.3438,2.3398,2.4149,2.5601,2.6024,2.5322,2.4796,2.5153,2.64,2.3931,2.2759,2.3213,2.2473,2.1802,2.1355,2.2099,2.2242,2.1596,2.2365,2.2866,2.2879,2.2939,2.3028,2.3185,2.3191,2.3545,2.427,2.4201,2.4406,2.516,2.5487,2.5448,2.4905,2.5466,2.5856,2.5821,2.6408,2.6999,2.7453,2.7519,2.7737,2.829,2.8193,2.8336,2.891,2.8986,2.8882,2.8542,2.8268,2.8102,2.8148,2.8367,2.8412,2.8255,2.8601,2.8888,2.8559,2.83,2.8165,2.829,2.8925,2.9507,2.9635,2.9333,2.9622,3.0834,3.0485,3.0301,3.1035,3.1682,3.1719,3.1268,3.2026,3.204,3.113,3.1322,3.1568,3.1269,3.119,3.119,3.119,3.119,3.119,2.1074,2.2571,2.4084,2.487,2.5195,2.6115,2.6505,2.6483,2.6487,2.633,2.6045,2.6736,2.6495,2.5628,2.5634,2.528,2.4718,2.5243,2.5504,2.5523,2.6035,2.5897,2.5293,2.5933,2.5529,2.4337,2.506,2.5149,2.4615,2.4685,2.4808,2.479,2.4226,2.3995,2.4168,2.5024,2.5418,2.5322,2.6619,2.6976,2.627,2.5215,2.4626,2.4464,2.3067,2.2218,2.2149,2.23,2.2379,2.2416,2.256,2.2699,2.281,2.2868,2.3167,2.386,2.3944,2.4216,2.4845,2.4885,2.5069,2.556,2.5505,2.5682,2.6252,2.6399,2.6765,2.7365,2.7548,2.7948,2.8617,2.8686,2.8722,2.885,2.885,2.8892,2.8994,2.9007,2.8965,2.8879,2.8892,2.8797,2.8782,2.8855,2.8863,2.8839,2.8905,2.8965,2.8894,2.8876,2.8858,2.8851,2.8949,2.9379,2.9747,2.9467,2.9457,3.021,2.9732,2.9512,3.0228,3.036,3.0459,3.1044,3.115,3.1063,3.097,3.121,3.1291,3.119,3.119,3.119,3.119,3.1224,3.1224,2.2625,2.3615,2.4601,2.5399,2.6052,2.6505,2.6825,2.6982,2.6784,2.6579,2.6381,2.6494,2.6359,2.6043,2.5686,2.5462,2.5322,2.5463,2.5665,2.5886,2.6368,2.641,2.6117,2.6429,2.6227,2.5531,2.5616,2.5554,2.5311,2.5113,2.5065,2.5124,2.4879,2.4986,2.5447,2.5813,2.5995,2.6023,2.622,2.609,2.5543,2.5145,2.4955,2.4917,2.4151,2.361,2.3288,2.3689,2.3769,2.3429,2.383,2.408,2.4159,2.4149,2.4341,2.4716,2.4755,2.5071,2.5825,2.566,2.5725,2.6152,2.6105,2.6594,2.7824,2.7512,2.7402,2.7787,2.8172,2.8613,2.8938,2.8975,2.8975,2.8975,2.8975,2.8975,2.8975,2.8975,2.8975,2.8975,2.8975,2.8975,2.8975,2.8975,2.8975,2.8975,2.8975,2.8975,2.8975,2.8975,2.8989,2.9028,2.9331,2.9549,2.9577,2.9278,2.9177,2.9489,2.925,2.9182,2.9549,2.9655,2.9791,2.9609,3.0173,3.0612,3.0306,3.0695,3.1072,3.119,3.119,3.119,3.1207,3.1478,3.163,2.3887,2.4468,2.5123,2.5905,2.6691,2.6791,2.7036,2.7247,2.676,2.6535,2.6499,2.6363,2.6322,2.6282,2.5733,2.5536,2.5556,2.5463,2.5552,2.5901,2.6606,2.6822,2.6688,2.7032,2.6979,2.6479,2.6283,2.6094,2.574,2.5298,2.5152,2.5284,2.5313,2.5649,2.6294,2.6333,2.6352,2.6285,2.5533,2.51,2.5062,2.4967,2.4975,2.5046,2.5038,2.4845,2.4428,2.4966,2.5101,2.4745,2.5255,2.5659,2.588,2.587,2.589,2.589,2.589,2.6158,2.671,2.6441,2.6407,2.6905,2.6912,2.7475,2.8718,2.8448,2.8062,2.8154,2.8631,2.8975,2.8975,2.8975,2.8975,2.8975,2.8975,2.8975,2.8975,2.8975,2.8975,2.8975,2.8975,2.8975,2.8975,2.8975,2.8975,2.8975,2.8975,2.8975,2.8975,2.8975,2.8975,2.9104,2.9525,2.9641,2.9085,2.9017,2.8994,2.8975,2.8994,2.9035,2.914,2.9586,2.9587,2.8899,2.9929,3.0633,2.9879,3.0513,3.127,3.1376,3.1278,3.1258,3.1495,3.1788,3.2139,2.4238,2.5137,2.5781,2.6339,2.6724,2.7083,2.7272,2.7217,2.6436,2.6069,2.6171,2.6885,2.6542,2.5642,2.5643,2.5254,2.4534,2.5107,2.5436,2.5713,2.721,2.7468,2.6917,2.8484,2.8145,2.63,2.7172,2.6814,2.5304,2.525,2.5284,2.5303,2.5313,2.5388,2.5519,2.5534,2.5561,2.5601,2.5498,2.5388,2.5284,2.5264,2.5264,2.5293,2.5264,2.5254,2.5139,2.5264,2.564,2.6294,2.6409,2.6833,2.7499,2.7642,2.764,2.7601,2.764,2.7654,2.7498,2.7078,2.7158,2.7866,2.7735,2.8026,2.8883,2.8925,2.8865,2.8888,2.892,2.8975,2.8975,2.8975,2.8998,2.9021,2.9017,2.8975,2.9017,2.8975,2.8975,2.8975,2.9072,2.8994,2.909,2.9108,2.903,2.8975,2.8975,2.8975,2.8975,2.8975,2.8975,2.8975,2.9104,2.9104,2.8975,2.8975,2.8975,2.8975,2.8975,2.8975,2.9049,2.9104,2.9077,2.917,2.9978,3.0635,3.0956,3.146,3.1668,3.1719,3.1603,3.1438,3.1947,3.2192,3.2342,2.5293,2.5709,2.5965,2.6269,2.6656,2.7344,2.7776,2.7824,2.6552,2.6126,2.6253,2.5784,2.5201,2.4723,2.4797,2.4716,2.4602,2.5136,2.5899,2.6709,2.7695,2.8222,2.8503,2.8668,2.8301,2.7349,2.7191,2.6661,2.5929,2.5569,2.5415,2.5415,2.5415,2.5434,2.5446,2.5471,2.5488,2.5513,2.5471,2.5418,2.5366,2.5356,2.5367,2.5361,2.5332,2.5313,2.5341,2.5764,2.6236,2.6601,2.7063,2.7535,2.7864,2.7901,2.7898,2.7923,2.836,2.8315,2.765,2.774,2.792,2.811,2.7904,2.8136,2.8902,2.8975,2.8975,2.8975,2.8975,2.8975,2.8975,2.8975,2.9044,2.9178,2.9089,2.9085,2.9299,2.9108,2.8975,2.903,2.942,2.9714,2.9714,2.9714,2.9512,2.914,2.8998,2.9017,2.8998,2.8975,2.8975,2.8975,2.8975,2.8975,2.8975,2.8975,2.8975,2.8975,2.8975,2.8975,2.8975,2.8975,2.9009,2.8977,2.9665,3.0263,3.0515,3.1159,3.1582,3.1863,3.2178,3.2176,3.2923,3.335,3.3907,2.6158,2.6227,2.6315,2.6556,2.6946,2.7712,2.8058,2.7908,2.67,2.6239,2.6199,2.4874,2.4303,2.4339,2.4321,2.4464,2.4741,2.5076,2.6041,2.7414,2.7811,2.8457,2.9252,2.8886,2.8346,2.7835,2.7035,2.6472,2.6176,2.5743,2.5513,2.5513,2.5513,2.5517,2.5511,2.5522,2.5648,2.587,2.5813,2.5892,2.6116,2.6104,2.5873,2.5467,2.5582,2.5678,2.5678,2.6506,2.7104,2.7294,2.789,2.8332,2.8582,2.8582,2.8579,2.8622,2.9118,2.9144,2.8409,2.8707,2.8804,2.8631,2.8383,2.8489,2.8964,2.9044,2.8975,2.8975,2.8975,2.8975,2.8975,2.8975,2.9093,2.9351,2.9259,2.9336,2.9453,2.9312,2.9376,2.9595,3.0123,3.0502,3.0654,3.0565,3.0194,2.9731,2.9388,2.9178,2.9185,2.9212,2.9214,2.9185,2.916,2.9067,2.9021,2.8975,2.8975,2.8975,2.8975,2.8975,2.8975,2.8975,2.8994,2.8991,2.9424,2.999,3.0715,3.1261,3.1661,3.2216,3.2535,3.2732,3.3336,3.4127,3.496,2.6556,2.6708,2.7083,2.7482,2.788,2.8246,2.7969,2.7381,2.6794,2.6294,2.5727,2.4869,2.461,2.4727,2.4629,2.4551,2.4569,2.4748,2.5702,2.7132,2.7514,2.7946,2.8541,2.8931,2.824,2.6925,2.6948,2.6621,2.5761,2.5571,2.5513,2.5532,2.5595,2.5559,2.5662,2.5687,2.5983,2.6731,2.6758,2.709,2.7783,2.783,2.6985,2.5698,2.6172,2.6597,2.6651,2.7439,2.822,2.894,2.9006,2.941,3.014,3.0206,3.0167,3.0206,3.0263,3.0283,3.0163,2.9937,2.9821,2.9794,2.9383,2.9297,2.9251,2.9112,2.9017,2.9017,2.9021,2.904,2.9044,2.9067,2.916,2.9412,2.9656,2.97,2.9548,2.9737,3.0262,3.0809,3.1054,3.1374,3.1977,3.143,3.1092,3.0735,3.0189,2.9701,2.9719,2.9691,2.9612,2.9587,2.9474,2.931,2.9067,2.8975,2.8975,2.8975,2.8975,2.8998,2.8975,2.8975,2.897,2.908,2.9509,3.0161,3.1038,3.1656,3.2026,3.2429,3.2656,3.2983,3.3559,3.4042,3.4882,2.7172,2.753,2.8022,2.8355,2.853,2.9012,2.8739,2.7921,2.7251,2.6578,2.5831,2.5051,2.4737,2.482,2.4892,2.482,2.4712,2.4755,2.5476,2.6694,2.74,2.8193,2.8924,2.8694,2.8229,2.7532,2.6658,2.6334,2.6451,2.5925,2.5896,2.6347,2.6399,2.6389,2.6466,2.6889,2.7356,2.762,2.7615,2.7724,2.8035,2.7967,2.7594,2.7039,2.7277,2.7451,2.7458,2.825,2.8828,2.9113,2.9602,3.0083,3.0359,3.0398,3.0398,3.0398,3.0398,3.0398,3.0355,3.0037,2.9813,2.978,2.9397,2.916,2.9134,2.9062,2.9067,2.9203,2.9246,2.9291,2.9395,2.9353,2.9395,2.9715,2.9792,2.9867,3.0021,3.0156,3.0541,3.1352,3.2014,3.2676,3.2826,3.2713,3.2336,3.1788,3.1034,3.06,3.0426,3.0106,2.9794,2.9723,2.9662,2.957,2.9476,2.9163,2.8975,2.8975,2.8998,2.9017,2.9017,2.9021,2.9021,2.9021,2.9462,2.9819,3.0576,3.1631,3.2081,3.2498,3.2726,3.3064,3.3676,3.4352,3.5211,2.7288,2.7522,2.7922,2.8135,2.8236,2.8708,2.8363,2.7522,2.7005,2.6384,2.5653,2.5115,2.4929,2.5009,2.5146,2.5186,2.5034,2.5023,2.5562,2.6522,2.7191,2.7861,2.8384,2.8257,2.8018,2.7735,2.6949,2.6798,2.7231,2.6763,2.6618,2.6848,2.7133,2.7113,2.6996,2.7647,2.8171,2.8371,2.8371,2.847,2.8706,2.8724,2.8695,2.871,2.8714,2.8544,2.8324,2.9098,2.955,2.9613,3.0102,3.0398,3.0398,3.0398,3.0398,3.0398,3.0398,3.0355,3.0254,2.9973,2.9782,2.9696,2.9418,2.9209,2.9209,2.9209,2.9332,2.9455,2.9494,2.957,2.9713,2.9678,2.9713,2.9939,2.9877,2.9969,3.0338,3.038,3.0906,3.1987,3.3263,3.3933,3.403,3.3819,3.3268,3.2526,3.1727,3.1251,3.1131,3.0772,3.049,3.0636,3.0487,3.0362,3.0162,2.9814,2.936,2.928,2.92,2.9156,2.9285,2.9248,2.9208,2.9149,2.9251,2.9517,3.0228,3.1366,3.2045,3.2485,3.2765,3.3058,3.3835,3.4761,3.5512,2.6795,2.6708,2.6637,2.6897,2.7121,2.7389,2.6754,2.6105,2.6067,2.5816,2.5222,2.5097,2.5185,2.5369,2.542,2.5473,2.5574,2.5599,2.5935,2.6621,2.6904,2.7054,2.7254,2.8037,2.7932,2.7283,2.7776,2.8049,2.8096,2.7823,2.7448,2.7151,2.7768,2.7756,2.6887,2.785,2.8526,2.9022,2.9157,2.9509,3.0256,3.0198,3.0167,3.0225,3.0206,2.9852,2.9159,2.9941,3.0337,3.0325,3.0371,3.0398,3.0398,3.0398,3.0398,3.0398,3.0398,3.0267,3.0075,3.0013,2.9893,2.9763,2.9678,2.9606,2.9588,2.9625,2.9661,2.9696,2.9695,2.978,2.9954,3.0079,3.0132,3.0052,3.0204,3.0352,3.0541,3.0533,3.109,3.2737,3.4279,3.5359,3.5282,3.476,3.3997,3.3248,3.2461,3.1949,3.1987,3.1776,3.2039,3.2301,3.1886,3.1325,3.0944,3.0509,3.0019,2.9624,2.949,2.945,2.9843,2.9956,2.9932,2.985,2.9513,2.9719,2.9751,3.0834,3.1678,3.2173,3.254,3.3054,3.3807,3.466,3.5524,2.6722,2.6842,2.6967,2.7052,2.7142,2.7384,2.7043,2.6365,2.6388,2.5964,2.5329,2.5281,2.5391,2.5493,2.5526,2.5819,2.6378,2.6424,2.6305,2.6266,2.7264,2.7803,2.7984,2.8727,2.8686,2.7874,2.7386,2.7873,2.8571,2.7807,2.7536,2.8364,2.8691,2.8709,2.8385,2.9215,2.983,2.9993,3.0009,3.016,3.0379,3.0398,3.0398,3.0398,3.0398,3.0256,3.0025,3.0282,3.0417,3.0398,3.0398,3.0398,3.0398,3.0398,3.0398,3.0398,3.0398,3.0367,3.0286,3.0089,2.9965,2.9893,2.978,2.9695,2.9696,2.9713,2.9763,2.9877,2.9908,3.0018,3.0305,3.0842,3.1111,3.1181,3.1335,3.1559,3.2013,3.2545,3.3199,3.3757,3.4814,3.543,3.5468,3.5122,3.4911,3.4526,3.3801,3.3333,3.3314,3.2821,3.2558,3.2782,3.2442,3.2377,3.211,3.1824,3.1416,3.0915,3.0563,3.0377,3.0659,3.0753,3.0735,3.0553,3.0183,2.995,2.9982,3.0436,3.1415,3.2107,3.2647,3.3172,3.3697,3.4576,3.5613,2.6243,2.6223,2.6325,2.634,2.6401,2.6943,2.6761,2.6154,2.6446,2.612,2.5428,2.5371,2.5453,2.5504,2.5517,2.5989,2.6743,2.6848,2.6747,2.6679,2.7653,2.8281,2.8375,2.9088,2.9435,2.9056,2.8475,2.8701,2.9594,2.8714,2.8515,2.909,2.9497,2.9418,2.9228,2.9929,3.0398,3.0398,3.0379,3.0398,3.0398,3.0398,3.0398,3.0398,3.0398,3.0398,3.0398,3.0398,3.0398,3.0398,3.0398,3.0398,3.0398,3.0398,3.0398,3.0398,3.0379,3.0355,3.0254,3.0095,2.9969,2.9893,2.9845,2.9813,2.9829,2.988,3.0037,3.0122,3.015,3.0343,3.0867,3.1314,3.1929,3.2602,3.2244,3.2487,3.3122,3.3808,3.4122,3.4334,3.4949,3.5391,3.5507,3.5488,3.5334,3.5045,3.4551,3.4218,3.4109,3.3724,3.3609,3.3551,3.3513,3.3442,3.334,3.3102,3.2845,3.2373,3.1892,3.1754,3.1815,3.1724,3.1667,3.1484,3.1143,3.0917,3.0895,3.1099,3.1734,3.2262,3.2815,3.3216,3.3802,3.5039,3.6068,2.5423,2.5018,2.501,2.5063,2.5102,2.6132,2.6094,2.5337,2.6165,2.6197,2.5601,2.5448,2.5499,2.5546,2.576,2.6226,2.679,2.714,2.7626,2.8092,2.8547,2.8642,2.8736,2.9275,2.9771,3.023,3.0131,3.0221,3.0243,2.9943,2.9967,2.9393,2.9952,3.0006,2.9563,3.0025,3.0398,3.0398,3.0398,3.0398,3.0398,3.0398,3.0398,3.0398,3.0398,3.0398,3.0398,3.0398,3.0398,3.0398,3.0398,3.0398,3.0398,3.0398,3.0398,3.0398,3.0398,3.0299,3.0089,3.0089,3.0003,2.988,2.9973,3.0013,3.0061,3.0196,3.0407,3.0547,3.0559,3.0879,3.1564,3.1987,3.2679,3.3776,3.332,3.316,3.375,3.4193,3.441,3.4507,3.5007,3.5507,3.5507,3.5507,3.5161,3.4718,3.4474,3.4474,3.4416,3.4455,3.471,3.4647,3.4468,3.4391,3.4237,3.4109,3.3871,3.3786,3.3359,3.3219,3.3064,3.2951,3.2657,3.2448,3.2179,3.1974,3.1815,3.1927,3.2154,3.2654,3.3049,3.33,3.4088,3.53,3.6264,2.5232,2.501,2.4991,2.4986,2.5063,2.6001,2.5945,2.5386,2.6215,2.6582,2.6362,2.5768,2.594,2.6675,2.6726,2.7094,2.7675,2.8245,2.904,2.978,2.995,3.0005,2.9955,3.0062,3.0253,3.0412,2.995,2.9781,3.0294,2.9852,2.9717,3.0083,3.0237,3.0314,3.016,3.0263,3.0379,3.0398,3.0398,3.0398,3.0398,3.0398,3.0398,3.0398,3.0398,3.0398,3.0398,3.0398,3.0398,3.0398,3.0398,3.0398,3.0398,3.0398,3.0398,3.0398,3.0398,3.0386,3.0311,3.0279,3.0254,3.0228,3.0228,3.0299,3.0299,3.0355,3.0706,3.116,3.1371,3.1698,3.2487,3.3141,3.4026,3.4872,3.4609,3.4532,3.4872,3.5103,3.5161,3.5199,3.5372,3.5468,3.5507,3.5488,3.5391,3.518,3.507,3.507,3.4974,3.5012,3.5166,3.5262,3.518,3.518,3.5109,3.4993,3.4955,3.5051,3.4889,3.476,3.4596,3.4454,3.4008,3.3579,3.3252,3.3006,3.2673,3.2583,3.2896,3.3269,3.3814,3.4336,3.4586,3.5445,3.6352,2.5251,2.5545,2.5564,2.5774,2.6149,2.6745,2.6546,2.613,2.6755,2.6755,2.6371,2.6246,2.6437,2.691,2.7055,2.7634,2.8454,2.8927,2.9612,3.0327,3.0432,3.0463,3.0498,3.0481,3.0452,3.0414,2.9916,2.9967,3.0275,2.9871,2.9987,3.0263,3.0398,3.0398,3.0359,3.0398,3.0398,3.0398,3.0398,3.0398,3.0398,3.0398,3.0398,3.0398,3.0398,3.0398,3.0398,3.0398,3.0398,3.0398,3.0398,3.0398,3.0398,3.0398,3.0398,3.0398,3.0398,3.0398,3.0398,3.0398,3.0398,3.0398,3.0398,3.0609,3.0859,3.0968,3.1326,3.2064,3.2167,3.2609,3.3372,3.4218,3.4911,3.5353,3.5507,3.5507,3.5507,3.5449,3.5488,3.5507,3.5507,3.5507,3.5507,3.5507,3.5507,3.5468,3.5411,3.5416,3.543,3.5507,3.5507,3.5507,3.5507,3.5411,3.5353,3.5262,3.5224,3.5397,3.5449,3.5488,3.5432,3.5324,3.4964,3.4432,3.4226,3.4016,3.3713,3.3582,3.3903,3.4356,3.4927,3.5229,3.5437,3.6046,3.6901,2.5373,2.6199,2.6199,2.6638,2.7217,2.772,2.7187,2.6678,2.739,2.7063,2.6159,2.6504,2.6783,2.685,2.7651,2.8063,2.9074,2.9259,2.9748,3.024,3.0417,3.0441,3.0482,3.043,3.0414,3.0383,3.039,3.034,3.0359,3.0352,3.0359,3.0398,3.0398,3.0398,3.0398,3.0398,3.0398,3.0398,3.0398,3.0398,3.0398,3.0398,3.0398,3.0398,3.0398,3.0398,3.0398,3.0398,3.0398,3.0398,3.0398,3.0475,3.0494,3.0552,3.0667,3.0814,3.0929,3.0879,3.0744,3.0898,3.0794,3.0871,3.0833,3.0948,3.1641,3.1826,3.2165,3.2987,3.3019,3.3474,3.4237,3.5064,3.5353,3.5507,3.5507,3.5507,3.5507,3.5507,3.5507,3.5507,3.5507,3.5507,3.5507,3.5507,3.5507,3.5507,3.5507,3.5507,3.5507,3.5507,3.5507,3.5507,3.5507,3.5488,3.5488,3.5468,3.5449,3.5488,3.5488,3.5493,3.5479,3.5403,3.5369,3.5159,3.4854,3.4795,3.4818,3.484,3.4889,3.499,3.5264,3.5661,3.6121,3.7099,3.7989,2.5318,2.5512,2.5512,2.5608,2.6002,2.7245,2.7024,2.5793,2.7236,2.7544,2.711,2.6214,2.6886,2.8506,2.9052,2.9525,2.9294,2.9737,3.0244,3.0321,3.0398,3.0402,3.0417,3.039,3.039,3.0398,3.0398,3.0398,3.0398,3.0398,3.0398,3.0398,3.0398,3.0398,3.0398,3.0398,3.0398,3.0398,3.0398,3.0398,3.0398,3.0398,3.0398,3.0398,3.0398,3.0398,3.0398,3.0398,3.0398,3.0398,3.0494,3.0852,3.1237,3.1391,3.1641,3.2045,3.2237,3.2295,3.2333,3.2218,3.2333,3.2199,3.216,3.2429,3.2564,3.2653,3.3057,3.3712,3.393,3.4314,3.5103,3.5372,3.5565,3.5603,3.5641,3.5603,3.5507,3.5507,3.5507,3.5507,3.5507,3.5507,3.5507,3.5507,3.5507,3.5507,3.5507,3.5507,3.5507,3.5507,3.5507,3.5507,3.5507,3.5507,3.5507,3.5507,3.5507,3.5507,3.5507,3.5507,3.5479,3.5479,3.5432,3.5446,3.5412,3.5397,3.532,3.5339,3.5235,3.5402,3.5589,3.6063,3.6722,3.7877,3.8834,2.5798,2.5899,2.5909,2.6159,2.6563,2.7063,2.6755,2.6178,2.6832,2.7063,2.6967,2.7138,2.8052,2.8621,2.9775,3.0071,2.989,3.014,3.0379,3.0398,3.0398,3.0398,3.0398,3.0398,3.0398,3.0398,3.0398,3.0398,3.0398,3.0398,3.0398,3.0398,3.0398,3.0398,3.0398,3.0398,3.0398,3.0398,3.0398,3.0398,3.0398,3.0398,3.0398,3.0398,3.0398,3.0398,3.0398,3.0821,3.0987,3.1102,3.1371,3.1564,3.1756,3.2045,3.2487,3.2776,3.2891,3.2891,3.2891,3.2891,3.2852,3.2929,3.291,3.316,3.3372,3.3519,3.3923,3.4545,3.4891,3.5161,3.5949,3.6051,3.6065,3.6161,3.6449,3.6488,3.6122,3.5757,3.5507,3.5507,3.5507,3.5507,3.5507,3.5507,3.5507,3.5507,3.5507,3.5507,3.5507,3.5507,3.5507,3.5507,3.5507,3.5507,3.5507,3.5507,3.5507,3.5507,3.5507,3.5507,3.5493,3.5493,3.5474,3.5493,3.5493,3.5493,3.5449,3.5488,3.5526,3.5584,3.5834,3.6411,3.7161,3.8142,3.9084,2.6293,2.6409,2.6409,2.6832,2.7351,2.6851,2.6505,2.637,2.6717,2.6582,2.6082,2.872,2.8659,2.8659,2.9717,3.034,3.0379,3.0371,3.0398,3.0398,3.0398,3.0398,3.0398,3.0398,3.0398,3.0398,3.0398,3.0398,3.0398,3.0398,3.0398,3.0398,3.0398,3.0398,3.0398,3.0398,3.0398,3.0398,3.0398,3.0398,3.0398,3.0398,3.0398,3.0398,3.0667,3.0706,3.091,3.141,3.1872,3.1929,3.266,3.266,3.2487,3.2641,3.3218,3.3314,3.3506,3.3583,3.3622,3.3487,3.3449,3.3295,3.3353,3.368,3.4218,3.4424,3.4732,3.5084,3.5449,3.5718,3.6565,3.6603,3.6699,3.6969,3.7584,3.7584,3.7007,3.6257,3.6084,3.5743,3.5628,3.5507,3.5507,3.5507,3.5507,3.5526,3.5545,3.5545,3.5584,3.5641,3.5724,3.5738,3.5776,3.5603,3.5565,3.5545,3.5545,3.5507,3.5507,3.5507,3.5507,3.5507,3.5507,3.5507,3.5507,3.5507,3.5507,3.5507,3.5545,3.5641,3.5872,3.6257,3.718,3.8334,3.9027,2.5929,2.5514,2.5514,2.564,2.5832,2.6351,2.6274,2.5841,2.7101,2.7178,2.6591,2.7272,2.8341,2.8909,2.989,3.0379,3.0398,3.0398,3.0398,3.0398,3.0398,3.0398,3.0398,3.0398,3.0398,3.0398,3.0398,3.0398,3.0398,3.0398,3.0398,3.0398,3.0398,3.0398,3.0398,3.0398,3.0398,3.0398,3.0398,3.0398,3.0398,3.0398,3.0475,3.0571,3.1064,3.1371,3.1641,3.2237,3.2699,3.2776,3.3526,3.3814,3.3776,3.3891,3.4276,3.468,3.4795,3.4737,3.4757,3.4911,3.5026,3.5084,3.4911,3.4968,3.5218,3.5295,3.5468,3.5603,3.5757,3.593,3.6622,3.6969,3.7161,3.7584,3.7988,3.8046,3.7796,3.7642,3.718,3.6647,3.6089,3.5507,3.5526,3.5622,3.5776,3.5911,3.6045,3.6045,3.6065,3.6147,3.6262,3.6205,3.6142,3.5872,3.5641,3.5603,3.5584,3.5507,3.5507,3.5507,3.5507,3.5507,3.5507,3.5507,3.5507,3.5507,3.5507,3.5507,3.5507,3.5565,3.5795,3.6026,3.6853,3.77,3.7892,2.6254,2.538,2.5783,2.5967,2.614,2.6909,2.7044,2.6794,2.7525,2.7659,2.7544,2.7849,2.8418,2.9198,3.0006,3.0379,3.0398,3.0398,3.0398,3.0398,3.0398,3.0398,3.0398,3.0398,3.0398,3.0398,3.0398,3.0398,3.0398,3.0398,3.0398,3.0398,3.0398,3.0398,3.0398,3.0398,3.0398,3.0398,3.0398,3.0398,3.0398,3.0398,3.0571,3.1121,3.1487,3.1872,3.2429,3.3141,3.3545,3.3737,3.441,3.4776,3.4853,3.4891,3.5045,3.543,3.5507,3.5507,3.5507,3.5507,3.5449,3.5468,3.5526,3.5738,3.5988,3.6142,3.6276,3.6642,3.6834,3.7142,3.8007,3.7969,3.818,3.8411,3.8854,3.8911,3.8719,3.8984,3.843,3.755,3.682,3.6199,3.5622,3.5776,3.6045,3.6276,3.6507,3.6584,3.6603,3.6738,3.6897,3.6628,3.6507,3.6238,3.6007,3.5988,3.5993,3.5878,3.568,3.568,3.5661,3.5738,3.5603,3.5507,3.5507,3.5641,3.5507,3.5507,3.5507,3.5507,3.5641,3.5892,3.6411,3.6873,3.7199,2.6956,2.589,2.6563,2.6851,2.6967,2.7582,2.7871,2.7928,2.8082,2.8044,2.8044,2.8852,2.9236,2.9371,2.991,3.0398,3.0398,3.0398,3.0398,3.0398,3.0398,3.0398,3.0398,3.0398,3.0398,3.0398,3.0398,3.0398,3.0398,3.0398,3.0398,3.0398,3.0398,3.0398,3.0398,3.0398,3.0398,3.0398,3.0398,3.0398,3.0417,3.0609,3.0936,3.1737,3.2006,3.2583,3.3179,3.3987,3.441,3.4622,3.5045,3.5449,3.5488,3.5488,3.5584,3.5685,3.5589,3.5565,3.5738,3.5795,3.5872,3.5872,3.5968,3.6372,3.6719,3.7026,3.7214,3.7853,3.795,3.82,3.8834,3.9219,3.9219,3.9392,3.9854,4.0219,3.97,3.9546,3.9407,3.8565,3.7661,3.6776,3.6045,3.6084,3.6372,3.6661,3.6911,3.7334,3.7373,3.7507,3.7526,3.7123,3.6853,3.6603,3.6469,3.6507,3.657,3.6628,3.6339,3.6161,3.6103,3.6065,3.6007,3.6084,3.5911,3.6007,3.5757,3.5526,3.5507,3.5507,3.5507,3.568,3.6065,3.6526,3.6949,2.8032,2.7582,2.7698,2.7755,2.7775,2.7928,2.7948,2.8063,2.8698,2.8525,2.8198,2.9448,2.9775,2.9525,3.0044,3.0379,3.0398,3.0398,3.0398,3.0398,3.0398,3.0398,3.0398,3.0398,3.0398,3.0398,3.0398,3.0398,3.0398,3.0398,3.0398,3.0398,3.0398,3.0398,3.0398,3.0398,3.0398,3.0417,3.0436,3.0456,3.0571,3.1141,3.1525,3.2141,3.2968,3.3833,3.4064,3.4757,3.518,3.5257,3.5391,3.5507,3.5507,3.5507,3.593,3.6122,3.6045,3.5795,3.6406,3.6565,3.6584,3.6699,3.7103,3.7623,3.7834,3.795,3.8046,3.7909,3.8093,3.8527,3.9258,3.9354,3.9642,3.995,4.0277,4.045,4.0239,3.9988,3.9869,3.9407,3.843,3.7219,3.6238,3.6488,3.6738,3.7026,3.7373,3.7853,3.8161,3.8296,3.8277,3.7911,3.7603,3.7353,3.7199,3.718,3.7219,3.7358,3.7051,3.6757,3.6796,3.6853,3.7046,3.7046,3.6796,3.643,3.6219,3.5968,3.5661,3.5699,3.5935,3.5782,3.557,3.6108,3.6969,2.8744,2.7948,2.839,2.8582,2.864,2.9102,2.9313,2.939,2.9679,2.966,2.9467,3.0006,3.0179,2.9948,3.0294,3.0379,3.0398,3.0398,3.0398,3.0398,3.0398,3.0398,3.0398,3.0398,3.0398,3.0456,3.0398,3.0398,3.0398,3.0417,3.0398,3.0417,3.0417,3.0398,3.0571,3.0436,3.0706,3.0987,3.116,3.1129,3.1225,3.1552,3.216,3.3064,3.3833,3.4391,3.4891,3.5218,3.5507,3.5507,3.5507,3.5507,3.5507,3.5603,3.6007,3.7271,3.6661,3.6642,3.7291,3.7411,3.743,3.7469,3.7853,3.8123,3.8638,3.9104,3.9335,3.9454,3.9415,3.9604,3.9831,3.9969,4.0142,4.0392,4.0489,4.0489,4.0489,4.045,4.0215,3.9734,3.9234,3.8161,3.7392,3.7738,3.8007,3.8142,3.8584,3.9123,3.9219,3.9123,3.9022,3.8772,3.8522,3.8257,3.8123,3.806,3.7988,3.8027,3.7757,3.7565,3.7642,3.7757,3.7911,3.7853,3.7584,3.7199,3.6834,3.6353,3.6007,3.6205,3.6512,3.6435,3.643,3.6969,3.7738,2.9423,2.8602,2.9179,2.9429,2.9467,3.014,3.0359,3.0379,3.034,3.0379,3.0398,3.0398,3.0398,3.0398,3.0379,3.0398,3.0398,3.0398,3.0398,3.0398,3.0417,3.0552,3.066,3.066,3.0544,3.0717,3.0487,3.059,3.0794,3.0852,3.091,3.0756,3.1179,3.1141,3.109,3.1205,3.1506,3.1929,3.2006,3.1994,3.2071,3.2295,3.3064,3.3833,3.4449,3.4834,3.5372,3.5507,3.5507,3.5507,3.5507,3.5507,3.5507,3.582,3.6526,3.7546,3.7469,3.7873,3.8354,3.8527,3.8373,3.8392,3.8604,3.9084,3.9503,4.0215,4.0469,4.0296,4.0315,4.0354,4.0489,4.045,4.045,4.045,4.0489,4.0489,4.0508,4.0546,4.0523,4.0177,3.9792,3.9527,3.9046,3.9277,3.9392,3.9392,3.9796,4.0296,4.0104,3.9719,3.9542,3.9287,3.9061,3.895,3.9142,3.9022,3.8911,3.8719,3.8469,3.8527,3.8719,3.8642,3.8623,3.8507,3.8392,3.8507,3.843,3.7373,3.643,3.6873,3.7257,3.7411,3.7603,3.8065,3.8546,3.0092,3.0237,3.0275,3.0263,3.0263,3.0359,3.0398,3.0398,3.0398,3.0398,3.0398,3.0398,3.0398,3.0398,3.0398,3.0398,3.0398,3.0398,3.0475,3.0456,3.0456,3.0968,3.1141,3.1083,3.0871,3.1371,3.1044,3.1064,3.1583,3.2153,3.1929,3.1718,3.2102,3.2526,3.2602,3.2449,3.2449,3.2718,3.2756,3.2852,3.3045,3.3391,3.3987,3.4295,3.4949,3.5449,3.5507,3.5507,3.5507,3.5507,3.5507,3.5507,3.557,3.6094,3.6974,3.7738,3.8527,3.9008,3.9585,3.9469,3.9238,3.9392,3.97,4.0027,4.0196,4.035,4.0489,4.0489,4.0489,4.0489,4.0489,4.0489,4.0489,4.0546,4.0642,4.0835,4.0816,4.0739,4.0681,4.0504,4.0258,3.9969,3.9912,3.9969,3.9854,3.9796,3.9931,4.0427,4.02,3.9892,3.9811,3.9634,3.9427,3.9561,4.0104,3.9988,3.9585,3.9508,3.9392,3.9642,3.995,3.9777,3.9354,3.9469,3.9469,3.9758,3.9815,3.8757,3.8007,3.7926,3.8022,3.8219,3.8507,3.8892,3.9431,3.0292,3.0398,3.0398,3.0398,3.0398,3.0398,3.0398,3.0398,3.0398,3.0398,3.0398,3.0398,3.0398,3.0398,3.0398,3.0398,3.0398,3.0398,3.0717,3.1083,3.1314,3.1718,3.1891,3.1833,3.1621,3.2141,3.1807,3.1749,3.2442,3.3378,3.3596,3.35,3.316,3.2852,3.2968,3.343,3.341,3.3218,3.343,3.3699,3.3769,3.3968,3.4449,3.5045,3.5199,3.5507,3.5507,3.5507,3.5507,3.5507,3.5507,3.5565,3.5743,3.6402,3.7228,3.8065,3.8892,3.9681,4.0296,4.0181,4.0046,4.0065,4.0315,4.0489,4.0489,4.0489,4.0489,4.0489,4.0489,4.0489,4.0489,4.0489,4.0508,4.0623,4.0854,4.1143,4.1335,4.1335,4.1316,4.1335,4.0835,4.0354,4.0373,4.0431,4.0277,4.0162,4.0315,4.0408,4.0219,4.0123,4.0062,4.0042,3.9869,3.9869,4.0354,4.0296,4.0142,4.0162,4.0181,4.0296,4.0431,4.0392,4.0104,4.0296,4.0296,4.0239,4.0104,3.9854,3.9527,3.9215,3.908,3.9099,3.9392,3.9719,4.0085,3.0398,3.0398,3.0398,3.0398,3.0398,3.0398,3.0398,3.0398,3.0398,3.0398,3.0398,3.0398,3.0398,3.0436,3.0737,3.0552,3.059,3.0725,3.116,3.1448,3.1718,3.2352,3.266,3.2679,3.2468,3.3,3.2923,3.2884,3.3346,3.4815,3.4879,3.4462,3.4045,3.3853,3.391,3.4141,3.4237,3.4007,3.418,3.457,3.4595,3.4647,3.4776,3.5391,3.5488,3.5507,3.5507,3.5507,3.5507,3.5603,3.5705,3.5878,3.6243,3.682,3.767,3.8416,3.9142,3.9892,4.0315,4.0489,4.0489,4.0412,4.0431,4.0489,4.0489,4.0489,4.0489,4.0489,4.0489,4.0508,4.0566,4.0739,4.0989,4.12,4.1492,4.18,4.22,4.2335,4.2277,4.222,4.1604,4.0969,4.0796,4.0796,4.045,4.0335,4.0373,4.0469,4.0412,4.0354,4.0373,4.0369,4.0335,4.0373,4.0489,4.0373,4.0296,4.0335,4.0354,4.0392,4.0489,4.0489,4.0489,4.0431,4.0431,4.0469,4.0373,4.0142,4.0239,4.0354,4.0104,3.9758,4.0085,4.0354,4.0431,3.0379,3.0398,3.0398,3.0398,3.0398,3.0398,3.0398,3.0398,3.0398,3.0467,3.0513,3.0475,3.0456,3.0609,3.1109,3.0975,3.0833,3.1256,3.1775,3.1987,3.2237,3.2891,3.3353,3.3506,3.3333,3.3904,3.3808,3.3712,3.4193,3.5033,3.5328,3.5449,3.5199,3.518,3.5378,3.5411,3.5411,3.5397,3.5372,3.532,3.5301,3.5282,3.5378,3.5449,3.5507,3.5507,3.5507,3.5699,3.5738,3.5801,3.6397,3.6647,3.6815,3.8146,3.8896,3.9142,3.9912,4.0373,4.0489,4.0489,4.0489,4.0489,4.0489,4.0489,4.0489,4.0489,4.0623,4.0739,4.0719,4.0681,4.0873,4.1258,4.1623,4.1893,4.2203,4.2569,4.2989,4.3544,4.3525,4.3066,4.2354,4.1739,4.1431,4.1143,4.07,4.0508,4.0489,4.0489,4.0489,4.0489,4.0489,4.0489,4.0489,4.0489,4.0489,4.0489,4.0469,4.0489,4.0489,4.0489,4.0489,4.0489,4.0489,4.0489,4.0489,4.0489,4.0489,4.045,4.0489,4.0489,4.0489,4.0373,4.07,4.0816,4.0739,3.0136,3.015,3.0323,3.0398,3.0398,3.0398,3.0398,3.0398,3.0417,3.0717,3.1052,3.0713,3.079,3.109,3.0982,3.1059,3.1371,3.1448,3.1968,3.3256,3.3218,3.4045,3.4526,3.4372,3.4237,3.4641,3.4545,3.4558,3.5064,3.552,3.5488,3.5565,3.6084,3.5949,3.5622,3.5507,3.5488,3.5488,3.5488,3.5488,3.5507,3.5512,3.5532,3.557,3.5595,3.5628,3.5718,3.6065,3.6295,3.6411,3.7089,3.7526,3.77,3.8877,3.93,3.9488,4.0062,4.0469,4.0489,4.0489,4.0489,4.0527,4.0585,4.0604,4.0527,4.0489,4.0758,4.12,4.1354,4.1566,4.222,4.2431,4.2681,4.2777,4.3066,4.3489,4.3932,4.4603,4.4812,4.3968,4.3201,4.2393,4.1893,4.172,4.1335,4.0831,4.0754,4.0566,4.0508,4.0508,4.0489,4.0489,4.0489,4.0489,4.0489,4.0489,4.0489,4.0489,4.0489,4.0489,4.0489,4.0489,4.0489,4.0489,4.0489,4.0489,4.0489,4.0489,4.0489,4.0489,4.0546,4.0527,4.0604,4.0642,4.0585,3.0061,3.015,3.0323,3.0583,3.0775,3.0544,3.0398,3.0456,3.0706,3.1198,3.1494,3.1174,3.1405,3.1725,3.1443,3.1347,3.2102,3.2506,3.2795,3.418,3.418,3.4661,3.5026,3.5218,3.5218,3.543,3.5455,3.5512,3.5468,3.5897,3.6262,3.6603,3.6873,3.6873,3.6507,3.6276,3.5988,3.5911,3.5815,3.5628,3.5722,3.5844,3.5952,3.6163,3.6293,3.6324,3.6498,3.6815,3.7161,3.7392,3.7853,3.8426,3.8715,3.9142,3.9662,3.9931,4.0466,4.0739,4.0604,4.1373,4.1393,4.1066,4.0969,4.1123,4.1296,4.1585,4.1777,4.2085,4.222,4.2547,4.3008,4.322,4.3547,4.3643,4.4008,4.4432,4.4682,4.5334,4.5391,4.4586,4.3989,4.3162,4.245,4.2258,4.2027,4.1489,4.1004,4.0812,4.0604,4.0604,4.0623,4.0623,4.0566,4.0546,4.0527,4.0489,4.0489,4.0489,4.0489,4.0489,4.0489,4.0489,4.0489,4.0489,4.0489,4.0489,4.0489,4.0508,4.0662,4.07,4.0662,4.0623,4.0527,4.0585,4.0662,3.0207,3.0424,3.0456,3.1006,3.1525,3.0987,3.0609,3.0621,3.1391,3.1775,3.1872,3.2109,3.2378,3.2744,3.243,3.2539,3.2929,3.366,3.4064,3.4295,3.4468,3.4968,3.5507,3.5968,3.5724,3.5935,3.6128,3.6089,3.5757,3.6551,3.73,3.7623,3.7796,3.7853,3.7661,3.7353,3.6839,3.6407,3.6189,3.6055,3.6124,3.6344,3.67,3.702,3.7247,3.7386,3.7598,3.7892,3.8007,3.8334,3.8834,3.9196,3.958,4.01,4.0354,4.0758,4.1354,4.1162,4.1258,4.2239,4.2489,4.2162,4.2047,4.2393,4.2566,4.2624,4.2739,4.2951,4.3124,4.3201,4.3374,4.3874,4.4335,4.4624,4.4989,4.524,4.5374,4.5584,4.5565,4.5163,4.4701,4.4028,4.3355,4.3008,4.2816,4.2124,4.162,4.1235,4.1046,4.0893,4.0893,4.0854,4.0777,4.0623,4.0566,4.0508,4.0489,4.0489,4.0489,4.0489,4.0489,4.0489,4.0489,4.0489,4.0489,4.0489,4.0489,4.07,4.0989,4.1008,4.1181,4.1104,4.1104,4.0989,4.1027,3.0958,3.1125,3.186,3.2314,3.2506,3.2295,3.2199,3.2237,3.2506,3.2852,3.3449,3.2885,3.3205,3.3795,3.4289,3.4173,3.4045,3.4141,3.4603,3.4853,3.5026,3.5276,3.5584,3.5858,3.5705,3.5955,3.632,3.6839,3.668,3.7358,3.7411,3.718,3.845,3.8796,3.8834,3.8661,3.7705,3.6955,3.6766,3.6712,3.67,3.6953,3.7426,3.7838,3.8024,3.8127,3.8247,3.87,3.8854,3.9065,3.9719,4.0138,4.0215,4.0427,4.0642,4.1393,4.1739,4.1873,4.2335,4.2816,4.3181,4.3412,4.347,4.322,4.3258,4.3297,4.3508,4.3797,4.3989,4.4066,4.4297,4.4739,4.4989,4.5182,4.5432,4.549,4.5586,4.5586,4.5586,4.549,4.5047,4.4797,4.4124,4.3951,4.3662,4.2893,4.2297,4.1893,4.1393,4.1184,4.0969,4.0931,4.0931,4.0758,4.0585,4.0489,4.0489,4.0489,4.0489,4.0489,4.0489,4.0489,4.0489,4.0546,4.0642,4.0585,4.0489,4.0893,4.1607,4.1854,4.2008,4.1835,4.1681,4.1623,4.145,3.1866,3.2015,3.2603,3.3083,3.3449,3.3795,3.393,3.3872,3.3583,3.3737,3.4141,3.4032,3.4224,3.4699,3.5155,3.5155,3.4757,3.4814,3.5199,3.5776,3.5738,3.6103,3.618,3.618,3.6334,3.6565,3.7026,3.7584,3.7546,3.8027,3.8257,3.8565,3.9469,3.9623,3.9738,3.9588,3.8879,3.8049,3.7519,3.7494,3.7575,3.7752,3.8225,3.8676,3.8767,3.8799,3.8935,3.9531,3.97,3.9892,4.0566,4.1004,4.1139,4.1331,4.1643,4.2374,4.2777,4.2835,4.3066,4.3797,4.4105,4.4335,4.4586,4.4566,4.4374,4.4355,4.4547,4.4739,4.4836,4.4951,4.5297,4.5566,4.5566,4.5566,4.5586,4.5586,4.5586,4.5586,4.5586,4.5586,4.5432,4.5259,4.5028,4.4874,4.4528,4.3797,4.3278,4.2896,4.2088,4.1319,4.1011,4.0796,4.0873,4.0873,4.0758,4.0719,4.0719,4.0681,4.0489,4.0489,4.0508,4.0527,4.0566,4.07,4.0854,4.0912,4.1085,4.178,4.2434,4.2665,4.2893,4.2816,4.2662,4.247,4.22,3.2819,3.2968,3.3038,3.3615,3.4372,3.5064,3.5372,3.543,3.4737,3.443,3.4641,3.5141,3.5378,3.5584,3.5795,3.5776,3.5699,3.5776,3.6199,3.6796,3.6372,3.6642,3.718,3.7257,3.7142,3.7853,3.8354,3.8373,3.8507,3.8931,3.9623,4.0412,4.0373,4.0335,4.0277,4.0296,3.9733,3.9097,3.8616,3.8492,3.8611,3.888,3.9261,3.9834,3.9986,4.0042,4.0221,4.0403,4.0511,4.0803,4.12,4.1662,4.212,4.2412,4.2835,4.3258,4.3662,4.3816,4.397,4.4624,4.4778,4.4932,4.5105,4.5259,4.5143,4.5066,4.5182,4.524,4.5259,4.5278,4.5509,4.5586,4.5586,4.5586,4.5586,4.5586,4.5586,4.5586,4.5586,4.5586,4.5547,4.5413,4.5393,4.5201,4.5086,4.4528,4.403,4.3684,4.3088,4.1975,4.153,4.1219,4.1681,4.1873,4.1431,4.1354,4.1104,4.095,4.0893,4.1046,4.1431,4.1143,4.0642,4.0931,4.1258,4.1643,4.1989,4.2665,4.3261,4.3624,4.3778,4.3816,4.3682,4.347,4.297,3.3729,3.3658,3.4292,3.4825,3.5185,3.5411,3.5507,3.5565,3.5968,3.6045,3.604,3.5762,3.5897,3.6406,3.6622,3.6603,3.6526,3.6853,3.743,3.7603,3.7334,3.745,3.793,3.7815,3.7853,3.8065,3.8527,3.9219,3.9619,3.9965,3.9931,3.9758,4.0104,4.0489,4.0489,4.0489,4.0246,3.9874,3.9854,3.9323,3.9031,3.9509,3.9986,4.0081,4.0101,3.9982,4.0081,4.0158,4.0578,4.1093,4.1522,4.2107,4.2758,4.3013,4.3417,4.3932,4.4259,4.447,4.4836,4.522,4.5278,4.5355,4.5451,4.5528,4.5566,4.5586,4.5586,4.5586,4.5586,4.5586,4.5586,4.5586,4.5586,4.5586,4.5586,4.5586,4.5586,4.5586,4.5586,4.5586,4.5586,4.5586,4.5586,4.5547,4.547,4.5086,4.4491,4.4107,4.3857,4.3145,4.2799,4.2662,4.322,4.3258,4.2566,4.2085,4.1893,4.2027,4.2143,4.2258,4.2354,4.1931,4.1489,4.1508,4.1739,4.2277,4.2874,4.3511,4.403,4.4412,4.4624,4.4643,4.4797,4.4701,4.4008,3.4531,3.4492,3.543,3.5887,3.6012,3.6045,3.5834,3.5685,3.6353,3.693,3.7214,3.6858,3.6873,3.7271,3.7483,3.7507,3.7373,3.7738,3.8161,3.8392,3.8373,3.8565,3.8565,3.845,3.8777,3.895,3.9335,3.9965,4.0442,4.0466,4.0196,3.9892,4.0335,4.0489,4.0489,4.0489,4.0489,4.0489,4.0677,4.0251,3.9471,3.9852,3.9982,3.9943,3.9859,3.9794,4.0114,4.0309,4.0941,4.1723,4.2437,4.3431,4.4047,4.4318,4.4491,4.4739,4.497,4.5086,4.5432,4.5586,4.5586,4.5586,4.5586,4.5586,4.5586,4.5586,4.5586,4.5586,4.5586,4.5586,4.5586,4.5586,4.5586,4.5586,4.5586,4.5586,4.5586,4.5586,4.5586,4.5586,4.5586,4.5586,4.5586,4.5586,4.5528,4.549,4.4934,4.453,4.4297,4.4239,4.3951,4.3778,4.4162,4.3893,4.2989,4.2739,4.2758,4.2989,4.3278,4.2989,4.2794,4.2585,4.2393,4.2412,4.2643,4.3181,4.3778,4.4299,4.4684,4.5028,4.5278,4.5451,4.5624,4.5701,4.5143,3.535,3.5592,3.6443,3.6825,3.6873,3.6873,3.6507,3.6103,3.6719,3.7488,3.8142,3.8277,3.8277,3.818,3.8161,3.818,3.8315,3.8642,3.8969,3.9084,3.8777,3.9258,3.9392,3.9219,3.9527,3.9873,4.0239,4.0315,4.0485,4.0469,4.0469,4.0489,4.0489,4.0489,4.0489,4.0457,4.0406,4.0436,4.052,4.0554,4.0324,4.0117,3.993,3.9739,3.9576,3.9747,4.0222,4.0786,4.1361,4.2523,4.3513,4.4412,4.5007,4.5201,4.5278,4.5413,4.5393,4.5451,4.5586,4.5586,4.5586,4.5586,4.5586,4.5586,4.5586,4.5586,4.5586,4.5586,4.5586,4.5586,4.5586,4.5586,4.5586,4.5586,4.5586,4.5586,4.5586,4.5586,4.5586,4.5586,4.5586,4.5586,4.5586,4.5586,4.5586,4.5586,4.5413,4.5047,4.4797,4.4874,4.4797,4.4509,4.4509,4.4047,4.3585,4.3585,4.3758,4.3893,4.4085,4.3621,4.3275,4.3239,4.3258,4.3316,4.3624,4.3989,4.4451,4.4951,4.5316,4.5565,4.5528,4.5663,4.6067,4.6124,4.6086,3.6635,3.7448,3.7455,3.7562,3.7723,3.7757,3.7661,3.768,3.8354,3.8931,3.9065,3.9662,3.9738,3.9069,3.9065,3.9065,3.9123,3.9469,3.9892,4.0142,3.9796,4.0123,4.0239,3.9892,4.0181,4.0373,4.0489,4.0489,4.0489,4.0489,4.0489,4.0473,4.0473,4.0473,4.0422,4.0356,4.0215,4.0311,4.0319,4.0302,4.0615,4.0346,3.9964,3.9633,3.9205,3.9687,4.0246,4.0731,4.1952,4.331,4.4516,4.5203,4.5507,4.5586,4.5586,4.5586,4.5586,4.5586,4.5586,4.5586,4.5586,4.5586,4.5586,4.5586,4.5586,4.5586,4.5586,4.5586,4.5586,4.5586,4.5586,4.5586,4.5586,4.5586,4.5586,4.5586,4.5586,4.5586,4.5586,4.5586,4.5586,4.5586,4.5586,4.5586,4.5586,4.5586,4.5586,4.5278,4.524,4.5393,4.5509,4.524,4.4932,4.5182,4.5124,4.4836,4.4893,4.4989,4.4913,4.4489,4.4201,4.4085,4.4105,4.4143,4.4314,4.4586,4.5086,4.549,4.5643,4.5815,4.5624,4.574,4.6278,4.6586,4.6567]}]]